[[{"header":{"parameterUnit":"m.s-1","parameterCategory":1,"la1":30.6,"la2":28.766,"lo1":-90.7593,"lo2":-88.6598,"dy":0.0162,"dx":0.0183,"nx":116,"ny":114,"refTime":"2023-07-03T06:00:00:Z","depth":0,"parameterNumber":2,"parameterNumberName":"U-component_of_WINDS"},"data":[0.0,0.0,0.0,0.0,0.0,0.0,0.0,0.0,0.0,0.0,0.0,0.0,0.0,0.0,0.0,0.0,0.0,0.0,0.0,0.0,0.0,0.0,0.0,0.0,0.0,0.0,0.0,0.0,0.0,0.0,0.0,0.0,0.0,0.0,0.0,0.0,0.0,0.0,0.0,0.0,0.0,0.0,0.0,0.0,0.0,0.0,0.0,0.0,0.0,0.0,0.0,0.0,0.0,0.0,0.0,0.0,0.0,0.0,0.0,0.0,0.0,0.0,0.0,0.0,0.0,0.0,0.0,0.0,0.0,0.0,0.0,0.0,0.0,0.0,0.0,0.0,0.0,0.0,0.0,0.0,0.0,0.0,0.0,0.0,0.0,0.0,0.0,0.0,0.0,0.0,0.0,0.0,0.0,0.0,0.0,0.0,0.0,0.0,0.0,0.0,0.0,0.0,0.0,0.0,0.0,0.0,0.0,0.0,0.0,0.0,0.0,0.0,0.0,0.0,0.0,0.0,0.0,0.0,0.0,0.0,0.0,0.0,0.0,0.0,0.0,0.0,0.0,0.0,0.0,0.0,0.0,0.0,0.0,0.0,0.0,0.0,0.0,0.0,0.0,0.0,0.0,0.0,0.0,0.0,0.0,0.0,0.0,0.0,0.0,0.0,0.0,0.0,0.0,0.0,0.0,0.0,0.0,0.0,0.0,0.0,0.0,0.0,0.0,0.0,0.0,0.0,0.0,0.0,0.0,0.0,0.0,0.0,0.0,0.0,0.0,0.0,0.0,0.0,0.0,0.0,0.0,0.0,0.0,0.0,0.0,0.0,0.0,0.0,0.0,0.0,0.0,0.0,0.0,0.0,0.0,0.0,0.0,0.0,0.0,0.0,0.0,0.0,0.0,0.0,0.0,0.0,0.0,0.0,0.0,0.0,0.0,0.0,0.0,0.0,0.0,0.0,0.0,0.0,0.0,0.0,0.0,0.0,0.0,0.0,0.0,0.0,0.0,0.0,0.0,0.0,0.0,0.0,0.0,0.0,0.0,0.0,0.0,0.0,0.0,0.0,0.0,0.0,0.0,0.0,0.0,0.0,0.0,0.0,0.0,0.0,0.0,0.0,0.0,0.0,0.0,0.0,0.0,0.0,0.0,0.0,0.0,0.0,0.0,0.0,0.0,0.0,0.0,0.0,0.0,0.0,0.0,0.0,0.0,0.0,0.0,0.0,0.0,0.0,0.0,0.0,0.0,0.0,0.0,0.0,0.0,0.0,0.0,0.0,0.0,0.0,0.0,0.0,0.0,0.0,0.0,0.0,0.0,0.0,0.0,0.0,0.0,0.0,0.0,0.0,0.0,0.0,0.0,0.0,0.0,0.0,0.0,0.0,0.0,0.0,0.0,0.0,0.0,0.0,0.0,0.0,0.0,0.0,0.0,0.0,0.0,0.0,0.0,0.0,0.0,0.0,0.0,0.0,0.0,0.0,0.0,0.0,0.0,0.0,0.0,0.0,0.0,0.0,0.0,0.0,0.0,0.0,0.0,0.0,0.0,0.0,0.0,0.0,0.0,0.0,0.0,0.0,0.0,0.0,0.0,0.0,0.0,0.0,0.0,0.0,0.0,0.0,0.0,0.0,0.0,0.0,0.0,0.0,0.0,0.0,0.0,0.0,0.0,0.0,0.0,0.0,0.0,0.0,0.0,0.0,0.0,0.0,0.0,0.0,0.0,0.0,0.0,0.0,0.0,0.0,0.0,0.0,0.0,0.0,0.0,0.0,0.0,0.0,0.0,0.0,0.0,0.0,0.0,0.0,0.0,0.0,0.0,0.0,0.0,0.0,0.0,0.0,0.0,0.0,0.0,0.0,0.0,0.0,0.0,0.0,0.0,0.0,0.0,0.0,0.0,0.0,0.0,0.0,0.0,0.0,0.0,0.0,0.0,0.0,0.0,0.0,0.0,0.0,0.0,0.0,0.0,0.0,0.0,0.0,0.0,0.0,0.0,0.0,0.0,0.0,0.0,0.0,0.0,0.0,0.0,0.0,0.0,0.0,0.0,0.0,0.0,0.0,0.0,0.0,0.0,0.0,0.0,0.0,0.0,0.0,0.0,0.0,0.0,0.0,0.0,0.0,0.0,0.0,0.0,0.0,0.0,0.0,0.0,0.0,0.0,0.0,0.0,0.0,0.0,0.0,0.0,0.0,0.0,0.0,0.0,0.0,0.0,0.0,0.0,0.0,0.0,0.0,0.0,0.0,0.0,0.0,0.0,0.0,0.0,0.0,0.0,0.0,0.0,0.0,0.0,0.0,0.0,0.0,0.0,0.0,0.0,0.0,0.0,0.0,0.0,0.0,0.0,0.0,0.0,0.0,0.0,0.0,0.0,0.0,0.0,0.0,0.0,0.0,0.0,0.0,0.0,0.0,0.0,0.0,0.0,0.0,0.0,0.0,0.0,0.0,0.0,0.0,0.0,0.0,0.0,0.0,0.0,0.0,0.0,0.0,0.0,0.0,0.0,0.0,0.0,0.0,0.0,0.0,0.0,0.0,0.0,0.0,0.0,0.0,0.0,0.0,0.0,0.0,0.0,0.0,0.0,0.0,0.0,0.0,0.0,0.0,0.0,0.0,0.0,0.0,0.0,0.0,0.0,0.0,0.0,0.0,0.0,0.0,0.0,0.0,0.0,0.0,0.0,0.0,0.0,0.0,0.0,0.0,0.0,0.0,0.0,0.0,0.0,0.0,0.0,0.0,0.0,0.0,0.0,0.0,0.0,0.0,0.0,0.0,0.0,0.0,0.0,0.0,0.0,0.0,0.0,0.0,0.0,0.0,0.0,0.0,0.0,0.0,0.0,0.0,0.0,0.0,0.0,0.0,0.0,0.0,0.0,0.0,0.0,0.0,0.0,0.0,0.0,0.0,0.0,0.0,0.0,0.0,0.0,0.0,0.0,0.0,0.0,0.0,0.0,0.0,0.0,0.0,0.0,0.0,0.0,0.0,0.0,0.0,0.0,0.0,0.0,0.0,0.0,0.0,0.0,0.0,0.0,0.0,0.0,0.0,0.0,0.0,0.0,0.0,0.0,0.0,0.0,0.0,0.0,0.0,0.0,0.0,0.0,0.0,0.0,0.0,0.0,0.0,0.0,0.0,0.0,0.0,0.0,0.0,0.0,0.0,0.0,0.0,0.0,0.0,0.0,0.0,0.0,0.0,0.0,0.0,0.0,0.0,0.0,0.0,0.0,0.0,0.0,0.0,0.0,0.0,0.0,0.0,0.0,0.0,0.0,0.0,0.0,0.0,0.0,0.0,0.0,0.0,0.0,0.0,0.0,0.0,0.0,0.0,0.0,0.0,0.0,0.0,0.0,0.0,0.0,0.0,0.0,0.0,0.0,0.0,0.0,0.0,0.0,0.0,0.0,0.0,0.0,0.0,0.0,0.0,0.0,0.0,0.0,0.0,0.0,0.0,0.0,0.0,0.0,0.0,0.0,0.0,0.0,0.0,0.0,0.0,0.0,0.0,0.0,0.0,0.0,0.0,0.0,0.0,0.0,0.0,0.0,0.0,0.0,0.0,0.0,0.0,0.0,0.0,0.0,0.0,0.0,0.0,0.0,0.0,0.0,0.0,0.0,0.0,0.0,0.0,0.0,0.0,0.0,0.0,0.0,0.0,0.0,0.0,0.0,0.0,0.0,0.0,0.0,0.0,0.0,0.0,0.0,0.0,0.0,0.0,0.0,0.0,0.0,0.0,0.0,0.0,0.0,0.0,0.0,0.0,0.0,0.0,0.0,0.0,0.0,0.0,0.0,0.0,0.0,0.0,0.0,0.0,0.0,0.0,0.0,0.0,0.0,0.0,0.0,0.0,0.0,0.0,0.0,0.0,0.0,0.0,0.0,0.0,0.0,0.0,0.0,0.0,0.0,0.0,0.0,0.0,0.0,0.0,0.0,0.0,0.0,0.0,0.0,0.0,0.0,0.0,0.0,0.0,0.0,0.0,0.0,0.0,0.0,0.0,0.0,0.0,0.0,0.0,0.0,0.0,0.0,0.0,0.0,0.0,0.0,0.0,0.0,0.0,0.0,0.0,0.0,0.0,0.0,0.0,0.0,0.0,0.0,0.0,0.0,0.0,0.0,0.0,0.0,0.0,0.0,0.0,0.0,0.0,0.0,0.0,0.0,0.0,0.0,0.0,0.0,0.0,0.0,0.0,0.0,0.0,0.0,0.0,0.0,0.0,0.0,0.0,0.0,0.0,0.0,0.0,0.0,0.0,0.0,0.0,0.0,0.0,0.0,0.0,0.0,0.0,0.0,0.0,0.0,0.0,0.0,0.0,0.0,0.0,0.0,0.0,0.0,0.0,0.0,0.0,0.0,0.0,0.0,0.0,0.0,0.0,0.0,0.0,0.0,0.0,0.0,0.0,0.0,0.0,0.0,0.0,0.0,0.0,0.0,0.0,0.0,0.0,0.0,0.0,0.0,0.0,0.0,0.0,0.0,0.0,0.0,0.0,0.0,0.0,0.0,0.0,0.0,0.0,0.0,0.0,0.0,0.0,0.0,0.0,0.0,0.0,0.0,0.0,0.0,0.0,0.0,0.0,0.0,0.0,0.0,0.0,0.0,0.0,0.0,0.0,0.0,0.0,0.0,0.0,0.0,0.0,0.0,0.0,0.0,0.0,0.0,0.0,0.0,0.0,0.0,0.0,0.0,0.0,0.0,0.0,0.0,0.0,0.0,0.0,0.0,0.0,0.0,0.0,0.0,0.0,0.0,0.0,0.0,0.0,0.0,0.0,0.0,0.0,0.0,0.0,0.0,0.0,0.0,0.0,0.0,0.0,0.0,0.0,0.0,0.0,0.0,0.0,0.0,0.0,0.0,0.0,0.0,0.0,0.0,0.0,0.0,0.0,0.0,0.0,0.0,0.0,0.0,0.0,0.0,0.0,0.0,0.0,0.0,0.0,0.0,0.0,0.0,0.0,0.0,0.0,0.0,0.0,0.0,0.0,0.0,0.0,0.0,0.0,0.0,0.0,0.0,0.0,0.0,0.0,0.0,0.0,0.0,0.0,0.0,0.0,0.0,0.0,0.0,0.0,0.0,0.0,0.0,0.0,0.0,0.0,0.0,0.0,0.0,0.0,0.0,0.0,0.0,0.0,0.0,0.0,0.0,0.0,0.0,0.0,0.0,0.0,0.0,0.0,0.0,0.0,0.0,0.0,0.0,0.0,0.0,0.0,0.0,0.0,0.0,0.0,0.0,0.0,0.0,0.0,0.0,0.0,0.0,0.0,0.0,0.0,0.0,0.0,0.0,0.0,0.0,0.0,0.0,0.0,0.0,0.0,0.0,0.0,0.0,0.0,0.0,0.0,0.0,0.0,0.0,0.0,0.0,0.0,0.0,0.0,0.0,0.0,0.0,0.0,0.0,0.0,0.0,0.0,0.0,0.0,0.0,0.0,0.0,0.0,0.0,0.0,0.0,0.0,0.0,0.0,0.0,0.0,0.0,0.0,0.0,0.0,0.0,0.0,0.0,0.0,0.0,0.0,0.0,0.0,0.0,0.0,0.0,0.0,0.0,0.0,0.0,0.0,0.0,0.0,0.0,0.0,0.0,0.0,0.0,0.0,0.0,0.0,0.0,0.0,0.0,0.0,0.0,0.0,0.0,0.0,0.0,0.0,0.0,0.0,0.0,0.0,0.0,0.0,0.0,0.0,0.0,0.0,0.0,0.0,0.0,0.0,0.0,0.0,0.0,0.0,0.0,0.0,0.0,0.0,0.0,0.0,0.0,0.0,0.0,0.0,0.0,0.0,0.0,0.0,0.0,0.0,0.0,0.0,0.0,0.0,0.0,0.0,0.0,0.0,0.0,0.0,0.0,0.0,0.0,0.0,0.0,0.0,0.0,0.0,0.0,0.0,0.0,0.0,0.0,0.0,0.0,0.0,0.0,0.0,0.0,0.0,0.0,0.0,0.0,0.0,0.0,0.0,0.0,0.0,0.0,0.0,0.0,0.0,0.0,0.0,0.0,0.0,0.0,0.0,0.0,0.0,0.0,0.0,0.0,0.0,0.0,0.0,0.0,0.0,0.0,0.0,0.0,0.0,0.0,0.0,-2.6533,-2.6533,0.0,0.0,0.0,0.0,0.0,0.0,0.0,0.0,0.0,0.0,0.0,0.0,0.0,0.0,0.0,0.0,0.0,0.0,0.0,0.0,0.0,0.0,0.0,0.0,0.0,0.0,0.0,0.0,0.0,0.0,0.0,0.0,0.0,0.0,0.0,0.0,0.0,0.0,0.0,0.0,0.0,0.0,0.0,0.0,0.0,0.0,0.0,0.0,0.0,0.0,0.0,0.0,0.0,0.0,0.0,0.0,0.0,0.0,0.0,0.0,0.0,0.0,0.0,0.0,0.0,0.0,0.0,0.0,0.0,0.0,0.0,0.0,0.0,0.0,0.0,0.0,0.0,0.0,0.0,0.0,0.0,0.0,0.0,0.0,0.0,0.0,0.0,0.0,0.0,0.0,0.0,0.0,0.0,0.0,0.0,0.0,0.0,0.0,0.0,0.0,0.0,0.0,0.0,0.0,0.0,0.0,0.0,0.0,0.0,0.0,0.0,0.0,0.0,0.0,-2.6533,-2.6533,0.0,0.0,0.0,0.0,0.0,0.0,0.0,0.0,0.0,0.0,0.0,0.0,0.0,0.0,0.0,0.0,0.0,0.0,0.0,0.0,0.0,0.0,0.0,0.0,0.0,0.0,0.0,0.0,0.0,0.0,0.0,0.0,0.0,0.0,0.0,0.0,0.0,0.0,0.0,0.0,0.0,0.0,0.0,0.0,0.0,0.0,0.0,0.0,0.0,0.0,0.0,0.0,0.0,0.0,0.0,0.0,0.0,0.0,0.0,0.0,0.0,0.0,0.0,0.0,0.0,0.0,0.0,0.0,0.0,0.0,0.0,0.0,0.0,0.0,0.0,0.0,0.0,0.0,0.0,0.0,0.0,0.0,0.0,0.0,0.0,0.0,0.0,0.0,0.0,0.0,0.0,0.0,0.0,0.0,0.0,0.0,0.0,0.0,0.0,0.0,0.0,0.0,0.0,0.0,0.0,0.0,0.0,0.0,-2.6533,-2.6533,-2.6533,-2.6533,-2.6533,-2.6533,-2.6533,-2.6533,-2.6533,-2.6533,0.0,0.0,0.0,0.0,0.0,0.0,0.0,0.0,0.0,0.0,0.0,0.0,0.0,0.0,0.0,0.0,0.0,0.0,0.0,0.0,0.0,0.0,0.0,0.0,0.0,0.0,0.0,0.0,0.0,0.0,0.0,0.0,0.0,0.0,0.0,0.0,0.0,0.0,0.0,0.0,0.0,0.0,0.0,0.0,0.0,0.0,0.0,0.0,0.0,0.0,0.0,0.0,0.0,0.0,0.0,0.0,0.0,0.0,0.0,0.0,0.0,0.0,0.0,0.0,0.0,0.0,0.0,0.0,0.0,0.0,0.0,0.0,0.0,0.0,0.0,0.0,0.0,0.0,0.0,0.0,0.0,0.0,0.0,0.0,0.0,0.0,-1.6495,-1.683,0.0,0.0,0.0,0.0,0.0,0.0,0.0,0.0,0.0,0.0,0.0,0.0,0.0,-2.6233,-2.6533,-2.6383,-2.6383,-2.6533,-2.6533,-2.6533,-2.6533,-2.6533,-2.6533,-2.6533,-2.6533,0.0,-2.6533,-2.6533,0.0,0.0,0.0,0.0,0.0,0.0,0.0,0.0,0.0,0.0,0.0,0.0,0.0,0.0,0.0,0.0,0.0,0.0,0.0,0.0,0.0,0.0,0.0,0.0,0.0,0.0,0.0,0.0,0.0,0.0,0.0,0.0,0.0,0.0,0.0,0.0,0.0,0.0,0.0,0.0,0.0,0.0,0.0,0.0,0.0,0.0,0.0,0.0,0.0,0.0,0.0,0.0,0.0,0.0,0.0,0.0,0.0,0.0,0.0,0.0,0.0,0.0,0.0,0.0,0.0,0.0,0.0,0.0,0.0,0.0,0.0,0.0,0.0,0.0,0.0,0.0,0.0,0.0,0.0,0.0,0.0,0.0,0.0,0.0,0.0,-1.7228,-1.8452,-1.8964,-2.0372,-2.1532,0.0,0.0,0.0,0.0,0.0,0.0,0.0,0.0,0.0,-2.6533,-2.6533,-2.6533,-2.6533,-2.6533,-2.6533,-2.6533,-2.6533,-2.6533,-2.6533,-2.6533,-2.6533,-2.6533,-2.6533,-2.6533,-2.6533,-2.6533,-2.6533,-2.6533,0.0,0.0,0.0,0.0,-2.4636,-2.4036,0.0,0.0,0.0,0.0,0.0,0.0,0.0,0.0,0.0,0.0,0.0,0.0,0.0,0.0,0.0,0.0,0.0,0.0,0.0,0.0,0.0,0.0,0.0,0.0,0.0,0.0,0.0,0.0,0.0,0.0,0.0,0.0,0.0,0.0,0.0,0.0,0.0,0.0,0.0,0.0,0.0,0.0,0.0,0.0,0.0,0.0,0.0,0.0,0.0,0.0,0.0,0.0,0.0,0.0,0.0,0.0,0.0,0.0,0.0,0.0,0.0,0.0,0.0,0.0,0.0,0.0,0.0,0.0,0.0,0.0,0.0,0.0,0.0,0.0,0.0,0.0,0.0,-1.8868,-1.9728,-2.0681,-2.1769,-2.2776,0.0,0.0,0.0,0.0,0.0,0.0,-2.6533,-2.6533,-2.6533,-2.6533,-2.6533,-2.6533,-2.6533,-2.6533,-2.6533,-2.6533,-2.6533,-2.6533,-2.6533,-2.6533,-2.6533,-2.6533,-2.6533,-2.6533,-2.6533,-2.6533,-2.6533,-2.6452,-2.6245,-2.5664,-2.4933,-2.4409,-2.3745,-2.2999,0.0,0.0,0.0,0.0,0.0,0.0,0.0,0.0,0.0,0.0,0.0,0.0,0.0,0.0,0.0,0.0,0.0,0.0,0.0,0.0,0.0,0.0,0.0,0.0,0.0,0.0,0.0,0.0,0.0,0.0,0.0,0.0,0.0,0.0,0.0,0.0,0.0,0.0,0.0,0.0,0.0,0.0,0.0,0.0,0.0,0.0,0.0,0.0,0.0,0.0,0.0,0.0,0.0,0.0,0.0,0.0,0.0,0.0,0.0,0.0,0.0,0.0,0.0,0.0,0.0,0.0,0.0,0.0,0.0,0.0,0.0,0.0,0.0,0.0,0.0,0.0,0.0,0.0,0.0,-2.18,-2.284,0.0,0.0,0.0,0.0,-2.6383,-2.6452,-2.6533,-2.6533,-2.6533,-2.6533,-2.6533,-2.6533,-2.6533,-2.6533,-2.6533,-2.6533,-2.6533,-2.6533,-2.6533,-2.6533,-2.6533,-2.6533,-2.6533,-2.6533,-2.6533,-2.6533,-2.6533,-2.6533,-2.6383,-2.5441,-2.5004,-2.4779,-2.285,-2.2103,-2.1962,0.0,0.0,0.0,0.0,0.0,0.0,0.0,0.0,0.0,0.0,0.0,0.0,0.0,0.0,0.0,0.0,0.0,0.0,0.0,0.0,0.0,0.0,0.0,0.0,0.0,0.0,0.0,0.0,0.0,0.0,0.0,0.0,0.0,0.0,0.0,0.0,0.0,0.0,0.0,0.0,0.0,0.0,0.0,0.0,0.0,0.0,0.0,0.0,0.0,0.0,0.0,0.0,0.0,0.0,0.0,0.0,0.0,0.0,0.0,0.0,0.0,0.0,0.0,0.0,0.0,0.0,0.0,0.0,0.0,0.0,0.0,0.0,0.0,0.0,0.0,0.0,0.0,0.0,0.0,-2.2776,-2.3294,0.0,-2.5804,-2.6314,-2.6533,-2.6533,-2.6533,-2.6533,-2.6533,-2.6533,-2.6533,-2.6533,-2.6533,-2.6533,-2.6533,-2.6533,-2.6533,-2.6533,-2.6533,-2.6533,-2.6533,-2.6533,-2.6533,-2.6533,-2.6533,-2.6094,-2.5511,-2.5511,-2.5511,-2.5511,-2.5158,-2.4192,-2.2999,-2.2253,-2.1593,-2.1078,0.0,0.0,0.0,0.0,0.0,0.0,0.0,0.0,0.0,0.0,0.0,0.0,0.0,0.0,0.0,0.0,0.0,0.0,0.0,0.0,0.0,0.0,0.0,0.0,0.0,0.0,0.0,0.0,0.0,0.0,0.0,0.0,0.0,0.0,0.0,0.0,0.0,0.0,0.0,0.0,0.0,0.0,-0.7139,0.0,0.0,0.0,0.0,0.0,0.0,0.0,0.0,0.0,0.0,0.0,0.0,0.0,0.0,0.0,0.0,0.0,0.0,0.0,0.0,0.0,0.0,0.0,0.0,0.0,0.0,0.0,0.0,0.0,0.0,0.0,0.0,0.0,0.0,-2.0566,-2.1308,-2.3294,-2.3514,-2.4325,-2.6314,-2.6533,-2.6533,-2.6533,-2.6533,-2.6533,-2.6533,-2.6533,-2.6533,-2.6533,-2.6533,-2.6533,-2.6533,-2.6533,-2.6533,-2.6533,-2.6533,-2.6533,-2.6533,-2.6533,-2.6533,-2.6452,-2.6164,-2.5594,-2.4933,-2.4636,-2.4264,-2.3963,-2.3963,-2.3147,-2.1952,-2.1659,-2.1155,-2.0566,0.0,0.0,0.0,0.0,0.0,0.0,0.0,0.0,0.0,0.0,0.0,0.0,0.0,0.0,0.0,0.0,0.0,0.0,0.0,0.0,0.0,0.0,0.0,0.0,0.0,0.0,0.0,0.0,0.0,0.0,0.0,0.0,0.0,0.0,0.0,0.0,0.0,0.0,0.0,0.0,0.0,0.0,-0.7139,0.0,0.0,0.0,0.0,0.0,0.0,0.0,0.0,0.0,0.0,0.0,0.0,0.0,0.0,0.0,0.0,0.0,0.0,0.0,0.0,0.0,0.0,0.0,0.0,0.0,0.0,0.0,0.0,0.0,0.0,0.0,0.0,0.0,-2.0489,-2.0566,-2.1308,-2.322,-2.3514,-2.4253,-2.6233,-2.6452,-2.6533,-2.6533,-2.6533,-2.6533,-2.6533,-2.6533,-2.6533,-2.6533,-2.6533,-2.6533,-2.6533,-2.6533,-2.6533,-2.6533,-2.6533,-2.6533,-2.6533,-2.6533,-2.6452,-2.6383,-2.5441,-2.4933,-2.4862,-2.3818,-2.285,-2.1952,-2.1952,-2.1952,-2.1886,-2.0934,-2.0566,-2.0566,0.0,0.0,0.0,0.0,0.0,0.0,0.0,0.0,0.0,0.0,0.0,0.0,0.0,0.0,0.0,0.0,0.0,0.0,0.0,0.0,0.0,0.0,0.0,0.0,0.0,0.0,0.0,0.0,0.0,0.0,0.0,0.0,0.0,0.0,0.0,0.0,0.0,0.0,0.0,0.0,0.0,0.0,-0.7139,0.0,0.0,0.0,0.0,0.0,0.0,0.0,0.0,0.0,0.0,0.0,0.0,0.0,0.0,0.0,0.0,0.0,0.0,0.0,0.0,0.0,0.0,0.0,0.0,0.0,0.0,0.0,0.0,0.0,0.0,0.0,-1.7738,-1.9362,-2.0489,-2.0566,-2.1078,-2.2253,-2.3073,-2.4036,-2.53,-2.6094,-2.6533,-2.6533,-2.6533,-2.6533,-2.6533,-2.6533,-2.6533,-2.6533,-2.6533,-2.6533,-2.6533,-2.6533,-2.6533,-2.6533,-2.6533,-2.6533,-2.6533,-2.6533,-2.6094,-2.537,-2.5158,-2.4192,-2.2776,-2.2553,-2.1811,-2.1078,-2.1735,-2.1593,-2.0934,-2.0712,-2.0566,-2.0566,0.0,0.0,0.0,0.0,0.0,0.0,0.0,0.0,0.0,0.0,0.0,0.0,0.0,0.0,0.0,0.0,0.0,0.0,0.0,0.0,0.0,0.0,0.0,0.0,0.0,0.0,0.0,0.0,0.0,0.0,0.0,0.0,0.0,0.0,0.0,0.0,0.0,0.0,0.0,0.0,0.0,0.0,-0.7074,-0.7074,-0.7074,-0.7074,-0.7074,-0.7074,-0.7074,-0.7074,0.0,0.0,0.0,0.0,0.0,0.0,0.0,0.0,0.0,0.0,0.0,0.0,0.0,0.0,0.0,0.0,0.0,0.0,0.0,0.0,0.0,0.0,0.0,0.0,-1.6756,-1.798,-1.9107,-2.0001,-2.0934,-2.1886,-2.2553,-2.3294,-2.4264,-2.4921,-2.5429,-2.5873,-2.5873,-2.6025,-2.6465,-2.6533,-2.6533,-2.6533,-2.6533,-2.6533,-2.6533,-2.6533,-2.6533,-2.6533,-2.6533,-2.6533,-2.6465,-2.6094,-2.5581,-2.4933,-2.4108,-2.3073,-2.1952,-2.1593,-2.1078,-2.0634,0.0,0.0,0.0,0.0,-2.0566,-2.0566,0.0,0.0,0.0,0.0,0.0,0.0,0.0,0.0,0.0,0.0,0.0,0.0,0.0,0.0,0.0,0.0,0.0,0.0,0.0,0.0,0.0,0.0,0.0,0.0,0.0,0.0,0.0,0.0,0.0,0.0,0.0,0.0,0.0,0.0,0.0,0.0,0.0,0.0,0.0,0.0,0.0,0.0,-0.6735,-0.6735,-0.6735,-0.6735,-0.6735,-0.6735,-0.6735,-0.6735,0.0,0.0,0.0,0.0,0.0,0.0,0.0,0.0,0.0,0.0,0.0,0.0,0.0,0.0,0.0,0.0,0.0,0.0,0.0,0.0,0.0,0.0,0.0,0.0,-1.5621,-1.6026,-1.7009,-1.8948,-2.0615,-2.1573,-2.1876,-2.2328,-2.322,-2.3441,-2.3891,-2.4779,-2.4862,-2.5288,-2.6314,-2.6233,0.0,0.0,0.0,-2.6314,-2.6314,-2.6452,-2.6533,-2.6533,-2.6383,-2.6314,-2.6314,-2.53,-2.4779,-2.4564,-2.2776,-2.1952,-2.1811,-2.0934,-2.0566,-2.0566,-2.0566,-2.0566,-2.0566,-2.0566,-2.0566,-2.0566,0.0,0.0,0.0,0.0,0.0,0.0,0.0,0.0,0.0,0.0,0.0,0.0,0.0,0.0,0.0,0.0,0.0,0.0,0.0,0.0,0.0,0.0,0.0,0.0,0.0,0.0,0.0,0.0,0.0,0.0,0.0,0.0,0.0,0.0,0.0,0.0,0.0,0.0,0.0,0.0,0.0,0.0,-0.4287,-0.4287,-0.4287,-0.4287,-0.4287,-0.4287,-0.4287,-0.4287,-0.4287,-0.4287,-0.4287,0.0,0.0,0.0,0.0,0.0,0.0,0.0,0.0,0.0,0.0,0.0,0.0,0.0,0.0,0.0,0.0,0.0,0.0,0.0,0.0,-1.4412,-1.5137,-1.5779,-1.5944,-1.7082,-1.8381,-1.9413,-2.1028,-2.2103,-2.2253,-2.2999,-2.3599,-2.3745,-2.3818,-2.4264,-2.5229,-2.4552,-2.448,-2.5288,-2.53,-2.53,-2.53,-2.6094,-2.6533,-2.6465,-2.5664,0.0,-2.5229,-2.4253,-2.3368,-2.2553,-2.2178,-2.1593,-2.0867,-2.0634,-2.0566,-2.0566,-2.0566,-2.0566,-2.0566,-2.0566,-2.0566,-2.0566,0.0,0.0,0.0,0.0,0.0,0.0,0.0,0.0,0.0,0.0,0.0,0.0,0.0,0.0,0.0,0.0,0.0,0.0,0.0,0.0,0.0,0.0,0.0,0.0,0.0,0.0,0.0,0.0,0.0,0.0,0.0,0.0,0.0,0.0,0.0,0.0,0.0,0.0,0.0,0.0,0.0,0.0,0.1669,0.0443,-0.0,-0.0,-0.0,-0.0802,-0.1606,-0.0445,-0.0803,-0.179,-0.1787,-0.1786,-0.2233,0.0,0.0,0.0,0.0,0.0,0.0,0.0,0.0,0.0,0.0,0.0,0.0,0.0,0.0,-1.1128,-1.2857,0.0,-1.3385,-1.3997,-1.4573,-1.4894,-1.4894,-1.5786,-1.7082,-1.8798,-1.9885,-2.074,-2.1221,-2.1745,-2.2264,-2.2702,-2.2776,-2.322,-2.4192,-2.3745,-2.3745,-2.4264,-2.4264,-2.4264,-2.4264,-2.4767,-2.4981,-2.4981,-2.448,-2.4264,-2.4192,-2.322,-2.2478,-2.1952,-2.1517,-2.1001,-2.0566,-2.0566,-2.0566,-2.0566,-2.0001,-2.0167,-2.0566,-2.0566,-2.0566,-2.0566,0.0,0.0,0.0,0.0,0.0,0.0,0.0,0.0,0.0,0.0,0.0,0.0,0.0,0.0,0.0,0.0,0.0,0.0,0.0,0.0,0.0,0.0,0.0,0.0,0.0,0.0,0.0,0.0,0.0,0.0,0.0,0.0,0.0,0.0,0.0,0.0,0.0,0.0,0.0,0.0,0.0,0.0,0.6897,0.4965,0.4285,0.4287,0.4287,0.3037,0.1609,0.3124,0.2593,0.1256,0.0805,0.0715,0.0268,-0.2149,-0.2861,0.0,0.0,0.0,0.0,0.0,0.0,0.0,0.0,0.0,-0.7408,-0.8627,-0.889,-0.9492,-1.1552,-1.2151,-1.2589,-1.3555,-1.3913,-1.4088,-1.4088,-1.481,-1.6108,-1.8141,-1.8718,-1.9362,-2.0245,-2.0479,-2.0934,-2.1659,-2.1735,-2.2178,-2.3147,-2.2999,-2.2999,-2.322,-2.322,-2.322,-2.322,-2.3368,-2.3514,-2.3514,-2.3294,-2.322,-2.3147,-2.2188,-2.1735,-2.1659,-2.0692,-2.0157,-2.0001,-2.0001,-2.0001,-1.9835,-1.9036,-1.9195,-2.0001,-2.0001,-2.0001,-2.0001,0.0,0.0,0.0,0.0,0.0,0.0,0.0,0.0,0.0,0.0,0.0,0.0,0.0,0.0,0.0,0.0,0.0,0.0,0.0,0.0,0.0,0.0,0.0,0.0,0.0,0.0,0.0,0.0,0.0,0.0,0.0,0.0,0.0,0.0,0.0,0.0,0.0,0.0,0.0,0.0,0.0,0.0,0.6949,0.6734,0.671,0.6735,0.6735,0.6554,0.6011,0.42,0.483,0.5922,0.3842,0.3212,0.2767,0.0268,0.0,-0.0447,-0.0447,-0.2142,-0.4018,-0.4018,-0.4016,-0.4554,0.0,0.0,-0.7429,-0.8632,-0.889,-0.9323,-1.0524,-1.1638,-1.2328,-1.2498,-1.3385,-1.4088,-1.4088,-1.4166,-1.4734,-1.5944,-1.7811,-1.9045,-1.9204,-2.0001,-2.0644,-2.0789,-2.0789,-2.1155,-2.2103,-2.1375,-2.1298,-2.2103,-2.2178,-2.2178,-2.2178,-2.3073,-2.3514,-2.3514,-2.2627,-2.2178,-2.2103,-2.1155,-2.0789,-2.0712,-1.9678,-1.863,-1.7658,-1.7658,-1.7658,-1.7666,-1.7504,-1.7577,-1.7658,-1.7658,-1.7658,-1.7658,0.0,0.0,0.0,0.0,0.0,0.0,0.0,0.0,0.0,0.0,0.0,0.0,0.0,0.0,0.0,0.0,0.0,0.0,0.0,0.0,0.0,0.0,0.0,0.0,0.0,0.0,0.0,0.0,0.0,0.0,0.0,0.0,0.0,0.0,0.0,0.0,0.0,0.0,0.0,0.0,0.0,0.0,0.7651,0.7222,0.7061,0.7074,0.7074,0.7081,0.0,0.0,0.6266,0.6917,0.5908,0.5638,0.5463,0.4387,0.3127,0.0,0.0358,-0.0715,-0.1519,-0.1522,-0.152,-0.1787,-0.2769,-0.5097,-0.7258,-0.7775,-0.7852,-0.8189,-0.9405,-1.0009,-1.0524,-1.1209,-1.2248,-1.3027,-1.3027,-1.3646,-1.425,-1.4734,-1.6116,-1.7334,-1.798,-1.9036,-1.9687,-1.9687,-2.0245,-2.0789,-2.1155,-2.0789,-2.0789,-2.1155,-2.1155,-2.1155,-2.1155,-2.1593,-2.1821,-2.1821,-2.1375,-2.1155,-2.1155,-2.0789,-2.0245,-1.9599,-1.847,-1.7738,-1.7342,-1.7342,-1.7342,-1.7261,-1.6601,-1.6355,-1.6437,-1.709,-1.7342,-1.7342,0.0,0.0,0.0,0.0,0.0,0.0,0.0,0.0,0.0,0.0,0.0,0.0,0.0,0.0,0.0,0.0,0.0,0.0,0.0,0.0,0.0,0.0,0.0,0.0,0.0,0.0,0.0,0.0,0.0,0.0,0.0,0.0,0.0,0.0,0.0,0.0,0.0,0.0,0.0,0.0,0.0,0.0,0.8613,0.8225,0.8097,0.8009,0.7312,0.7061,0.0,0.0,0.7068,0.7088,0.7078,0.7081,0.7088,0.7094,0.5913,0.42,0.2416,0.0984,-0.0,-0.0,-0.0,-0.0,-0.0,-0.268,-0.5547,-0.6818,-0.7078,-0.733,-0.8201,-0.836,-0.8786,-0.9918,-1.1128,-1.1809,-1.1809,-1.2857,-1.3561,-1.3561,-1.4552,-1.5545,-1.6363,-1.7658,-1.855,-1.855,-1.9274,-1.9678,-1.9678,-1.9678,-1.9678,-1.9678,-1.9678,-1.9678,-1.9678,-1.9678,-1.9678,-1.9678,-1.9678,-1.9678,-1.9678,-1.9678,-1.9107,-1.806,-1.7253,-1.669,-1.6445,-1.6445,-1.6445,-1.6363,-1.5545,-1.5296,-1.5379,-1.6116,-1.6445,-1.6445,0.0,0.0,0.0,0.0,0.0,0.0,0.0,0.0,0.0,0.0,0.0,0.0,0.0,0.0,0.0,0.0,0.0,0.0,0.0,0.0,0.0,0.0,0.0,0.0,0.0,0.0,0.0,0.0,0.0,0.0,0.0,0.0,0.0,0.0,0.0,0.0,0.0,0.0,0.0,0.0,0.0,0.0,0.9907,1.0354,1.0524,1.0178,0.7921,0.0,0.0,0.0,0.7139,0.7143,0.7143,0.7143,0.0,0.7078,0.7091,0.7015,0.6946,0.3497,-0.0,-0.0,-0.0,-0.0,-0.0,-0.0089,-0.1519,-0.6192,-0.7101,-0.7098,-0.7177,-0.7129,-0.7537,-0.8794,-0.9923,-1.0611,-1.0611,-1.1638,-1.2328,-1.2328,-1.3379,-1.4166,-1.4173,-1.6124,-1.7342,-1.7342,-1.7415,-1.7415,-1.7415,-1.7415,-1.7415,-1.7415,-1.7415,-1.7415,-1.7415,-1.7415,-1.7415,-1.7415,-1.7415,-1.7415,-1.7415,-1.7415,-1.6846,-1.5779,-1.5779,-1.5137,-1.4166,-1.4166,-1.4166,-1.4173,-1.4166,-1.4173,-1.4166,-1.4173,-1.4166,-1.4166,0.0,0.0,0.0,0.0,0.0,0.0,0.0,0.0,0.0,0.0,0.0,0.0,0.0,0.0,0.0,0.0,0.0,0.0,0.0,0.0,0.0,0.0,0.0,0.0,0.0,0.0,0.0,0.0,0.0,0.0,0.0,0.0,0.0,0.0,0.0,0.0,0.0,0.0,0.0,0.0,0.0,0.0,1.1896,1.1741,1.1262,1.0524,0.0,0.0,0.0,0.0,0.0,0.0,0.9396,0.9396,0.9314,0.8548,0.7768,0.7074,0.7094,0.5191,0.3034,0.2503,0.1163,-0.0,-0.0,-0.0,-0.0447,-0.2056,-0.3664,-0.4739,-0.4736,-0.6074,-0.7234,-0.7598,-0.8723,-0.9492,-0.9492,-1.0438,-1.1209,-1.1209,-1.1558,-1.2083,-1.2857,-1.4942,-1.6273,-1.6273,-1.6927,-1.7342,-1.7342,-1.7342,-1.7342,-1.7342,-1.7342,-1.7342,-1.7342,-1.7342,-1.7342,-1.7342,-1.7342,-1.7342,-1.7261,-1.6601,-1.6026,-1.5703,-1.4977,-1.4412,-1.4075,-1.3874,-1.3794,-1.3774,-1.3581,-1.3507,-1.3527,-1.3721,-1.3794,-1.3821,0.0,0.0,0.0,0.0,0.0,0.0,0.0,0.0,0.0,0.0,0.0,0.0,0.0,0.0,0.0,0.0,0.0,0.0,0.0,0.0,0.0,0.0,0.0,0.0,0.0,0.0,0.0,0.0,0.0,0.0,0.0,0.0,0.0,0.0,0.0,0.0,0.0,0.0,0.0,0.0,0.0,0.0,1.3502,1.3487,1.2796,0.0,0.0,0.0,0.0,0.0,0.0,0.0,1.0611,1.0611,1.0438,0.9753,0.8711,0.7665,0.7231,0.6343,0.5542,0.5006,0.3666,0.2324,0.1519,0.0626,-0.0,-0.0,-0.1252,-0.2324,-0.2321,-0.4287,-0.6088,-0.6992,-0.7768,-0.8277,-0.8277,-0.9231,-1.0009,-1.0009,-1.0351,-1.0869,-1.1638,-1.299,-1.4266,-1.5054,-1.5794,-1.6124,-1.6124,-1.6124,-1.6124,-1.6124,-1.6124,-1.6124,-1.6124,-1.6124,-1.6124,-1.6124,-1.6124,-1.6124,-1.6124,-1.5462,-1.5137,-1.5047,-1.4296,-1.3928,-1.3908,-1.3607,-1.3487,-1.3467,-1.328,-1.3213,-1.3233,-1.342,-1.3487,-1.3547,0.0,0.0,0.0,0.0,0.0,0.0,0.0,0.0,0.0,0.0,0.0,0.0,0.0,0.0,0.0,0.0,0.0,0.0,0.0,0.0,0.0,0.0,0.0,0.0,0.0,0.0,0.0,0.0,0.0,0.0,0.0,0.0,0.0,0.0,0.0,0.0,0.0,0.0,0.0,0.0,0.0,0.0,1.4869,1.5612,0.0,0.0,0.0,0.0,0.0,0.0,0.0,0.0,1.0783,1.0783,1.0697,1.0697,0.9923,0.8707,0.7534,0.7221,0.7173,0.7098,0.7101,0.6551,0.4287,0.1965,0.0358,0.0179,0.009,-0.0,0.0,0.0,-0.4198,-0.6723,-0.7068,-0.7143,-0.7143,-0.8105,-0.8807,0.0,0.0,0.0,0.0,-1.0524,-1.1477,-1.3737,-1.3913,-1.3913,-1.3997,-1.3997,-1.3997,-1.4088,-1.4088,-1.4088,-1.4088,-1.4088,-1.4088,-1.4088,-1.4088,-1.4088,-1.4088,-1.4088,-1.4082,-1.4048,-1.3768,-1.3552,-1.3601,-1.3307,-1.3186,-1.3186,-1.3173,-1.316,-1.3166,-1.318,-1.3186,-1.3267,0.0,0.0,0.0,0.0,0.0,0.0,0.0,0.0,0.0,0.0,0.0,0.0,0.0,0.0,0.0,0.0,0.0,0.0,0.0,0.0,0.0,0.0,0.0,0.0,0.0,0.0,0.0,0.0,0.0,0.0,0.0,0.0,0.0,0.0,0.0,0.0,0.0,0.0,0.0,0.0,0.0,0.0,1.702,0.0,0.0,0.0,0.0,0.0,0.0,0.0,0.0,0.0,0.0,1.2601,1.1901,1.1901,1.1037,0.9923,0.8786,0.8452,0.8201,0.7326,0.7078,0.6907,0.6361,0.5733,0.4835,0.3035,0.1251,-0.0,-0.0,-0.0536,0.0,-0.6391,-0.7104,0.0,-0.7078,-0.734,0.0,-0.758,0.0,-0.836,-0.9235,-0.9323,-0.9927,-1.1391,-1.1477,-1.1821,-1.2681,-1.2766,-1.3203,-1.4088,-1.4088,-1.4088,-1.4088,-1.4088,-1.4088,-1.4088,-1.4088,-1.4088,-1.4088,-1.4088,-1.3968,-1.3748,-1.3674,-1.352,-1.33,-1.2986,-1.2866,-1.2839,-1.2619,-1.2532,-1.2559,-1.2786,-1.2866,-1.2919,0.0,0.0,0.0,0.0,0.0,0.0,0.0,0.0,0.0,0.0,0.0,0.0,0.0,0.0,0.0,0.0,0.0,0.0,0.0,0.0,0.0,0.0,0.0,0.0,0.0,0.0,0.0,0.0,0.0,0.0,0.0,0.0,0.0,0.0,0.0,0.0,0.0,0.0,0.0,0.0,0.0,0.0,0.0,0.0,0.0,0.0,0.0,0.0,0.0,0.0,0.0,1.4088,1.4088,1.3646,1.3112,1.3112,0.0,1.1209,1.0611,1.0009,0.9492,0.8794,0.8627,0.8468,0.8036,0.7503,0.67,0.5453,0.4022,0.2503,0.0358,-0.0,-0.0893,0.0,0.0,0.0,-0.6083,-0.6631,-0.7078,0.0,-0.7139,0.0,-0.8017,-0.8105,-0.836,-0.9052,-1.0005,-1.0869,-1.1552,-1.1552,-1.1901,-1.2516,-1.2601,-1.2778,-1.3294,-1.3294,-1.3561,-1.4088,-1.4088,-1.4088,-1.4088,-1.3555,-1.3149,-1.2877,-1.2255,-1.1888,-1.163,-1.136,-1.1246,-1.1235,-1.1085,-1.095,-1.1043,-1.1721,-1.1929,-1.2049,0.0,0.0,0.0,0.0,0.0,0.0,0.0,0.0,0.0,0.0,0.0,0.0,0.0,0.0,0.0,0.0,0.0,0.0,0.0,0.0,0.0,0.0,0.0,0.0,0.0,0.0,0.0,0.0,0.0,0.0,0.0,0.0,0.0,0.0,0.0,0.0,0.0,0.0,0.0,0.0,0.0,0.0,0.0,0.0,0.0,0.0,0.0,0.0,0.0,0.0,1.4088,1.4088,1.4088,1.4088,1.4088,1.4088,1.3379,1.2498,1.2328,1.1552,1.0778,1.0611,1.0611,1.0265,0.9148,0.8074,0.7285,0.716,0.7091,0.5827,0.1698,0.0446,-0.0,-0.0,0.0,-0.3393,-0.4103,-0.5813,-0.7081,-0.7058,-0.7143,-0.7139,-0.7139,-0.7139,-0.7139,-0.7139,-0.8965,-1.0178,-1.0351,-1.0351,-1.0438,-1.0611,-1.0611,-1.1037,-1.2066,-1.2072,-1.2595,-1.3652,-1.3652,-1.3737,-1.3822,-1.2595,-1.2085,-1.1981,-1.0518,-0.9802,-0.9647,-0.9377,-0.9296,-0.9296,-0.9296,-0.9296,-0.9372,-1.0265,-1.0565,-1.0743,0.0,0.0,0.0,0.0,0.0,0.0,0.0,0.0,0.0,0.0,1.3244,0.0,0.0,0.0,0.0,0.0,0.0,0.0,0.0,0.0,0.0,0.0,0.0,0.0,0.0,0.0,0.0,0.0,0.0,0.0,0.0,0.0,0.0,0.0,0.0,0.0,0.0,0.0,0.0,0.0,0.0,0.0,0.0,0.0,0.0,0.0,0.0,0.0,0.0,0.0,1.4088,1.4088,1.4088,1.4088,1.4088,1.4088,1.3913,1.3561,1.2589,1.2151,1.1809,1.0869,1.0611,1.0265,0.9148,0.8711,0.0,0.0,0.7074,0.6815,0.6,0.2679,-0.0,-0.0,-0.0358,-0.0717,-0.0805,-0.4474,-0.7094,0.0,-0.7064,-0.7139,-0.7139,-0.7139,-0.7139,-0.7139,-0.7489,-0.8101,-0.9148,-0.9235,-0.9666,-1.0611,-1.0611,-1.0697,-1.0864,-1.0864,-1.1042,-1.1214,-1.1214,-1.1729,-1.2589,-1.1386,-1.1237,-1.1727,-1.0444,-0.9716,-0.9352,-0.9316,-0.9296,-0.9296,-0.9296,-0.9296,-0.9296,-0.9523,-0.9593,-0.9604,0.0,0.0,0.0,0.0,0.0,0.0,0.0,0.0,0.0,0.0,1.2659,1.3164,0.0,0.0,0.0,0.0,0.0,0.0,0.0,0.0,0.0,0.0,0.0,0.0,0.0,0.0,0.0,0.0,0.0,0.0,0.0,0.0,0.0,0.0,0.0,0.0,0.0,0.0,0.0,0.0,0.0,0.0,0.0,0.0,0.0,0.0,0.0,0.0,0.0,0.0,1.4088,1.4088,1.4088,1.4088,1.4088,1.4088,1.4088,1.3997,1.3379,1.3203,1.3118,1.2601,1.2431,1.2083,1.0956,0.0,0.0,0.0,0.7499,0.7071,0.7084,0.5193,0.0,0.0447,-0.0,-0.0,-0.0,-0.1967,-0.4293,-0.6815,-0.7074,-0.7064,-0.7143,-0.7139,-0.7139,-0.7139,-0.7139,-0.7312,-0.7929,-0.7929,-0.8185,-0.879,-0.879,-0.9052,-0.9753,-0.9753,-1.0009,-1.0611,-1.0611,-1.0869,-1.1381,-1.0269,-0.9781,-0.9948,-0.8733,-0.8041,-0.7706,-0.7706,-0.7706,-0.7706,-0.7706,-0.7706,-0.7783,-0.8313,-0.8542,-0.8618,0.0,0.0,0.0,0.0,0.0,0.0,0.0,1.2592,1.2398,1.2398,1.2345,1.2592,1.331,1.3382,1.381,0.0,0.0,0.0,0.0,0.0,0.0,0.0,0.0,0.0,0.0,0.0,0.0,2.3813,0.0,0.0,0.0,0.0,0.0,0.0,0.0,0.0,0.0,0.0,0.0,0.0,0.0,0.0,0.0,0.0,0.0,0.0,0.0,0.0,0.0,0.0,1.4328,1.4088,1.4088,1.4088,1.4088,1.4088,1.4088,1.4088,1.4088,1.4088,1.4088,1.4088,1.4088,1.3822,1.2589,1.1381,0.0,0.9148,0.7929,0.7058,0.7074,0.0,0.5735,0.0,0.0358,-0.0,-0.0,-0.0,-0.1608,-0.5816,-0.6811,0.0,-0.7143,-0.7139,-0.7139,-0.7139,-0.7139,-0.7139,-0.7139,-0.7139,-0.7139,-0.7139,-0.7139,-0.7577,-0.854,-0.854,-0.8969,-0.9831,-0.9831,-1.0005,-1.0183,-0.9061,-0.8508,-0.8319,-0.7188,-0.6532,-0.6338,-0.6338,-0.6338,-0.6338,-0.6338,-0.6338,-0.6412,-0.7173,-0.748,-0.7557,0.0,0.0,0.0,0.0,0.0,0.0,0.0,1.2906,1.2782,1.2782,1.2472,1.2305,1.2445,1.2445,1.2806,0.0,0.0,0.0,0.0,0.0,0.0,0.0,0.0,0.0,0.0,0.0,0.0,2.2125,2.1353,0.0,0.0,0.0,0.0,0.0,0.0,2.0782,0.0,0.0,0.0,0.0,0.0,0.0,0.0,0.0,0.0,0.0,0.0,0.0,0.0,0.0,0.0,1.4088,1.4088,1.4088,1.4088,1.4088,0.0,0.0,1.4088,1.4088,1.4088,1.4088,1.4088,1.3822,1.2589,0.0,1.0269,0.9148,0.7929,0.7139,0.7143,0.0,0.0,0.0,0.0,-0.0,-0.0,-0.0,-0.0983,-0.3571,0.0,0.0,-0.7143,-0.7139,-0.7139,-0.7139,-0.7139,-0.7139,-0.7139,-0.7139,-0.7139,-0.7139,-0.7139,-0.7139,-0.7228,-0.7228,-0.7316,-0.7401,-0.7401,-0.8013,-0.8973,-0.7841,-0.7655,-0.8319,-0.7188,-0.6532,-0.6338,-0.6338,-0.6338,-0.6338,-0.6338,-0.6338,-0.6338,-0.6412,-0.6412,-0.6412,0.0,0.0,0.0,0.0,0.0,0.0,0.0,1.1748,1.2048,1.2048,1.2518,1.2779,1.2592,1.2565,1.2641,0.0,0.0,0.0,0.0,0.0,0.0,0.0,0.0,0.0,0.0,0.0,0.0,2.1101,2.0782,0.0,0.0,0.0,0.0,0.0,0.0,2.0423,2.02,0.0,0.0,0.0,0.0,0.0,0.0,0.0,0.0,0.0,0.0,0.0,0.0,0.0,0.0,0.0,1.4088,1.4088,0.0,0.0,1.4088,1.4088,1.4088,1.4088,1.4088,1.4088,1.4088,1.3997,1.347,0.0,1.0697,1.0864,0.8877,0.7316,0.8017,0.7598,0.6815,0.0,0.0,0.0,-0.0,-0.0,-0.1434,-0.5208,-0.6557,-0.7088,-0.7074,-0.7061,-0.7139,-0.7139,-0.7139,-0.7139,-0.7139,-0.7139,-0.7139,-0.7139,-0.7139,-0.7139,-0.7139,-0.7139,-0.7139,-0.7139,-0.7139,-0.7312,-0.7841,-0.7316,-0.7232,-0.7349,-0.6861,-0.6532,-0.6338,-0.6338,-0.6338,-0.6338,-0.6338,-0.6338,-0.6338,-0.6338,-0.6338,-0.6338,0.0,0.0,0.0,0.0,0.0,0.0,1.0293,1.0771,1.1109,1.1109,1.203,1.2634,1.2421,1.2718,1.2759,1.2458,0.0,0.0,0.0,0.0,0.0,0.0,0.0,0.0,0.0,0.0,0.0,1.9336,1.9149,1.9149,0.0,0.0,1.8706,1.8133,0.0,0.0,0.0,0.0,0.0,0.0,0.0,0.0,0.0,0.0,0.0,0.0,0.0,0.0,0.0,0.0,0.0,0.0,0.0,0.0,0.0,0.0,1.4088,1.4088,1.4088,1.4088,1.4088,1.4088,1.4088,1.4088,0.0,0.0,1.1209,1.1724,0.9566,0.7753,0.8277,0.768,0.7081,0.0,0.0,0.0805,0.009,-0.0,-0.1257,-0.4582,-0.6207,-0.7104,-0.7088,-0.7064,-0.7139,-0.7139,-0.7139,-0.7139,-0.7139,-0.7139,-0.7139,-0.7139,-0.7139,-0.7139,-0.7139,-0.7139,-0.7139,-0.7139,-0.7139,-0.7139,-0.7139,-0.7139,-0.7004,-0.6766,-0.6719,-0.6556,-0.6322,-0.6278,-0.6338,-0.6338,-0.6338,-0.6338,-0.6338,-0.6338,-0.6338,-0.6338,0.0,0.0,0.0,0.0,0.0,0.0,0.0,1.0418,1.0193,1.0193,1.0991,1.1484,1.1478,1.2546,1.308,1.2842,0.0,0.0,0.0,0.0,0.0,0.0,0.0,0.0,0.0,0.0,0.0,1.6441,1.5615,1.5677,1.6441,1.5615,1.5234,1.5251,0.0,0.0,0.0,0.0,0.0,0.0,0.0,0.0,0.0,0.0,0.0,0.0,0.0,0.0,0.0,0.0,0.0,0.0,0.0,0.0,0.0,0.0,1.4088,1.4088,1.4088,1.4088,1.4088,1.4088,1.4088,1.4088,0.0,0.0,1.1986,1.0869,0.9666,0.854,0.7316,0.7139,0.7064,0.7098,0.5099,0.0,0.0359,-0.0,-0.0,0.0,-0.4218,-0.7121,-0.7088,-0.7064,-0.7139,-0.7139,-0.7139,-0.7139,-0.7139,-0.7139,-0.7139,-0.7139,-0.7139,-0.7139,-0.7139,-0.7139,-0.7139,-0.7139,-0.7139,-0.7139,-0.7139,-0.7139,-0.7061,-0.6919,-0.6766,-0.6614,-0.6461,-0.6318,-0.6338,-0.6338,-0.6338,-0.6338,-0.6338,-0.6338,-0.6338,-0.6338,0.0,0.0,0.0,0.0,0.0,0.0,0.0,0.8831,0.9316,0.9316,1.0193,1.0847,1.0605,1.0925,1.0991,1.0748,0.0,0.0,0.0,0.0,0.0,0.0,0.0,0.0,0.0,0.0,0.0,0.0,0.0,1.5359,1.5545,1.5288,1.5295,1.5462,1.5569,1.5897,0.0,0.0,0.0,0.0,0.0,0.0,0.0,0.0,0.0,0.0,0.0,0.0,0.0,0.0,0.0,0.0,0.0,0.0,0.0,0.0,0.0,0.0,1.4088,1.4088,1.4088,1.4088,1.4088,1.4088,1.4088,0.0,0.0,1.1638,0.9566,0.7841,0.8277,0.768,0.7081,0.7098,0.6474,0.0,0.0,0.0,0.0,-0.4855,-0.6201,-0.7091,-0.7064,-0.7143,-0.7139,-0.7139,-0.7139,-0.7139,-0.7139,-0.7139,-0.7139,-0.7139,-0.7139,-0.7139,-0.7139,-0.7139,-0.7139,-0.7139,-0.7139,-0.7139,-0.7139,-0.7139,-0.7061,-0.6926,-0.6878,-0.677,-0.6617,-0.6468,-0.6407,-0.6396,-0.6298,-0.6338,-0.6338,-0.6338,-0.6338,-0.6338,0.0,0.0,0.0,0.0,0.0,0.0,0.0,0.776,0.8189,0.8189,0.9231,0.9875,0.9748,1.0069,1.0233,0.993,0.0,0.0,0.0,0.0,0.0,0.0,0.0,0.0,0.0,0.0,0.0,0.0,0.0,0.0,0.0,1.3051,1.3145,1.3362,1.3481,0.0,0.0,0.0,0.0,0.0,0.0,0.0,1.1729,0.0,0.0,0.0,0.0,0.0,0.0,0.0,0.0,0.0,0.0,0.0,0.0,0.0,1.2778,1.2954,0.0,1.4088,1.4088,1.4088,1.4088,0.0,0.0,0.0,0.0,0.0,0.0,0.0,0.8189,0.7598,0.6815,0.5913,0.648,0.5405,0.0,0.0,0.0,-0.7138,-0.7104,-0.7081,-0.7064,-0.7058,-0.7139,-0.7139,-0.7139,-0.7139,-0.7139,-0.7139,-0.7139,-0.7139,-0.7139,-0.7139,-0.7139,-0.7139,-0.7139,-0.7139,-0.7139,-0.7139,-0.7139,-0.7139,-0.7092,-0.7007,-0.6953,-0.6875,0.0,-0.662,-0.6559,-0.6546,-0.6396,-0.6339,-0.6335,-0.6281,-0.6338,-0.6338,0.0,0.0,0.0,0.0,0.0,0.0,0.0,0.0,0.0,0.0,0.8105,0.8803,0.8803,0.9749,1.0267,0.0,0.0,0.0,0.0,0.0,0.0,0.0,0.0,0.0,0.0,0.0,0.0,0.9322,0.9322,0.9351,0.9478,0.0,0.9597,0.974,1.0025,0.0,0.0,0.0,0.0,0.0,0.0,0.0,0.0,0.0,0.0,0.0,0.0,0.0,0.0,0.0,0.0,0.0,0.0,0.0,0.0,0.0,0.0,0.0,0.0,1.3822,1.3822,1.3822,1.3822,0.0,0.0,0.0,0.0,0.0,0.0,0.0,0.0,0.7071,0.6361,0.4198,0.5389,0.4949,0.018,-0.4146,-0.6882,-0.7045,-0.7104,-0.7084,-0.7084,-0.7064,-0.7139,-0.7139,-0.7139,-0.7139,-0.7139,-0.7139,-0.7139,-0.7139,-0.7139,-0.7139,-0.7139,-0.7139,-0.7139,-0.7139,-0.7139,-0.7139,-0.7139,-0.7139,-0.7139,-0.7132,-0.7,-0.6946,-0.6932,-0.678,-0.6715,-0.6702,-0.6549,-0.6481,-0.6458,-0.6325,-0.6271,-0.6338,0.0,0.0,0.0,0.0,0.0,0.0,0.0,0.0,0.0,0.0,0.7326,0.7492,0.7492,0.7749,0.7906,0.0,0.0,0.0,0.0,0.0,0.0,0.0,0.0,0.0,0.0,0.0,0.0,0.9461,0.9461,0.9498,0.9626,0.9626,0.0,0.0,0.0,0.0,0.0,0.0,0.0,0.0,0.0,0.0,0.0,0.0,0.0,0.0,1.0265,1.0611,0.0,0.0,0.0,0.0,0.0,0.0,0.0,0.0,1.0611,1.0697,1.1305,0.0,1.1391,1.1391,1.1391,1.1386,0.0,0.0,0.0,0.0,0.0,0.0,0.0,0.0,0.6923,0.6391,0.3683,-0.0,-0.4784,-0.4855,-0.5107,-0.6917,-0.7074,-0.7061,-0.7061,-0.7143,-0.7139,-0.7139,-0.7139,-0.7139,-0.7139,-0.7139,-0.7139,-0.7139,-0.7139,-0.7139,-0.7139,-0.7139,-0.7139,-0.7139,-0.7139,-0.7139,-0.7139,-0.7139,-0.7139,-0.7139,-0.7105,-0.7092,-0.7078,-0.6936,-0.6875,-0.6861,-0.6705,-0.6576,-0.6468,-0.6434,-0.6356,-0.6338,0.0,0.0,0.0,0.0,0.0,0.0,0.0,0.0,0.0,0.0,0.0,0.0,0.0,0.0,0.0,0.0,0.0,0.0,0.0,0.0,0.0,0.0,0.0,0.0,0.0,0.0,0.0,0.0,0.0,0.8273,0.0,0.0,0.0,0.0,0.0,0.0,0.0,0.0,0.0,0.0,0.8986,0.0,0.0,0.0,0.0,0.0,0.8815,0.8982,0.0,0.8969,0.8965,0.8965,0.0,0.0,0.0,0.0,0.8965,0.8965,0.8965,0.9744,1.0611,1.0611,1.0611,1.0438,0.0,0.0,0.0,0.0,0.0,0.0,0.0,0.0,0.0,0.7135,0.3145,-0.0899,-0.3514,-0.4667,-0.5644,-0.6913,-0.7068,-0.7139,-0.7139,-0.7139,-0.7139,-0.7139,-0.7139,-0.7112,-0.7048,-0.7044,-0.701,-0.6943,-0.6939,-0.7004,-0.7139,-0.7139,-0.7139,-0.7139,-0.7139,-0.7139,-0.7139,-0.7139,-0.7139,-0.7139,-0.7139,-0.7139,-0.7136,-0.7058,-0.7024,-0.701,-0.6861,-0.6756,-0.6664,-0.6522,-0.6424,-0.6349,0.0,0.0,0.0,0.0,0.0,0.0,0.0,0.0,0.0,0.0,0.0,0.0,0.0,0.0,0.0,0.0,0.0,0.0,0.0,0.0,0.0,0.0,0.0,0.0,0.0,0.0,0.0,0.0,0.0,0.0,0.0,0.0,0.7031,0.0,0.0,0.0,0.0,0.0,0.0,0.0,0.6726,0.0,0.0,0.0,0.0,0.0,0.0,0.0,0.0,0.7064,0.7061,0.7143,0.7122,0.0,0.0,0.0,0.0,0.0,0.7102,0.8491,1.0053,1.0082,1.0091,0.9831,0.0,0.0,0.0,0.0,0.0,0.0,0.0,0.7118,0.0,0.0,0.0,-0.0988,-0.0628,-0.4302,-0.7098,-0.7094,-0.7068,-0.7139,-0.7139,-0.7122,-0.7109,-0.7109,-0.7085,-0.7021,-0.6902,-0.6895,-0.6834,-0.6705,-0.6702,-0.682,-0.7068,-0.7095,-0.7109,-0.7109,-0.7129,-0.7139,-0.7139,-0.7139,-0.7139,-0.7139,-0.7139,-0.7139,-0.7139,-0.7139,-0.7139,-0.7129,-0.7007,-0.6949,-0.6895,-0.661,-0.6491,-0.6451,0.0,0.0,0.0,0.0,0.0,0.0,0.0,0.0,0.0,0.0,0.0,0.0,0.0,0.0,0.0,0.0,0.0,0.0,0.0,0.0,0.0,0.0,0.0,0.0,0.0,0.0,0.0,0.0,0.0,0.0,0.7061,0.7061,0.7074,0.7094,0.0,0.7098,0.7005,0.5003,0.5277,0.692,0.4919,0.0,0.0,0.0,0.0,0.0,0.0,0.0,0.0,0.7094,0.7094,0.7074,0.7131,0.0,0.0,0.0,0.0,0.0,0.6929,0.7218,0.7501,0.7629,0.7661,0.7577,0.0,0.0,0.0,0.0,0.0,0.0,0.0,0.7131,0.5768,0.0,0.0,-0.5305,-0.3307,-0.5369,-0.7081,-0.7061,-0.7143,-0.7139,-0.7139,-0.7031,-0.6959,-0.6959,-0.6841,-0.6759,-0.6736,-0.6736,-0.6725,-0.6702,-0.6702,-0.6722,-0.6766,-0.6898,-0.6959,-0.6963,-0.7082,-0.7139,-0.7139,-0.7139,-0.7139,-0.7139,-0.7139,-0.7139,-0.7139,-0.7139,-0.7139,-0.7139,-0.7115,-0.7034,-0.6909,-0.6729,-0.6583,-0.6451,0.0,0.0,0.0,0.0,0.0,0.0,0.0,0.0,0.0,0.0,0.0,0.0,0.0,0.0,0.0,0.0,0.0,0.0,0.0,0.0,0.0,0.0,0.0,0.0,0.0,0.0,0.0,0.0,0.0,0.5056,0.5191,0.5191,0.5191,0.5191,0.0,0.5922,0.6936,0.4563,0.3487,0.3408,0.0,0.0,0.0,0.0,0.0,0.0,0.0,0.0,0.0,0.0,0.5242,0.519,0.5229,0.0,0.0,0.0,0.0,0.0,0.6817,0.6895,0.7063,0.7128,0.7099,0.7143,0.0,0.0,0.0,0.0,0.0,0.0,0.0,0.0,0.2516,0.0359,-0.3957,-0.6764,-0.566,-0.6459,-0.7051,-0.6957,-0.694,-0.6993,-0.6909,-0.6844,-0.6807,-0.6807,-0.6742,-0.6664,-0.658,-0.6576,-0.6542,-0.6464,-0.6464,-0.6464,-0.6464,-0.661,-0.6766,-0.6929,-0.6993,-0.7065,-0.7139,-0.7139,-0.7139,-0.7139,-0.7139,-0.7058,-0.7071,-0.7071,-0.7074,-0.7078,-0.7078,-0.7034,-0.6944,-0.679,-0.6556,-0.6349,0.0,0.0,0.0,0.0,0.0,0.0,0.0,0.0,0.0,0.0,0.0,0.0,0.0,0.0,0.0,0.0,0.0,0.0,0.0,0.0,0.0,0.0,0.0,0.0,0.0,0.0,0.2769,0.2769,0.2769,0.2769,0.2769,0.2769,0.2769,0.2769,0.0,0.3762,0.5313,0.3492,0.17,0.018,0.0,0.0,0.0,0.0,0.0,0.0,0.0,0.0,0.0,0.0,0.0,0.0,0.0,0.0,0.0,0.2727,0.3882,0.5226,0.5756,0.6008,0.619,0.6257,0.0,0.7068,0.0,0.0,0.0,0.0,0.0,0.0,0.0,0.1525,0.0,-0.1517,-0.4639,-0.7061,-0.7027,-0.6994,-0.6934,-0.6813,-0.6796,-0.6827,-0.6712,-0.6668,-0.6647,-0.6647,-0.6617,-0.6546,-0.6427,-0.6424,-0.6373,-0.6268,-0.6264,-0.6268,-0.6271,-0.6376,-0.6563,-0.6824,-0.6895,-0.6987,-0.7092,-0.7126,-0.7139,-0.7139,-0.7058,-0.7071,-0.7084,-0.6539,-0.6272,-0.6281,-0.6281,-0.6602,-0.7048,-0.6803,-0.6525,-0.6268,0.0,0.0,0.0,0.0,0.0,0.0,0.0,0.0,0.0,0.0,0.0,0.0,0.0,0.0,0.0,0.0,0.0,0.0,0.0,0.0,0.0,0.0,0.0,0.0,0.0,0.0269,0.0269,0.0269,0.0269,0.0269,0.0269,0.0269,0.0269,0.0269,0.0,0.0,0.0,0.0359,0.018,-0.0359,-0.4405,0.0,0.0,0.0,0.0,0.0,0.0,0.0,0.0,0.0,0.0,0.0,0.0,0.0,0.0244,0.0238,0.0393,0.0869,0.2823,0.3412,0.3453,0.3774,0.0,0.0,0.7101,0.0,0.0,0.0,0.0,0.0,0.0,-0.3414,-0.6453,-0.5967,-0.6368,-0.6744,-0.6619,-0.6666,-0.6729,-0.6719,-0.6719,-0.6712,-0.6702,-0.6573,-0.6488,-0.6488,-0.6366,-0.6288,-0.6278,-0.6278,-0.6278,-0.6278,-0.6278,-0.6281,-0.6295,-0.6302,-0.6376,-0.6508,-0.6793,-0.6932,-0.6949,-0.7082,-0.7139,-0.7143,-0.7074,-0.7084,-0.6903,-0.4736,-0.3838,-0.3838,-0.3838,-0.516,-0.7042,-0.6759,-0.6556,-0.6291,0.0,0.0,0.0,0.0,0.0,0.0,0.0,0.0,0.0,0.0,0.0,0.0,0.0,0.0,0.0,0.0,0.0,0.0,0.0,0.0,0.0,0.0,0.0,-0.0,-0.0,-0.0,-0.0,-0.0,-0.0,-0.0,-0.0,-0.0,0.0,0.0,0.0,0.0,0.0,-0.3771,-0.359,-0.2415,-0.4208,-0.5836,0.0,0.0,0.0,0.0,0.0,0.0,0.0,0.0,-0.1225,-0.0,0.0,-0.0,-0.0,-0.0,-0.0,0.0157,0.095,0.2088,0.3185,0.3492,0.0,0.0,0.0,0.0,0.0,0.0,0.0,0.0,0.0,0.0,-0.6573,-0.6342,-0.6486,-0.6625,-0.6572,-0.6629,-0.6664,-0.6569,-0.6559,-0.6525,-0.6434,-0.6376,-0.6339,-0.6339,-0.6291,-0.6338,-0.6338,-0.6268,-0.6274,-0.6278,-0.501,-0.4302,-0.4304,-0.4304,-0.4321,-0.4432,-0.5825,-0.6692,-0.7052,-0.7107,-0.7092,-0.7084,-0.7091,-0.7104,-0.7025,-0.6114,-0.4036,-0.1343,-0.1341,-0.1915,-0.285,-0.4281,-0.4568,-0.4304,0.0,0.0,0.0,0.0,0.0,0.0,0.0,0.0,0.0,0.0,0.0,0.0,0.0,0.0,0.0,0.0,0.0,0.0,0.0,0.0,0.0,0.0,0.0,-0.1165,-0.1165,-0.1165,-0.1524,-0.2246,-0.1524,-0.1165,-0.1165,0.0,0.0,0.0,0.0,0.0,0.0,-0.6112,-0.6201,-0.4739,-0.4736,-0.5638,0.0,0.0,0.0,0.0,0.0,0.0,0.0,0.0,-0.3563,0.0,0.0,0.0,0.0,-0.0157,-0.0,-0.0,-0.0,0.1034,0.218,0.0,0.0,0.0,0.0,0.0,0.0,0.0,0.0,0.0,0.0,0.0,0.0,-0.6185,-0.6414,-0.6552,-0.6508,-0.6569,-0.6522,-0.6417,-0.6407,-0.6366,-0.6349,-0.6338,-0.6264,-0.6268,-0.6268,-0.6268,-0.6271,-0.6281,-0.6288,-0.6295,-0.4865,-0.3444,-0.2111,-0.2738,-0.313,-0.3132,-0.455,-0.5507,-0.5881,-0.5925,-0.6013,-0.6039,-0.6766,-0.7078,-0.6952,-0.5494,-0.2966,-0.0,-0.0,-0.0,-0.0168,-0.183,-0.2348,-0.2111,0.0,0.0,0.0,0.0,0.0,0.0,0.0,0.0,0.0,0.0,0.0,0.0,0.0,0.0,0.0,0.0,0.0,0.0,0.0,0.0,0.0,0.0,0.0,-0.3659,-0.3659,-0.3659,-0.4746,-0.7135,-0.4748,-0.3659,-0.3659,-0.3659,0.0,0.0,0.0,0.0,0.0,0.0,-0.7101,-0.7101,-0.7088,-0.7084,-0.7084,0.0,0.0,0.0,0.0,0.0,0.0,0.0,-0.6907,0.0,0.0,0.0,0.0,0.0,-0.0,-0.0,-0.0,-0.0,-0.0,0.0,0.0,0.0,0.0,0.0,0.0,0.0,0.0,-0.1261,-0.5482,-0.4536,-0.3824,-0.595,-0.6404,-0.642,-0.6281,-0.6338,-0.6338,-0.6338,-0.6338,-0.6338,-0.6338,-0.6338,-0.6268,-0.6278,-0.6278,-0.6281,-0.6295,-0.6295,-0.6305,-0.6329,-0.625,-0.4252,-0.0079,-0.2044,-0.3071,-0.3071,-0.3071,-0.3101,-0.3076,-0.3399,-0.3562,-0.3725,-0.6016,-0.6994,-0.6675,-0.1975,-0.0,-0.0,-0.0,-0.0,-0.0,-0.0,-0.0,-0.0,0.0,0.0,0.0,0.0,0.0,0.0,0.0,0.0,0.0,0.0,0.0,0.0,0.0,0.0,0.0,0.0,0.0,0.0,0.0,0.0,0.0,0.0,0.0,0.0,0.0,0.0,-0.6367,-0.7111,-0.6376,-0.6097,0.0,0.0,0.0,-0.6088,0.0,0.0,0.0,0.0,-0.7081,-0.7068,-0.7064,-0.7061,-0.7061,0.0,0.0,0.0,0.0,0.0,0.0,0.0,0.0,0.0,0.0,0.0,0.0,-0.4628,-0.2348,-0.0,-0.0,-0.0,0.0,0.0,0.0,0.0,0.0,0.0,0.0,0.0,-0.0,-0.0409,-0.1608,-0.3772,-0.5539,-0.6225,-0.6363,-0.6332,-0.6291,-0.6285,-0.6285,-0.6285,-0.6285,-0.6285,-0.6285,-0.6285,-0.6288,-0.6291,-0.4932,-0.4066,-0.4068,-0.5509,-0.6322,-0.6329,-0.3383,-0.1256,-0.0,-0.0628,-0.0943,-0.0943,-0.0943,-0.0954,-0.0893,-0.0982,-0.108,-0.1103,-0.1785,-0.2133,-0.1974,-0.0601,-0.0,-0.0,-0.0,-0.0,-0.0,-0.0,-0.0,-0.0,0.0,0.0,0.0,0.0,0.0,0.0,0.0,0.0,0.0,0.0,0.0,0.0,0.0,0.0,0.0,0.0,0.0,0.0,0.0,0.0,0.0,0.0,0.0,0.0,0.0,-0.7074,-0.7074,0.0,0.0,0.0,0.0,0.0,0.0,-0.7071,0.0,-0.7071,0.0,0.0,-0.7064,-0.7139,-0.7139,-0.7139,-0.7139,0.0,0.0,0.0,0.0,0.0,0.0,0.0,0.0,0.0,0.0,0.0,0.0,-0.6288,-0.4467,-0.2113,-0.047,0.0,0.0,0.0,0.0,0.0,0.0,0.0,0.0,0.0,0.0,-0.0,-0.0,-0.2119,-0.4088,-0.4878,-0.5023,-0.5018,-0.5018,-0.5018,-0.5018,-0.5018,-0.5018,-0.5018,-0.5018,-0.5018,-0.5419,-0.623,-0.5107,-0.3604,-0.1956,-0.3062,-0.3777,-0.3777,-0.1335,-0.0,-0.0,-0.0,-0.0,-0.0,-0.0,-0.0,-0.0,-0.0,-0.0,-0.0,-0.0,-0.0,-0.0,-0.0,-0.0,-0.0,-0.0,-0.0,-0.0,-0.0,-0.0,-0.0,0.0,0.0,0.0,0.0,0.0,0.0,0.0,0.0,0.0,0.0,0.0,0.0,0.0,0.0,0.0,0.0,0.0,0.0,0.0,0.0,0.0,0.0,0.0,0.0,0.0,0.0,0.0,0.0,0.0,0.0,0.0,0.0,-0.7139,-0.7139,0.0,-0.7139,-0.7139,-0.7139,-0.7139,-0.7139,-0.7139,-0.7139,-0.7139,-0.7139,0.0,0.0,0.0,0.0,0.0,0.0,0.0,0.0,0.0,0.0,-0.6264,-0.6274,-0.6285,-0.5419,0.0,0.0,0.0,0.0,0.0,0.0,0.0,0.0,-0.0,-0.0,0.0,-0.0,-0.0,-0.0,-0.0626,-0.25,-0.2812,-0.2812,-0.2812,-0.2812,-0.2812,-0.2812,-0.2812,-0.2812,-0.2812,-0.2812,-0.3602,-0.5605,-0.5367,-0.3459,0.0393,0.0392,0.0314,0.0314,0.0314,0.0314,0.0314,0.0314,0.0314,0.0314,0.0314,0.0314,0.0314,0.0079,-0.0,-0.0,-0.0,-0.0,-0.0,-0.0,-0.0,-0.0,-0.0,-0.0,-0.0,-0.0,-0.0,-0.0,0.0,0.0,0.0,0.0,0.0,0.0,0.0,0.0,0.0,0.0,0.0,0.0,0.0,0.0,0.0,0.0,0.0,0.0,0.0,0.0,0.0,0.0,0.0,0.0,0.0,0.0,0.0,0.0,0.0,0.0,0.0,0.0,0.0,-0.7139,0.0,-0.7139,-0.7139,-0.7139,-0.7139,-0.7139,-0.7139,-0.7139,-0.7139,-0.7139,-0.7139,0.0,0.0,0.0,0.0,0.0,0.0,0.0,-0.6702,-0.6498,-0.6338,-0.6264,-0.6274,-0.5724,0.0,-0.1251,0.0,0.0,0.0,0.0,0.0,-0.0,-0.0,-0.0,-0.0,-0.0,-0.0,-0.0,-0.0157,-0.0627,-0.0706,-0.0706,-0.0706,-0.0706,-0.0706,-0.0706,-0.0706,-0.0706,-0.0706,-0.0706,-0.0863,-0.1335,0.1726,0.4012,0.4888,0.337,0.2422,0.2422,0.2422,0.2422,0.2422,0.2422,0.2422,0.2422,0.2422,0.2422,0.2344,0.0706,-0.0,-0.0,-0.0,-0.0,-0.0,-0.0,-0.0,-0.0,-0.0,-0.0,-0.0,-0.0,-0.0,-0.0,0.0,0.0,0.0,0.0,0.0,0.0,0.0,0.0,0.0,0.0,0.0,0.0,0.0,0.0,0.0,0.0,0.0,0.0,0.0,0.0,0.0,0.0,0.0,0.0,0.0,0.0,0.0,0.0,0.0,0.0,0.0,0.0,0.0,-0.7139,0.0,-0.7139,-0.7139,-0.7139,-0.7404,-0.7929,-0.7929,-0.8273,-0.879,-0.879,-0.879,-0.879,-0.879,0.0,0.0,0.0,0.0,0.0,0.0,0.0,-0.7125,-0.6514,-0.6271,-0.6038,0.0,0.0,0.0,0.0,0.0,0.0,0.0,-0.0,-0.0,-0.0,-0.0,-0.0,-0.0,-0.0,-0.0,-0.0,-0.0,-0.0,-0.0,-0.0,-0.0,-0.0,0.1806,0.2987,0.2987,0.2117,0.1488,0.1488,0.3528,0.519,0.6234,0.526,0.4621,0.4621,0.4621,0.4621,0.4621,0.4621,0.4621,0.4621,0.4621,0.4621,0.4543,0.2426,0.1488,0.1409,0.047,-0.0,-0.0,-0.0,-0.0,-0.0,-0.0,-0.0,-0.0,-0.0,-0.0,-0.0,0.0,0.0,0.0,0.0,0.0,0.0,0.0,0.0,0.0,0.0,0.0,0.0,0.0,0.0,0.0,0.0,0.0,0.0,0.0,0.0,0.0,0.0,0.0,0.0,0.0,0.0,-1.0864,0.0,0.0,0.0,0.0,0.0,0.0,-0.7661,0.0,-0.7661,-0.7661,-0.7661,-0.8273,-0.9235,-0.9235,-0.9753,-1.0611,-1.0611,-1.0611,-1.0611,-1.0611,-1.0611,-1.0611,-1.0611,0.0,0.0,0.0,0.0,-0.8181,-0.695,-0.6595,-0.6507,0.0,0.0,0.0,0.0,0.0,0.0,-0.0,-0.0,-0.0,-0.0,-0.0,-0.0,-0.0,-0.0,-0.0,-0.0,-0.0,0.0236,0.1021,0.1099,0.0942,0.0549,0.3614,0.5921,0.6244,0.4709,0.3673,0.3673,0.3673,0.446,0.621,0.6291,0.6291,0.6291,0.6291,0.6291,0.6291,0.6291,0.6291,0.6291,0.6291,0.6291,0.621,0.446,0.3671,0.3595,0.1799,0.0704,-0.0,-0.0,-0.0,-0.0,-0.0,-0.0,-0.0,-0.0,-0.0,-0.0,0.0,0.0,0.0,0.0,0.0,0.0,0.0,0.0,0.0,0.0,0.0,0.0,0.0,0.0,0.0,0.0,0.0,0.0,-1.6413,0.0,0.0,-1.5101,-1.5018,-1.4615,0.0,0.0,-1.2072,0.0,0.0,0.0,0.0,0.0,0.0,-1.0091,0.0,0.0,0.0,-1.0091,-1.0265,-1.0351,-1.0351,-1.0438,-1.0611,-1.0611,-1.0611,-1.0611,-1.0611,-1.0611,-1.0611,-1.0611,-1.0544,0.0,0.0,0.0,-0.9306,-0.826,-0.7754,-0.7407,0.0,0.0,0.0,0.0,0.0,0.0,0.0,0.0,-0.0,0.0,-0.0,-0.0,-0.0,-0.0,-0.0,-0.0,-0.0,0.1256,0.4967,0.5448,0.4802,0.2891,0.3205,0.4229,0.6139,0.6054,0.5892,0.5892,0.5886,0.596,0.6278,0.6271,0.6268,0.6268,0.6268,0.6268,0.6268,0.6268,0.6268,0.6268,0.6268,0.6268,0.6264,0.6025,0.5876,0.5892,0.5578,0.3368,-0.0,-0.0,-0.0,-0.0,-0.0,-0.0,-0.0,-0.0,-0.0,-0.0,0.0,0.0,0.0,0.0,0.0,0.0,0.0,0.0,0.0,0.0,0.0,0.0,0.0,0.0,0.0,-1.7253,-1.7342,-1.7342,-1.7342,-1.7342,-1.709,-1.6601,-1.6601,-1.6363,-1.5876,0.0,0.0,0.0,0.0,0.0,0.0,-1.2522,-1.1826,0.0,0.0,0.0,0.0,0.0,-1.095,-1.1552,-1.1552,-1.1992,-1.2522,-1.2522,-1.2522,-1.2522,-1.2522,-1.2522,-1.2522,-1.2522,-1.2523,-1.232,-1.1577,0.0,0.0,0.0,-0.8467,-0.7557,-0.657,0.0,0.0,0.0,0.0,0.0,-0.0,0.0,-0.0,-0.0,-0.0,-0.0,-0.0,-0.0,0.0785,0.3146,0.354,0.3775,0.4396,0.5509,0.5986,0.5018,0.4854,0.5249,0.6203,0.6281,0.6278,0.6278,0.6271,0.6268,0.6268,0.6264,0.6338,0.6338,0.6338,0.6338,0.6338,0.6338,0.6338,0.6338,0.6338,0.6338,0.6338,0.6338,0.6268,0.6278,0.6285,0.5251,0.3441,0.2266,0.1017,-0.0,-0.0,-0.0,-0.0,-0.0,-0.0,-0.0,0.0,0.0,0.0,0.0,0.0,0.0,0.0,0.0,0.0,0.0,0.0,0.0,0.0,0.0,0.0,0.0,-1.8141,-1.8141,-1.8141,-1.8141,-1.798,-1.7738,-1.7747,-1.7585,-1.7342,0.0,0.0,0.0,0.0,0.0,-1.4496,-1.4496,-1.3457,0.0,-1.1477,0.0,0.0,0.0,0.0,0.0,-1.2766,-1.3294,-1.4088,-1.4088,-1.4088,-1.4088,-1.4088,-1.4088,-1.4088,-1.4088,-1.4088,-1.3964,-1.2887,-1.2386,0.0,0.0,0.0,-0.7629,0.0,0.0,0.0,0.0,0.0,0.0,0.0,0.0,-0.0,-0.0,-0.0,0.0314,0.1414,0.157,0.2435,0.504,0.5921,0.5752,0.4146,0.5251,0.6291,0.6288,0.6281,0.6426,0.6655,0.6648,0.6795,0.7022,0.7099,0.7099,0.7099,0.7099,0.7099,0.7099,0.7099,0.6945,0.6721,0.6416,0.6416,0.6641,0.6416,0.6338,0.6338,0.6338,0.6338,0.6338,0.6271,0.6274,0.6197,0.4535,0.2969,0.1487,0.0392,-0.0,-0.0,-0.0,-0.0,-0.0,0.0,0.0,0.0,0.0,0.0,0.0,0.0,0.0,0.0,0.0,0.0,0.0,-1.7172,-1.9107,-2.0401,-2.0401,-2.0401,-2.0401,-2.0401,-2.0401,-2.0001,-1.8957,-1.8877,0.0,-1.7334,0.0,0.0,0.0,0.0,0.0,-1.5621,-1.5621,-1.497,-1.3913,-1.3913,-1.3913,-1.3913,0.0,0.0,0.0,0.0,-1.3997,0.0,-1.4088,-1.4088,-1.4088,-1.4088,-1.4088,-1.4088,-1.4088,-1.4088,-1.4088,-1.3984,-1.3778,-1.3228,0.0,0.0,0.0,0.0,0.0,0.0,0.0,0.0,0.0,0.0,0.0,-0.0,-0.0,-0.0,0.1256,0.521,0.6009,0.5361,0.3597,0.494,0.6291,0.6122,0.62,0.6274,0.6264,0.6264,0.6644,0.7633,0.7706,0.8089,0.9069,0.9145,0.9145,0.9145,0.9145,0.9145,0.9145,0.9145,0.8689,0.7706,0.6795,0.6795,0.7706,0.6718,0.6338,0.6338,0.6338,0.6338,0.6338,0.6338,0.6268,0.6278,0.6197,0.6048,0.5578,0.1565,-0.0,-0.0,-0.0,-0.0,-0.0,0.0,0.0,0.0,0.0,0.0,0.0,0.0,0.0,0.0,0.0,0.0,0.0,0.0,-1.863,-1.9835,-2.0566,-2.0566,-2.0566,-2.0566,-2.0566,-2.0411,-2.0001,-2.0001,-1.9844,-1.9432,0.0,0.0,0.0,0.0,-1.7819,-1.6764,-1.6764,-1.6519,-1.6124,-1.4741,-1.4088,-1.4088,-1.4088,0.0,0.0,0.0,0.0,0.0,0.0,0.0,-1.4088,-1.4088,-1.4088,-1.4088,-1.4088,-1.4088,-1.4088,-1.4088,-1.3881,-1.3215,-1.105,-0.9145,-0.7629,0.0,0.0,0.0,0.0,0.0,-0.5569,-0.2656,-0.0939,-0.0,-0.0,0.2121,0.409,0.4235,0.5358,0.6077,0.5251,0.65,0.7516,0.7261,0.7791,0.8241,0.8237,0.8237,0.8389,0.8689,0.8765,0.8917,0.9296,0.9296,0.9296,0.9296,0.9296,0.9296,0.9296,0.9296,0.915,0.8765,0.8389,0.8389,0.877,0.7706,0.7249,0.7249,0.6567,0.6338,0.6338,0.6338,0.6264,0.6268,0.6268,0.6274,0.6126,0.4621,0.3205,0.1953,0.1955,0.1174,-0.0,0.0,0.0,0.0,0.0,0.0,0.0,0.0,0.0,0.0,0.0,0.0,0.0,0.0,0.0,-1.9844,-2.0566,-2.0566,-2.0566,-2.0566,-2.0566,-2.0566,-2.0566,-2.0566,-2.0566,-2.0566,0.0,0.0,0.0,0.0,0.0,0.0,-1.7908,-1.7666,-1.7261,-1.5801,-1.4977,0.0,0.0,0.0,-1.4088,0.0,0.0,-1.4088,0.0,-1.4088,-1.4088,-1.4088,-1.4088,-1.4088,-1.4088,-1.4088,-1.4088,-1.4088,-1.3625,-1.2707,-1.0885,-0.9189,-0.7704,-0.6961,0.0,0.0,0.0,0.0,-0.596,-0.446,-0.2033,-0.0,-0.0,0.3383,0.5846,0.4465,0.5347,0.6383,0.6736,0.7577,0.8187,0.8318,0.8841,0.9296,0.9296,0.9296,0.9448,0.9744,1.011,1.026,1.0346,1.0565,1.064,1.0346,1.0276,1.0276,1.0276,0.997,0.997,1.0276,0.9674,0.9448,0.982,0.8765,0.8161,0.7783,0.7099,0.6641,0.6338,0.6338,0.6338,0.6338,0.6338,0.6268,0.6274,0.6278,0.5404,0.4144,0.4146,0.3287,0.1879,0.0,0.0,0.0,0.0,0.0,0.0,0.0,0.0,0.0,0.0,0.0,0.0,0.0,0.0,0.0,-2.0566,-2.0566,-2.0566,-2.0566,-2.0566,-2.0566,-2.0566,-2.0566,-2.0566,-2.0566,0.0,0.0,0.0,0.0,0.0,0.0,0.0,-1.847,-1.7415,-1.7342,-1.6764,-1.5696,0.0,-1.4173,-1.4088,0.0,-1.4088,-1.4088,0.0,-1.4088,-1.4088,-1.4088,-1.4088,-1.4088,-1.4088,-1.4088,-1.4088,-1.4088,-1.3104,-1.1899,-1.1733,-0.9956,0.0,0.0,0.0,0.0,0.0,0.0,0.0,-0.6291,-0.3054,-0.0078,-0.0,0.3229,0.6097,0.622,0.6295,0.6595,0.7638,0.7783,0.8161,0.9145,0.9296,0.9372,0.9372,0.9372,0.9744,1.0783,1.1723,1.2251,1.2298,1.3171,1.3317,1.2378,1.2305,1.2305,1.2305,1.1316,1.1316,1.2298,1.0346,0.9895,1.0858,0.982,0.8841,0.7855,0.7859,0.7249,0.6338,0.6338,0.6338,0.6338,0.6338,0.6338,0.6264,0.6274,0.6278,0.6278,0.6291,0.6295,0.5736,0.0,0.0,0.0,0.0,0.0,0.0,0.0,0.0,0.0,0.0,0.0,0.0,0.0,-1.9265,-2.0566,-2.0566,-2.0566,-2.0566,-2.0566,-2.0566,-2.0566,-2.0566,-2.0566,-2.0566,-2.0566,0.0,0.0,0.0,0.0,0.0,0.0,0.0,0.0,0.0,-1.798,-1.7577,-1.798,-1.6026,0.0,-1.4088,-1.4088,-1.4088,0.0,-1.4088,-1.4088,-1.4088,-1.4088,-1.4088,-1.4088,-1.4088,-1.4088,-1.4088,-1.4088,0.0,0.0,-1.0919,0.0,0.0,-0.6991,0.0,0.0,0.0,0.0,0.0,-0.6281,-0.4224,-0.1798,-0.0313,0.0941,0.2195,0.3677,0.5251,0.6662,0.7633,0.7783,0.8161,0.9145,0.9895,1.064,1.1397,1.1477,1.1545,1.1848,1.2712,1.3011,1.2378,1.3171,1.3317,1.2378,1.2305,1.2305,1.2305,1.1996,1.2003,1.2305,1.1774,1.162,1.1842,1.0864,1.0265,0.9884,0.8461,0.7629,0.7326,0.6644,0.6338,0.6338,0.6338,0.6338,0.6338,0.6264,0.6268,0.6268,0.6271,0.6278,0.6122,0.0,0.0,0.0,0.0,0.0,0.0,0.0,0.0,0.0,0.0,0.0,0.0,0.0,0.0,-2.0079,-2.0566,-2.0566,-2.0566,-2.0566,-2.0566,-2.0566,-2.0566,-2.0566,-2.0566,-2.0566,0.0,0.0,0.0,0.0,0.0,0.0,0.0,0.0,0.0,0.0,0.0,0.0,0.0,0.0,0.0,-1.4985,0.0,-1.4734,-1.425,-1.4088,-1.4088,-1.4088,-1.4088,-1.4088,-1.4088,-1.4088,-1.4088,-1.4088,-1.3111,0.0,0.0,0.0,0.0,0.0,0.0,0.0,0.0,0.0,0.0,-0.6274,-0.5329,-0.3599,-0.0626,-0.0,0.0627,0.2738,0.4859,0.6511,0.7107,0.718,0.7706,0.9069,1.019,1.1013,1.162,1.207,1.2305,1.2305,1.352,1.3738,1.2372,1.3528,1.3738,1.2372,1.2305,1.2305,1.2305,1.2305,1.2305,1.2305,1.2305,1.2305,1.2298,1.1694,1.1236,1.0783,0.9583,0.8609,0.7783,0.7176,0.6721,0.6338,0.6338,0.6338,0.6338,0.6338,0.6338,0.6338,0.6338,0.6264,0.6271,0.0,0.0,0.0,0.0,0.0,0.0,0.0,0.0,0.0,0.0,0.0,0.0,0.0,0.0,0.0,-2.0489,-2.0566,-2.0566,-2.0566,-2.0566,-2.0566,-2.0566,-2.0566,-2.0566,-2.0566,-2.0566,0.0,0.0,0.0,0.0,0.0,0.0,0.0,0.0,0.0,0.0,0.0,0.0,0.0,-1.718,-1.6034,-1.5538,-1.5462,-1.4496,-1.4088,-1.4088,-1.4088,-1.4088,-1.4088,-1.4088,-1.4068,-1.4041,-1.4041,-1.3144,-1.2022,-1.1692,-1.0015,0.0,0.0,0.0,0.0,-0.6338,-0.6338,0.0,-0.6274,-0.6285,-0.5179,-0.1251,-0.0235,0.0549,0.2431,0.4711,0.6295,0.6281,0.6271,0.6949,0.8846,0.9965,1.0634,1.0783,1.1694,1.2305,1.2305,1.3947,1.4235,1.2445,1.3875,1.4163,1.2519,1.2445,1.2519,1.2592,1.2592,1.2592,1.2445,1.2445,1.2372,1.2305,1.2305,1.1842,1.0938,1.0864,0.9734,0.7936,0.7859,0.7249,0.6338,0.6338,0.6338,0.6338,0.6338,0.6338,0.6338,0.6338,0.6338,0.6264,-1.1895,0.0,0.0,0.0,0.0,0.0,0.0,0.0,0.0,0.0,0.0,0.0,0.0,0.0,0.0,-2.0489,-2.0566,-2.0566,-2.0566,-2.0566,-2.0566,-2.0566,-2.0566,-2.0566,-2.0566,-2.0566,0.0,0.0,0.0,0.0,0.0,0.0,0.0,0.0,0.0,0.0,0.0,0.0,0.0,-1.7098,-1.5228,-1.4412,-1.4412,-1.4166,-1.4088,-1.4088,-1.4088,-1.4088,-1.4088,-1.4088,-1.3928,-1.3728,-1.3728,-1.3365,-1.2743,-1.1582,-1.0366,-0.9106,-0.806,-0.7099,-0.6338,-0.6338,-0.6338,0.0,-0.6264,-0.6274,-0.5724,-0.3748,-0.1563,0.0157,0.0546,0.3763,0.6312,0.6285,0.6278,0.6729,0.7936,0.8993,0.9895,1.0708,1.1694,1.2305,1.2305,1.331,1.3528,1.2372,1.2659,1.3018,1.3382,1.3455,1.381,1.4593,1.4665,1.4243,1.3455,1.3455,1.3025,1.2305,1.2305,1.2224,1.1996,1.1162,1.0115,0.8993,0.8161,0.7249,0.6338,0.6338,0.6338,0.6338,0.6338,0.6338,0.6338,0.6338,0.6338,0.6338,-1.1128,0.0,0.0,0.0,0.0,0.0,0.0,0.0,0.0,0.0,0.0,0.0,0.0,0.0,0.0,0.0,-2.0566,-2.0566,-2.0566,-2.0566,-2.0566,-2.0566,-2.0566,-2.0566,-2.0566,-2.0566,-2.0566,0.0,0.0,0.0,0.0,0.0,0.0,0.0,0.0,0.0,0.0,0.0,-1.522,-1.5636,-1.5144,-1.4894,-1.481,-1.4334,-1.4088,-1.4088,-1.4088,-1.4088,-1.4062,-1.3915,-1.3768,-1.3621,-1.3474,-1.322,-1.2868,-1.2171,-1.1171,-0.9964,-0.887,-0.7783,-0.6945,-0.6416,-0.6338,0.0,0.0,-0.6271,-0.6116,-0.5401,-0.4153,-0.251,-0.0391,0.1722,0.3849,0.5986,0.6291,0.6507,0.6957,0.794,0.8917,0.997,1.0938,1.1768,1.2224,1.3171,1.3528,1.3025,1.3025,1.3164,1.3673,1.4171,1.4665,1.5163,1.5234,1.495,1.445,1.3954,1.3455,1.3025,1.2519,1.2305,1.2298,1.1768,1.1019,0.997,0.8993,0.8008,0.7022,0.649,0.6338,0.6338,0.6338,0.6338,0.6338,0.6338,0.6338,0.6338,-1.0351,0.0,0.0,0.0,0.0,0.0,0.0,0.0,0.0,0.0,0.0,0.0,0.0,0.0,0.0,0.0,0.0,-2.0566,-2.0566,-2.0566,-2.0566,-2.0566,-2.0401,-2.0323,-2.0323,-2.0079,-2.0001,-2.0001,0.0,0.0,0.0,0.0,0.0,0.0,0.0,0.0,0.0,0.0,0.0,-1.4166,-1.5054,-1.5372,-1.5296,-1.4412,-1.4088,-1.4088,-1.4088,-1.4048,-1.3968,-1.3728,-1.3567,-1.3434,-1.3193,-1.2906,-1.2735,-1.2735,-1.1797,-1.0634,-0.982,-0.8689,-0.7629,-0.6795,-0.6412,-0.6338,0.0,0.0,0.0,-0.6274,-0.6298,-0.5118,-0.133,-0.0235,0.1097,0.4567,0.5746,0.6285,0.6281,0.7034,0.7936,0.9145,1.019,1.1236,1.2224,1.3171,1.36,1.3455,1.36,1.3818,1.3954,1.4736,1.5376,1.5728,1.5728,1.5658,1.5438,1.4665,1.4171,1.3954,1.3025,1.2592,1.2592,1.2372,1.1768,1.0708,0.9744,0.8689,0.7706,0.6718,0.6338,0.6338,0.6338,0.6338,0.6338,0.6338,0.6338,0.6338,-1.0178,-1.0697,0.0,0.0,0.0,0.0,0.0,0.0,0.0,0.0,0.0,0.0,0.0,0.0,0.0,0.0,-2.0566,-2.0566,-2.0566,-2.0566,-2.0566,-2.0566,-1.9687,-1.9195,-1.9195,-1.8221,-1.7658,-1.7658,0.0,0.0,0.0,0.0,0.0,0.0,-1.4334,0.0,0.0,0.0,-1.4088,-1.4088,-1.425,-1.425,-1.425,-1.4173,-1.4088,-1.4088,-1.4088,-1.3915,-1.3687,-1.3572,-1.3287,-1.2923,-1.2889,-1.2592,-1.2351,-1.2351,-1.1645,-1.0783,-1.064,-0.921,-0.7783,-0.7629,-0.6945,-0.6338,-0.6338,0.0,-0.6264,-0.6264,0.0,-0.5565,-0.3203,0.0,0.0,0.0627,0.3851,0.6312,0.6285,0.643,0.7188,0.9074,1.019,1.1236,1.2224,1.3171,1.3382,1.2519,1.3237,1.4099,1.495,1.5163,1.5948,1.7647,1.7657,1.7285,1.6428,1.6349,1.586,1.5021,1.4027,1.3528,1.3528,1.2666,1.1768,1.0708,0.9744,0.8689,0.7706,0.6718,0.6338,0.6338,0.6338,0.6338,0.6338,0.6338,0.6338,0.6338,-1.0178,-1.0611,0.0,0.0,0.0,0.0,0.0,0.0,0.0,0.0,0.0,0.0,0.0,0.0,0.0,0.0,-1.9678,-1.9678,-1.9678,-1.9036,0.0,-1.8709,-1.8221,-1.798,-1.798,-1.7577,-1.7342,-1.7342,-1.7342,0.0,0.0,0.0,0.0,0.0,-1.4088,0.0,-1.4088,0.0,-1.4088,-1.4088,-1.4088,-1.4088,-1.4088,-1.4088,-1.4088,-1.4088,-1.4088,-1.3895,-1.3621,-1.3447,-1.3106,-1.2795,-1.2545,-1.2405,-1.2305,-1.2305,-1.162,-1.0783,-1.0783,-0.9362,-0.7783,-0.7783,-0.7022,-0.6338,-0.6338,-0.6338,-0.6338,-0.6338,0.0,0.0,0.0,0.0,0.0,0.0,0.1489,0.3532,0.5989,0.6291,0.6806,0.8241,0.9291,1.0571,1.215,1.2666,1.2732,1.2305,1.3171,1.3882,1.4314,1.4879,1.5799,1.7139,1.7217,1.7001,1.6636,1.607,1.5296,1.4314,1.3382,1.2879,1.2879,1.2445,1.207,1.1545,0.997,0.9069,0.8542,0.6949,0.6338,0.6338,0.6338,0.6338,0.6338,0.6338,0.6338,0.6338,-0.9749,0.0,0.0,0.0,0.0,0.0,0.0,0.0,0.0,0.0,0.0,0.0,-1.5621,-1.6683,-1.7658,-1.847,-1.855,-1.855,-1.855,-1.7738,-1.7342,-1.7342,-1.7009,-1.6846,-1.6846,-1.6609,-1.6445,-1.6445,0.0,0.0,0.0,0.0,0.0,0.0,0.0,-1.4088,-1.4088,0.0,-1.4088,-1.4088,-1.4088,-1.4088,-1.4088,-1.4088,-1.4088,-1.4075,-1.3995,-1.3774,-1.348,-1.318,-1.2879,-1.2585,-1.2371,-1.2305,-1.2305,-1.2305,-1.162,-1.0783,-1.0783,-0.9362,-0.7783,-0.7783,-0.7022,-0.6338,-0.6338,-0.6338,-0.6338,-0.6338,-0.6268,0.0,0.0,0.0,-0.133,-0.0157,0.0,0.149,0.5686,0.6308,0.6585,0.7314,0.8533,0.99,1.1323,1.199,1.2137,1.1922,1.3018,1.3673,1.3673,1.4386,1.5234,1.6219,1.621,1.621,1.621,1.5517,1.4807,1.4099,1.3164,1.2666,1.2666,1.2445,1.2305,1.2224,1.0201,0.9296,0.9145,0.7099,0.6338,0.6338,0.6338,0.6338,0.6338,0.6338,0.6338,0.6338,-0.8715,-0.8978,0.0,0.0,0.0,0.0,0.0,0.0,-1.4088,-1.4088,-1.4977,-1.5703,-1.5696,-1.6683,-1.7334,-1.7342,-1.7334,-1.7334,-1.7334,-1.7334,-1.7342,-1.7342,-1.6273,-1.5779,-1.5779,-1.4734,-1.4166,-1.4166,-1.4166,0.0,0.0,0.0,0.0,0.0,-1.4088,-1.4088,-1.4088,-1.4088,-1.4088,-1.4088,-1.4088,-1.4088,-1.4088,-1.4088,-1.4088,-1.4048,-1.3761,-1.3467,-1.318,-1.2866,-1.2565,-1.2311,-1.2305,-1.2305,-1.2305,-1.2305,-1.162,-1.0783,-1.0783,-0.9362,-0.7783,-0.7783,-0.7022,-0.6338,-0.6338,-0.6338,-0.6338,-0.6338,-0.6338,-0.6264,-0.6278,-0.6207,-0.4787,-0.0626,-0.0,0.0,0.0,0.6329,0.6298,0.6374,0.8058,0.9296,0.9372,1.1137,1.1797,1.0932,1.2631,1.3673,1.3673,1.3745,1.4243,1.5234,1.5234,1.5234,1.5234,1.5234,1.5163,1.5163,1.4099,1.3673,1.36,1.2732,1.2305,1.2224,1.0201,0.9296,0.9145,0.7099,0.6338,0.6338,0.6338,0.6338,0.6338,0.6338,0.6338,0.6338,-0.7665,0.0,0.0,0.0,0.0,0.0,-1.3997,-1.4088,-1.4088,-1.4088,-1.4412,-1.4657,-1.4657,-1.5628,-1.6273,-1.6273,-1.6273,-1.6273,-1.6273,-1.5553,-1.5144,-1.5144,-1.4817,-1.4657,-1.4657,-1.425,-1.4088,-1.4088,-1.4088,0.0,0.0,0.0,0.0,0.0,0.0,-1.4088,0.0,0.0,0.0,-1.4088,-1.4088,-1.4088,-1.4088,-1.4088,-1.4088,-1.4048,-1.3748,-1.3454,-1.3166,-1.2929,-1.2552,-1.2305,-1.2305,-1.2305,-1.215,-1.1465,-1.0571,-0.982,-0.982,-0.8309,-0.6945,-0.7629,-0.7022,-0.6338,-0.6338,-0.6338,-0.6338,-0.6338,-0.6338,-0.6264,-0.6268,-0.6278,-0.5329,-0.25,-0.0861,0.047,0.0,0.457,0.6312,0.6338,0.7476,0.8537,0.9221,0.9884,1.0179,0.982,1.0409,1.1081,1.1749,1.1749,1.2558,1.4171,1.4243,1.4243,1.4243,1.4243,1.3882,1.3302,1.2952,1.2732,1.2732,1.2445,1.2305,1.2224,1.0201,0.9296,0.9145,0.7099,0.6338,0.6338,0.6338,0.6338,0.6338,0.6338,0.6338,0.6338,-0.7139,0.0,0.0,0.0,0.0,0.0,-1.4088,-1.4088,-1.4088,-1.4088,-1.4088,-1.4088,-1.4088,-1.4734,-1.5137,-1.5137,-1.5137,-1.5137,-1.5137,-1.4489,-1.4088,-1.4088,-1.4088,-1.4088,-1.4088,-1.4088,-1.4088,-1.4088,-1.4088,-1.4088,0.0,0.0,0.0,0.0,0.0,-1.4088,-1.4088,-1.4088,-1.4088,-1.4088,-1.4088,-1.4088,-1.4088,-1.4088,-1.4088,-1.4035,-1.3634,-1.3367,-1.3146,-1.2726,-1.2458,-1.2224,-1.1848,-1.1768,-1.1545,-1.0565,-0.9518,-0.8765,-0.8765,-0.7553,-0.649,-0.7099,-0.6795,-0.6338,-0.6338,-0.6338,-0.6338,-0.6338,-0.6338,-0.6338,-0.6338,-0.6271,-0.5879,-0.4462,-0.1877,-0.0,0.0,0.2356,0.4641,0.6139,0.6891,0.7484,0.8161,0.8542,0.8765,0.8765,0.9069,0.9599,1.0265,1.0634,1.1378,1.2631,1.3011,1.3164,1.3164,1.3164,1.2879,1.2305,1.2305,1.2305,1.2305,1.2305,1.2077,1.1694,1.0045,0.9069,0.8618,0.6945,0.6338,0.6338,0.6338,0.6338,0.6338,0.6338,0.6338,0.6338,-0.7139,-0.8101,0.0,0.0,-1.2516,-1.4004,-1.4088,-1.4088,-1.4088,-1.4088,-1.4088,-1.4088,-1.4088,-1.4088,-1.4088,-1.4088,-1.4088,-1.4088,-1.4088,-1.4088,-1.4088,-1.4088,-1.4088,-1.4088,-1.4088,-1.4088,-1.4088,-1.4088,-1.4088,0.0,0.0,0.0,0.0,0.0,-1.4088,0.0,-1.4088,-1.4088,-1.4088,-1.4088,-1.4088,-1.4088,-1.4088,-1.4088,-1.4088,-1.4008,-1.342,-1.3134,-1.3034,-1.243,-1.2224,-1.1996,-1.1013,-1.0708,-1.0565,-0.9518,-0.8542,-0.7783,-0.7706,-0.7022,-0.6338,-0.6338,-0.6338,-0.6338,-0.6338,-0.6338,-0.6338,-0.6338,-0.6338,-0.6338,-0.6338,-0.6271,-0.6281,-0.6295,-0.274,-0.0,-0.0,-0.0,0.1489,0.5526,0.6139,0.6278,0.6264,0.7176,0.7706,0.7706,0.8613,0.9145,0.9221,1.0115,1.0634,1.0714,1.1694,1.2224,1.2224,1.2305,1.2305,1.2305,1.2305,1.2305,1.2224,1.2224,1.1694,1.0634,0.9669,0.8689,0.7706,0.6718,0.6338,0.6338,0.6338,0.6338,0.6338,0.6338,0.6338,0.6338,-0.7139,-0.8101,-0.9235,-1.0438,-1.1815,-1.3027,-1.3997,-1.4088,-1.4088,-1.4088,-1.4088,-1.4088,-1.4088,-1.4088,-1.4088,-1.4088,-1.4088,-1.4088,-1.4088,-1.4088,-1.4088,-1.4088,-1.4088,-1.4088,-1.4088,-1.4088,-1.4088,-1.4088,-1.4088,0.0,-1.4088,0.0,0.0,0.0,0.0,-1.4088,-1.4088,-1.4088,-1.4088,-1.4088,-1.4088,-1.4088,-1.4088,-1.4088,-1.4088,-1.4008,-1.342,-1.2724,-1.1982,-1.1426,-1.072,-1.0051,-0.9744,-0.9669,-0.9518,-0.8461,-0.8012,-0.7629,-0.6868,-0.649,-0.6338,-0.6338,-0.6338,-0.6338,-0.6338,-0.6338,-0.6338,-0.6338,-0.6338,-0.6338,-0.6338,-0.6264,-0.6271,-0.6291,-0.2743,-0.0,-0.0,-0.0,0.0392,0.1489,0.4401,0.6305,0.6278,0.6574,0.6721,0.6721,0.6945,0.7403,0.8161,0.8461,0.8912,0.9669,1.064,1.1168,1.1168,1.1922,1.2305,1.2305,1.2305,1.1922,1.1168,1.1168,1.064,0.9593,0.8613,0.8012,0.7706,0.6718,0.6338,0.6338,0.6338,0.6338,0.6338,0.6338,0.6338,0.6338,-0.7139,-0.7665,-0.8452,-0.9662,-1.0351,-1.1386,-1.3033,-1.3737,-1.4088,-1.4088,-1.4088,-1.4088,-1.4088,-1.4088,-1.4088,-1.4088,-1.4088,-1.4088,-1.4088,-1.4088,-1.4088,-1.4088,-1.4088,-1.4088,-1.4088,-1.4088,-1.4088,-1.4088,-1.4088,0.0,-1.4088,0.0,0.0,0.0,0.0,-1.4088,-1.4088,-1.4088,-1.4088,-1.4088,-1.4088,-1.4088,0.0,-1.4088,-1.4088,-1.3924,-1.2924,-1.2154,-1.1505,-1.0509,-0.9744,-0.9221,-0.877,-0.8613,-0.8466,-0.7403,-0.7173,-0.7022,-0.649,-0.6338,-0.6338,-0.6338,-0.6338,-0.6338,-0.6338,-0.6338,-0.6338,-0.6338,-0.6264,-0.6268,-0.6268,-0.6274,-0.6285,-0.6308,-0.2747,-0.0,-0.0,-0.0,-0.0,-0.0,0.2118,0.4245,0.6142,0.6281,0.6268,0.6338,0.6338,0.6567,0.7099,0.7553,0.8084,0.8618,0.9593,1.0115,1.0115,1.072,1.1025,1.1025,1.1025,1.072,1.0115,1.0115,0.9593,0.8613,0.8008,0.7557,0.7099,0.6567,0.6338,0.6338,0.6338,0.6338,0.6338,0.6338,0.6338,0.6338,-0.7139,-0.7139,-0.7404,-0.8452,-0.8803,-0.9579,-1.1552,-1.3033,-1.3822,-1.3822,-1.3997,-1.4088,-1.4088,-1.4088,-1.4088,-1.4088,-1.4088,-1.4088,-1.4088,-1.3913,-1.3822,-1.3822,-1.3737,-1.3652,-1.3652,-1.3652,-1.3652,-1.3652,-1.3652,0.0,0.0,0.0,0.0,0.0,0.0,0.0,0.0,-1.3997,-1.4088,-1.4088,-1.4088,-1.4088,-1.4088,-1.3913,-1.3822,-1.3665,-1.1887,-1.1364,-1.1261,-0.9678,-0.8998,-0.877,-0.7859,-0.7629,-0.7403,-0.6567,-0.6338,-0.6338,-0.6338,-0.6338,-0.6338,-0.6338,-0.6338,-0.6338,-0.6338,-0.6338,-0.6338,-0.6264,-0.6271,-0.6197,-0.5957,-0.6129,-0.6305,-0.6325,-0.2752,-0.0,-0.0,-0.0,-0.0,-0.0,-0.0,0.0,0.5126,0.598,0.6278,0.6264,0.6264,0.6264,0.6338,0.7099,0.7629,0.7629,0.8618,0.9069,0.9069,0.9221,0.9296,0.9296,0.9296,0.9221,0.9069,0.9069,0.8542,0.7629,0.7633,0.7103,0.6264,0.6264,0.6268,0.6268,0.6268,0.6268,0.6268,0.6268,0.6268,0.6264,-0.7139,-0.7139,0.0,-0.7404,-0.8281,-0.9065,-0.9405,-1.13,-1.2589,-1.2589,-1.347,-1.4088,-1.4088,-1.4088,-1.4088,-1.4088,-1.4088,-1.4088,-1.4088,-1.3203,-1.2589,-1.2589,-1.1729,-1.1214,-1.1214,-1.1214,-1.1214,-1.1214,-1.1214,-1.1214,0.0,0.0,0.0,0.0,0.0,0.0,-1.2681,-1.3646,-1.4088,-1.4088,-1.4088,-1.4088,-1.3997,-1.3027,-1.2589,-1.2292,-1.0065,-0.978,-1.0215,-0.8599,-0.748,-0.6795,-0.6644,-0.6567,-0.649,-0.6338,-0.6338,-0.6338,-0.6338,-0.6338,-0.6338,-0.6338,-0.6338,-0.6338,-0.6338,-0.6338,-0.6264,-0.6274,-0.6278,-0.5721,-0.3986,-0.511,-0.6325,-0.6329,-0.2752,-0.0,-0.0,-0.0,-0.0,-0.0,-0.0,0.0314,0.1019,0.4233,0.6288,0.6278,0.6274,0.6271,0.6338,0.649,0.6567,0.6567,0.7557,0.8084,0.8084,0.8917,0.9296,0.9296,0.9296,0.8846,0.8084,0.8084,0.748,0.6567,0.6578,0.6426,0.6278,0.6285,0.6288,0.6288,0.6288,0.6288,0.6288,0.6288,0.6288,0.6288,-0.7139,0.0,0.0,0.0,-0.7577,-0.7929,-0.7929,-0.9401,-1.0783,-1.1381,-1.2425,-1.3203,-1.3203,-1.3203,-1.3203,-1.3203,-1.2601,-1.226,-1.226,-1.1735,-1.1381,-1.1381,-1.0864,-1.0611,-1.0611,-1.0611,-1.0611,-1.0611,-1.0611,-1.0611,-1.0611,-1.0611,0.0,0.0,0.0,-1.0864,0.0,-1.2083,-1.226,-1.226,-1.226,-1.226,-1.2254,-1.1643,-1.1381,-1.1177,-0.9347,-0.8984,-0.9013,-0.762,-0.6783,-0.6338,-0.6338,-0.6338,-0.6338,-0.6338,-0.6338,-0.6338,-0.6338,-0.6338,-0.6338,-0.6338,-0.6338,-0.6338,-0.6338,-0.6268,-0.6271,-0.6278,-0.6291,-0.5347,-0.2113,-0.2353,-0.3066,-0.3066,-0.1335,-0.0,-0.0,-0.0,-0.0,-0.0,-0.0,-0.0,-0.0,0.187,0.346,0.4545,0.5646,0.6281,0.6271,0.6271,0.6268,0.6338,0.6802,0.7034,0.7034,0.7496,0.7727,0.7727,0.7727,0.75,0.7042,0.7042,0.6736,0.6281,0.6285,0.5646,0.4616,0.4621,0.4621,0.4621,0.4621,0.4621,0.4621,0.4621,0.5341,0.6149,-0.719,-0.7163,0.0,-0.7139,-0.7139,-0.7139,-0.7139,-0.7929,-0.8973,-1.0096,-1.1209,-1.1901,-1.1901,-1.1901,-1.1901,-1.1901,-1.1128,-1.0611,-1.0611,-1.0351,-1.0269,-1.0269,-1.0005,-0.9831,-0.9831,-0.9831,-0.9831,-0.9831,-0.9831,-0.9831,-0.9831,-0.9831,-0.9831,0.0,0.0,-1.0269,-1.0265,-1.0524,-1.0611,-1.0611,-1.0611,-1.0611,-1.0611,-1.0351,-1.0269,-1.0072,-0.8803,-0.8207,-0.7946,-0.6891,-0.6407,-0.6338,-0.6338,-0.6338,-0.6338,-0.6338,-0.6338,-0.6338,-0.6338,-0.6338,-0.6338,-0.6338,-0.6338,-0.6338,-0.6264,-0.6271,-0.6281,-0.6288,-0.559,-0.3936,-0.0628,-0.0,-0.0,-0.0,-0.0,-0.0,-0.0,-0.0,-0.0,-0.0,-0.0,-0.0,-0.0,-0.0,0.0663,0.2308,0.4036,0.5137,0.5605,0.6058,0.6278,0.6268,0.6278,0.6119,0.564,0.5649,0.5652,0.5652,0.5652,0.5652,0.5652,0.5652,0.5652,0.5655,0.6139,0.4865,0.2422,0.2422,0.2422,0.2422,0.2422,0.2422,0.25,0.2971,0.4479,0.609,-0.735,0.0,-0.7139,-0.7139,-0.7139,-0.7139,-0.7139,-0.7228,-0.7665,-0.889,-1.0009,-1.0783,-1.0783,-1.0783,-1.0783,-1.0783,-1.0697,-1.0611,-1.0611,-0.9666,-0.9061,-0.9061,-0.8013,-0.7401,-0.7401,-0.7401,-0.7401,-0.7401,-0.7401,-0.7401,-0.7401,-0.7401,-0.7401,-0.7489,-0.8536,-0.9061,-0.9148,-1.0183,-1.0611,-1.0611,-1.0611,-1.0611,-1.0524,-0.9492,-0.9061,-0.8886,-0.7647,-0.7198,-0.6967,-0.6729,-0.6491,-0.6338,-0.6338,-0.6338,-0.6338,-0.6338,-0.6338,-0.6338,-0.6338,-0.6338,-0.6338,-0.6338,-0.6338,-0.6264,-0.6274,-0.6278,-0.6288,-0.6318,-0.3224,-0.0471,-0.0079,-0.0,-0.0,-0.0,-0.0,-0.0,-0.0,-0.0,-0.0,-0.0,-0.0,-0.0,-0.0,-0.0,0.0084,0.0251,0.0491,0.1373,0.3308,0.5238,0.6295,0.6291,0.6295,0.5335,0.3437,0.3437,0.3437,0.3437,0.3437,0.3437,0.3437,0.3437,0.3437,0.3517,0.5436,0.4014,0.0314,0.0314,0.0314,0.0314,0.0314,0.0314,0.0549,0.2437,0.4496,0.6264,-0.737,-0.7248,-0.7139,-0.7139,-0.7139,-0.7139,-0.7139,-0.7139,-0.7316,-0.7753,-0.8882,-0.9579,-0.9579,-0.9579,-0.9579,-0.9579,-0.8882,-0.8532,-0.8532,-0.8101,-0.7841,-0.7841,-0.7316,-0.7139,-0.7139,-0.7139,-0.7139,-0.7139,-0.7139,-0.7139,-0.7139,-0.7139,-0.7139,-0.7139,-0.7577,-0.7841,-0.7841,-0.8273,-0.8532,-0.8532,-0.8532,-0.8532,-0.8444,-0.8013,-0.7841,-0.7753,-0.7316,-0.7048,-0.6919,-0.6858,-0.6637,-0.6373,-0.6288,-0.6338,-0.6338,-0.6338,-0.6338,-0.6338,-0.6338,-0.6338,-0.6338,-0.6338,-0.6268,-0.6274,-0.6278,-0.6295,-0.6312,-0.6325,-0.2909,-0.0,-0.0,-0.0,-0.0,-0.0,-0.0,-0.0,-0.0,-0.0,-0.0,-0.0,-0.0,-0.0,-0.0,-0.0,-0.0,-0.0,-0.0,0.0332,0.1157,0.2023,0.3119,0.4318,0.5629,0.5914,0.5034,0.2508,0.1253,0.1253,0.1253,0.1253,0.1175,-0.1409,-0.2508,-0.2426,-0.0312,0.0391,-0.0,-0.0,-0.0,-0.0,-0.0,-0.0,0.0079,0.0943,0.1807,0.2522,-0.738,-0.7248,-0.7139,-0.7139,-0.7139,-0.7139,-0.7139,-0.7139,-0.7139,-0.7139,-0.7841,-0.8364,-0.8364,-0.8364,-0.8364,-0.8364,-0.7577,-0.7139,-0.7139,-0.7139,-0.7139,-0.7139,-0.7139,-0.7139,-0.7139,-0.7139,-0.7139,-0.7139,-0.7139,-0.7139,-0.7139,-0.7139,-0.7139,-0.7139,-0.7139,-0.7139,-0.7139,-0.7139,-0.7139,-0.7139,-0.7139,-0.7139,-0.7139,-0.7139,-0.7139,-0.7139,-0.7139,-0.7075,-0.6987,-0.6943,-0.6783,-0.6573,-0.6383,-0.6295,-0.6338,-0.6338,-0.6338,-0.6338,-0.6338,-0.6338,-0.6338,-0.6338,-0.6271,-0.6119,-0.5482,-0.5827,-0.593,-0.4729,-0.2043,-0.0,-0.0,-0.0,-0.0,-0.0,-0.0,-0.0,-0.0,-0.0,-0.0,-0.0,-0.0,-0.0,-0.0,-0.0,-0.0,-0.0,-0.0,-0.0,-0.0,-0.0,0.0656,0.2128,0.3696,0.4458,0.4458,0.1497,-0.0,-0.0,-0.0,-0.0,-0.0079,-0.3071,-0.5134,-0.625,-0.4716,-0.3214,-0.1726,-0.0549,-0.0706,-0.1728,-0.0471,-0.0,-0.0,-0.0,-0.0,-0.0,-0.74,-0.7248,-0.7139,-0.7139,-0.7139,-0.7139,-0.7139,-0.7139,-0.7139,-0.7139,-0.7139,-0.7139,-0.7139,-0.7139,-0.7139,-0.7139,-0.7139,-0.7139,-0.7139,-0.7139,-0.7139,-0.7139,-0.7139,-0.7139,-0.7139,-0.7139,-0.7139,-0.7139,-0.7139,-0.7139,-0.7139,-0.7139,-0.7139,-0.7139,-0.7139,-0.7139,-0.7139,-0.7139,-0.7139,-0.7139,-0.7139,-0.7139,-0.7139,-0.7139,-0.7139,-0.7139,-0.7139,-0.7139,-0.7115,-0.6976,-0.6926,-0.6871,-0.6566,-0.6373,-0.6338,-0.6338,-0.6338,-0.6338,-0.6338,-0.6338,-0.6338,-0.6338,-0.6271,-0.5721,-0.3593,-0.4792,-0.5129,-0.0942,-0.0,-0.0,-0.0,-0.0,-0.0,-0.0,-0.0,-0.0,-0.0,-0.0,-0.0,-0.0,-0.0,-0.0,-0.0,-0.0,-0.0,-0.0,-0.0,-0.0,-0.0,-0.0,-0.0,-0.0,0.0082,0.0081,0.0081,-0.0,-0.0,-0.0,-0.0,-0.0,-0.0,-0.0079,-0.2359,-0.6267,-0.6267,-0.6267,-0.5865,-0.1729,-0.2435,-0.5846,-0.1649,-0.0,-0.0,-0.0,-0.0,-0.0,-0.738,-0.7248,-0.7139,-0.7139,-0.7139,-0.7139,-0.7139,-0.7139,-0.7139,-0.7139,-0.7139,-0.7139,-0.7139,-0.7139,-0.7139,-0.7139,-0.7139,-0.7139,-0.7139,-0.7139,-0.7139,-0.7139,-0.7139,-0.7139,-0.7139,-0.7139,-0.7139,-0.7139,-0.7139,-0.7139,-0.7139,-0.7139,-0.7139,-0.7139,-0.7139,-0.7139,-0.7139,-0.7139,-0.7139,-0.7139,-0.7139,-0.7139,-0.7139,-0.7139,-0.7139,-0.7139,-0.7139,-0.7139,-0.7132,-0.7088,-0.7007,-0.6912,-0.6814,-0.6681,-0.6539,-0.6434,-0.6407,-0.6383,-0.6288,-0.6338,-0.6264,-0.6271,-0.6281,-0.6136,-0.543,-0.3614,-0.1649,-0.0314,-0.0,-0.0,-0.0,-0.0,-0.0,-0.0,-0.0,-0.0,-0.0,-0.0,-0.0,-0.0,-0.0,-0.0,-0.0,-0.0,-0.0,-0.0,-0.0,-0.0,-0.0,-0.0,-0.0,-0.0,-0.0,-0.1582,-0.4841,-0.4489,-0.354,-0.2083,-0.2127,-0.2111,-0.2189,-0.36,-0.5021,-0.6298,-0.6291,-0.5733,-0.4784,-0.3441,-0.2504,-0.2195,-0.3696,-0.2514,-0.0,-0.0,-0.0,-0.0484,-0.7295,-0.7207,-0.7139,-0.7139,-0.7139,-0.7139,-0.7139,-0.7139,-0.7139,-0.7139,-0.7139,-0.7139,-0.7139,-0.7139,-0.7139,-0.7139,-0.7139,-0.7139,-0.7139,-0.7139,-0.7139,-0.7139,-0.7139,-0.7139,-0.7139,-0.7139,-0.7139,-0.7139,-0.7139,-0.7139,-0.7139,-0.7139,-0.7139,-0.7139,-0.7139,-0.7139,-0.7139,-0.7139,-0.7139,-0.7139,-0.7139,-0.7139,-0.7139,-0.7139,-0.7139,-0.7139,-0.7139,-0.7139,-0.7139,-0.7139,-0.7082,-0.7007,-0.7007,-0.6943,-0.6824,-0.6617,-0.6559,-0.6539,-0.6451,-0.6469,-0.6434,-0.6441,-0.6335,-0.5846,-0.43,-0.191,-0.0,-0.0,-0.0,-0.0,-0.0,-0.0,-0.0,-0.0,-0.0,-0.0,-0.0,-0.0,-0.0,-0.0,-0.0,-0.0,-0.0,-0.0,-0.0,-0.0,-0.0,-0.0809,-0.2606,-0.2662,-0.2642,-0.2642,-0.1808,-0.2808,-0.5721,-0.6363,-0.584,-0.4297,-0.4274,-0.4304,-0.4382,-0.5727,-0.6285,-0.6285,-0.6278,-0.5799,-0.501,-0.501,-0.3988,-0.2581,-0.4399,-0.3452,-0.1097,-0.0317,-0.0,-0.0654,-0.717,-0.7139,-0.7139,-0.7139,-0.7139,-0.7139,-0.7139,-0.7139,-0.7139,-0.7139,-0.7139,-0.7139,-0.7139,-0.7139,-0.7139,-0.7139,-0.7139,-0.7139,-0.7139,-0.7139,-0.7139,-0.7139,-0.7139,-0.7139,-0.7139,-0.7139,-0.7139,-0.7139,-0.7139,-0.7139,-0.7139,-0.7139,-0.7139,-0.7139,-0.7139,-0.7139,-0.7139,-0.7139,-0.7139,-0.7139,-0.7139,-0.7139,-0.7139,-0.7139,-0.7139,-0.7139,-0.7139,-0.7139,-0.7139,-0.7139,-0.7139,-0.7139,-0.7143,-0.7143,-0.7085,-0.68,-0.6715,-0.6715,-0.6705,-0.6614,-0.6606,-0.6606,-0.6198,-0.4862,-0.0893,-0.0,-0.0,-0.0,-0.0,-0.0,-0.0,-0.0,-0.0,-0.0,-0.0,-0.0,-0.0,-0.0,-0.0,-0.0,-0.0,-0.0,-0.0,-0.0,-0.0,-0.0,-0.0,-0.2066,-0.6863,-0.7135,-0.7135,-0.7135,-0.5017,-0.3821,-0.3821,-0.5975,-0.6861,-0.6367,-0.6311,-0.6318,-0.6308,-0.6308,-0.6302,-0.6295,-0.6295,-0.6295,-0.6295,-0.6295,-0.6288,-0.6119,-0.4151,-0.3366,-0.3062,-0.1047,-0.0244,-0.0905,-0.7146,-0.7139,-0.7139,-0.7139,-0.7139,-0.7139,-0.7139,-0.7139,-0.7139,-0.7139,-0.7139,-0.7139,-0.7139,-0.7139,-0.7139,-0.7139,-0.7139,-0.7139,-0.7139,-0.7139,-0.7139,-0.7139,-0.7139,-0.7139,-0.7139,-0.7139,-0.7139,-0.7139,-0.7139,-0.7139,-0.7139,-0.7139,-0.7139,-0.7139,-0.7139,-0.7139,-0.7139,-0.7139,-0.7139,-0.7139,-0.7139,-0.7139,-0.7139,-0.7139,-0.7139,-0.7139,-0.7139,-0.7139,-0.7139,-0.7139,-0.7139,-0.7143,-0.7071,-0.7078,-0.7037,-0.6932,-0.6875,-0.6854,-0.6669,-0.6619,-0.6599,-0.6446,-0.391,-0.1245,-0.025,-0.0,-0.0,-0.0,-0.0,-0.0,-0.0,-0.0,-0.0,-0.0,-0.0,-0.0,-0.0,-0.0,-0.0,-0.0,-0.0,-0.0,-0.0,-0.0,-0.0,-0.0,-0.0,-0.2066,-0.6863,-0.7118,-0.7111,-0.7111,-0.6526,-0.6233,-0.6313,-0.6711,-0.682,-0.6575,-0.662,-0.6542,-0.643,-0.643,-0.6373,-0.6271,-0.6271,-0.6271,-0.6271,-0.6271,-0.6274,-0.6288,-0.5921,-0.5805,-0.5583,-0.3548,-0.2775,-0.3162,-0.7139,-0.7139,-0.7139,-0.7139,-0.7139,-0.7139,-0.7139,-0.7139,-0.7139,-0.7139,-0.7139,-0.7139,-0.7139,-0.7139,-0.7139,-0.7139,-0.7139,-0.7139,-0.7139,-0.7139,-0.7139,-0.7139,-0.7139,-0.7139,-0.7139,-0.7139,-0.7139,-0.7139,-0.7139,-0.7139,-0.7139,-0.7139,-0.7139,-0.7139,-0.7139,-0.7139,-0.7139,-0.7139,-0.7139,-0.7139,-0.7139,-0.7139,-0.7139,-0.7139,-0.7139,-0.7139,-0.7139,-0.7139,-0.7139,-0.7139,-0.7139,-0.7143,-0.7078,-0.7084,-0.6887,-0.5728,-0.6156,-0.6947,-0.6877,-0.6813,-0.632,-0.3968,-0.1683,-0.0,-0.0,-0.0,-0.0,-0.0,-0.0,-0.0,-0.0,-0.0,-0.0,-0.0,-0.0,-0.0,-0.0,-0.0,-0.0,-0.0,-0.0,-0.0,-0.0,-0.0,-0.0,-0.0,-0.0,-0.2066,-0.6863,-0.7115,-0.7101,-0.7094,-0.7084,-0.7078,-0.7071,-0.6924,-0.6806,-0.6803,-0.6732,-0.6658,-0.6576,-0.6576,-0.6536,-0.6461,-0.6461,-0.6461,-0.6461,-0.6461,-0.6464,-0.6478,-0.6563,-0.6685,-0.663,-0.5493,-0.5152,-0.5394,-0.7139,-0.7139,-0.7139,-0.7139,-0.7139,-0.7139,-0.7139,-0.7139,-0.7139,-0.7139,-0.7139,-0.7139,-0.7139,-0.7139,-0.7143,-0.7058,-0.7058,-0.7058,-0.7058,-0.7058,-0.7058,-0.7058,-0.7058,-0.7058,-0.7058,-0.7058,-0.7061,-0.7061,-0.7061,-0.7061,-0.7061,-0.7058,-0.7058,-0.7058,-0.7143,-0.7139,-0.7139,-0.7139,-0.7139,-0.7139,-0.7139,-0.7139,-0.7139,-0.7139,-0.7139,-0.7139,-0.7139,-0.7139,-0.7139,-0.7143,-0.7058,-0.7061,-0.7084,-0.7094,-0.6637,-0.4293,-0.5018,-0.6656,-0.7019,-0.6577,-0.506,-0.1025,-0.0,-0.0,-0.0,-0.0,-0.0,-0.0,-0.0,-0.0,-0.0,-0.0,-0.0,-0.0,-0.0,-0.0,-0.0,-0.0,-0.0,-0.0,-0.0,-0.0,-0.0,-0.0,-0.0,-0.0,-0.0,-0.1796,-0.5855,-0.6751,-0.7101,-0.7084,-0.7064,-0.7139,-0.7139,-0.7021,-0.6959,-0.6959,-0.6827,-0.6756,-0.6736,-0.6736,-0.6722,-0.6702,-0.6702,-0.6702,-0.6702,-0.6702,-0.6702,-0.6702,-0.6725,-0.6742,-0.6853,-0.6833,-0.699,-0.7111,-0.7139,-0.7139,-0.7139,-0.7139,-0.7139,-0.7139,-0.7139,-0.7139,-0.7139,-0.7139,-0.7139,-0.7139,-0.7139,-0.7139,-0.7061,-0.7078,-0.7081,-0.7081,-0.7081,-0.7081,-0.7081,-0.7081,-0.7088,-0.7091,-0.7081,-0.7088,-0.7094,-0.7094,-0.7094,-0.7094,-0.7094,-0.7084,-0.7081,-0.7078,-0.7061,-0.7139,-0.7139,-0.7139,-0.7139,-0.7139,-0.7139,-0.7139,-0.7139,-0.7139,-0.7139,-0.7139,-0.7139,-0.7139,-0.7143,-0.7074,-0.7081,-0.7084,-0.7118,-0.7128,-0.6675,-0.432,-0.3871,-0.4593,-0.6585,-0.4125,-0.0893,-0.0178,-0.0,-0.0,-0.0,-0.0,-0.0,-0.0,-0.0,-0.0,-0.0,-0.0,-0.0,-0.0,-0.0,-0.0,-0.0,-0.0,-0.0,-0.0,-0.0,-0.0,-0.0,-0.0,-0.0,-0.0,-0.0,-0.0359,-0.1074,-0.494,-0.7118,-0.7088,-0.7064,-0.7139,-0.7139,-0.7119,-0.7105,-0.7105,-0.7085,-0.701,-0.6895,-0.6895,-0.6824,-0.6702,-0.6702,-0.6702,-0.6702,-0.6702,-0.6702,-0.6712,-0.6844,-0.6895,-0.6912,-0.697,-0.7112,-0.7119,-0.7139,-0.7139,-0.7139,-0.7139,-0.7139,-0.7139,-0.7139,-0.7139,-0.7139,-0.7139,-0.7139,-0.7058,-0.7068,-0.7071,-0.7078,-0.7094,-0.5908,-0.5733,-0.7022,-0.5913,-0.5184,-0.5184,-0.6459,-0.6551,-0.5275,-0.5188,-0.5191,-0.5191,-0.5191,-0.5191,-0.5191,-0.5186,-0.5905,-0.7084,-0.7081,-0.7074,-0.7071,-0.7078,-0.7074,-0.7071,-0.7078,-0.7074,-0.7071,-0.7071,-0.7074,-0.7078,-0.7071,-0.7074,-0.7081,-0.7091,-0.6272,-0.5458,-0.6671,-0.7135,-0.6406,-0.2698,-0.1619,-0.1888,-0.2966,-0.1707,-0.0,-0.0,-0.0,-0.0,-0.0,-0.0,-0.0,-0.0,-0.0,-0.0,-0.0,-0.0,-0.0,-0.0,-0.0,-0.0,-0.0,-0.0,-0.0,-0.0,-0.0,-0.0,-0.0,-0.0,-0.0,-0.0,-0.0,-0.0,-0.0,-0.4495,-0.7128,-0.7111,-0.7074,-0.7139,-0.7139,-0.7139,-0.7139,-0.7139,-0.7139,-0.7105,-0.7044,-0.7044,-0.7004,-0.6939,-0.6939,-0.6939,-0.6939,-0.6939,-0.6939,-0.6946,-0.7014,-0.7044,-0.7051,-0.7115,-0.7139,-0.7139,-0.7139,-0.7139,-0.7139,-0.7139,-0.7139,-0.7139,-0.7139,-0.7139,-0.7143,-0.7058,-0.7061,-0.7068,-0.7088,-0.6631,-0.6545,-0.7019,-0.5468,-0.5203,-0.6959,-0.5392,-0.3937,-0.2767,-0.556,-0.5744,-0.286,-0.2769,-0.2769,-0.2769,-0.2769,-0.2769,-0.2769,-0.2768,-0.3751,-0.5458,-0.664,-0.6821,-0.6358,-0.691,-0.6821,-0.6358,-0.6913,-0.6732,-0.6269,-0.6539,-0.6815,-0.7098,-0.7088,-0.7091,-0.7098,-0.7108,-0.5922,-0.4565,-0.5216,-0.5405,-0.477,-0.1078,-0.0,-0.0,-0.0,-0.0,-0.0,-0.0,-0.0,-0.0,-0.0,-0.0,-0.0,-0.0,-0.0,-0.0,-0.0,-0.0,-0.0,-0.0,-0.0,-0.0,-0.0,-0.0,-0.0,-0.0,-0.0,-0.0,-0.0,-0.0,-0.0,-0.0,-0.0,-0.0,-0.0,-0.3506,-0.595,-0.7045,-0.7088,-0.7058,-0.7139,-0.7139,-0.7139,-0.7139,-0.7139,-0.7139,-0.7139,-0.7139,-0.7139,-0.7139,-0.7139,-0.7139,-0.7139,-0.7139,-0.7139,-0.7139,-0.7139,-0.7139,-0.7139,-0.7139,-0.7139,-0.7139,-0.7139,-0.7139,-0.7139,-0.7139,-0.7139,-0.7139,-0.7139,-0.7139,-0.7058,-0.7081,-0.7084,-0.7088,-0.7098,-0.5188,-0.4743,-0.6946,-0.6952,-0.6959,-0.7075,-0.6982,-0.4867,-0.0447,-0.467,-0.4949,-0.0359,-0.0269,-0.0269,-0.0269,-0.0269,-0.0269,-0.0269,-0.0269,-0.0358,-0.0715,-0.5099,-0.5908,-0.4016,-0.6177,-0.5816,-0.4018,-0.6189,-0.5824,-0.3927,-0.473,-0.5899,-0.7088,-0.7084,-0.7084,-0.7091,-0.7121,-0.6952,-0.6129,-0.1887,-0.0539,-0.0449,-0.009,-0.0,-0.0,-0.0,-0.0,-0.0,-0.0,-0.0,-0.0,-0.0,-0.0,-0.0,-0.0,-0.0,-0.0,-0.0,-0.0,-0.0,-0.0,-0.0,-0.0,-0.0,-0.0,-0.0,-0.0,-0.0,-0.0,-0.0,-0.0,-0.0,-0.0,-0.0,-0.0,-0.0,-0.0359,-0.2516,-0.6952,-0.7101,-0.7074,-0.7139,-0.7139,-0.7139,-0.7139,-0.7139,-0.7139,-0.7139,-0.7139,-0.7139,-0.7139,-0.7139,-0.7139,-0.7139,-0.7139,-0.7139,-0.7139,-0.7139,-0.7139,-0.7139,-0.7139,-0.7139,-0.7139,-0.7139,-0.7139,-0.7058,-0.7071,-0.7061,-0.7058,-0.7071,-0.7071,-0.7074,-0.7084,-0.5816,-0.5463,-0.6939,-0.6299,-0.494,-0.2875,-0.5412,-0.5874,-0.2882,-0.27,-0.1888,-0.009,-0.1705,-0.1887,-0.0,-0.0,-0.0,-0.0,-0.0,-0.0,-0.0,-0.0,-0.0,-0.0089,-0.188,-0.3855,-0.566,-0.3587,-0.2148,-0.1429,-0.2329,-0.3942,-0.5463,-0.2857,-0.4028,-0.7118,-0.7118,-0.5208,-0.2689,-0.2694,-0.2695,-0.2425,-0.0539,-0.0,-0.0,-0.0,-0.0,-0.0,-0.0,-0.0,-0.0,-0.0,-0.0,-0.0,-0.0,-0.0,-0.0,-0.0,-0.0,-0.0,-0.0,-0.0,-0.0,-0.0,-0.0,-0.0,-0.0,-0.0,-0.0,-0.0,-0.0,-0.0,-0.0,-0.0,-0.0,-0.0,-0.0,-0.0,-0.0,-0.0,-0.0808,-0.2598,-0.557,-0.7101,-0.7074,-0.7058,-0.7139,-0.7139,-0.7139,-0.7139,-0.7139,-0.7139,-0.7139,-0.7139,-0.7139,-0.7139,-0.7139,-0.7139,-0.7139,-0.7139,-0.7139,-0.7139,-0.7139,-0.7139,-0.7139,-0.7139,-0.7139,-0.7139,-0.7058,-0.7081,-0.7071,-0.7068,-0.7088,-0.7091,-0.7094,-0.7101,-0.5738,-0.4752,-0.4858,-0.486,-0.3595,-0.027,-0.2971,-0.3514,-0.018,-0.0,-0.0,-0.0,-0.0,-0.0,-0.0,-0.0,-0.0,-0.0,-0.0,-0.0,-0.0,-0.0,-0.0,-0.0,-0.0,-0.1795,-0.477,-0.2966,-0.1346,-0.009,-0.1616,-0.332,-0.4663,-0.2862,-0.3762,-0.6117,-0.685,-0.4491,-0.1165,-0.1165,-0.1615,-0.1976,-0.0449,-0.0,-0.0,-0.0,-0.0,-0.0,-0.0,-0.0,-0.0,-0.0,-0.0,-0.0,-0.0,-0.0,-0.0,-0.0,-0.0,-0.0,-0.0,-0.0,-0.0,-0.0,-0.0,-0.0,-0.0,-0.0,-0.0,-0.0,-0.0,-0.0,-0.0,-0.0,-0.0,-0.0,-0.0,-0.0,-0.0,-0.0,-0.0,-0.0,-0.3138,-0.557,-0.7101,-0.7074,-0.7061,-0.7061,-0.7143,-0.7139,-0.7139,-0.7139,-0.7139,-0.7139,-0.7139,-0.7139,-0.7139,-0.7139,-0.7139,-0.7139,-0.7139,-0.7139,-0.7139,-0.7139,-0.7139,-0.7139,-0.7139,-0.7139,-0.7058,-0.7081,-0.7084,-0.7088,-0.7009,-0.7101,-0.7111,-0.7131,-0.7045,-0.5223,-0.0539,-0.0,-0.0,-0.0,-0.0,-0.0,-0.0,-0.0,-0.0,-0.0,-0.0,-0.0,-0.0,-0.0,-0.0,-0.0,-0.0,-0.0,-0.0,-0.0,-0.0,-0.0,-0.0,-0.0,-0.027,-0.5041,-0.4318,-0.0449,-0.522,-0.4228,-0.0539,-0.5292,-0.5644,-0.3929,-0.6278,-0.5644,-0.3659,-0.357,-0.5201,-0.6311,-0.1522,-0.0,-0.0,-0.0,-0.0,-0.0,-0.0,-0.0,-0.0,-0.0,-0.0,-0.0,-0.0,-0.0,-0.0,-0.0,-0.0,-0.0,-0.0,-0.0,-0.0,-0.0,-0.0,-0.0,-0.0,-0.0,-0.0,-0.0,-0.0,-0.0,-0.0,-0.0,-0.0,-0.0,-0.0,-0.0,-0.0,-0.0,-0.0,-0.0,-0.0,-0.2238,-0.6956,-0.7101,-0.7084,-0.7084,-0.7064,-0.7139,-0.7139,-0.7139,-0.7139,-0.7139,-0.7139,-0.7139,-0.7139,-0.7139,-0.7139,-0.7139,-0.7139,-0.7139,-0.7139,-0.7139,-0.7139,-0.7139,-0.7139,-0.7139,-0.7061,-0.7091,-0.7091,-0.6,-0.2592,-0.4935,-0.7128,-0.7135,-0.4226,-0.1617,-0.018,-0.0,-0.0,-0.0,-0.0,-0.0,-0.0,-0.0,-0.0,-0.0,-0.0,-0.0,-0.0,-0.0,-0.0,-0.0,-0.0,-0.0,-0.0,-0.0,-0.0,-0.0,-0.0,-0.0,-0.009,-0.1527,-0.1257,-0.0449,-0.522,-0.6221,-0.4768,-0.2865,-0.3762,-0.612,-0.685,-0.6668,-0.5844,-0.4111,-0.5193,-0.6293,-0.152,-0.0,-0.0,-0.0,-0.0,-0.0,-0.0,-0.0,-0.0,-0.0,-0.0,-0.0,-0.0,-0.0,-0.0,-0.0,-0.0,-0.0,-0.0,-0.0,-0.0,-0.0,-0.0,-0.0,-0.0,-0.0,-0.0,-0.0,-0.0,-0.0,-0.0,-0.0,-0.0,-0.0,-0.0,-0.0,-0.0,-0.0,-0.0,-0.0,-0.0,-0.0718,-0.2066,-0.3758,-0.5455,-0.7084,-0.7078,-0.7068,-0.7139,-0.7139,-0.7139,-0.7139,-0.7139,-0.7139,-0.7139,-0.7139,-0.7139,-0.7139,-0.7139,-0.7139,-0.7139,-0.7139,-0.7139,-0.7139,-0.7064,-0.7064,-0.7074,-0.7108,-0.7111,-0.5473,-0.0717,-0.2423,-0.4318,-0.4318,-0.1797,-0.0,-0.0,-0.0,-0.0,-0.0,-0.0,-0.0,-0.0,-0.0,-0.0,-0.0,-0.0,-0.0,-0.0,-0.0,-0.0,-0.0,-0.0,-0.0,-0.0,-0.0,-0.0,-0.0,-0.0,-0.0,-0.009,-0.1976,-0.1707,-0.0449,-0.5216,-0.7131,-0.678,-0.386,-0.3408,-0.4399,-0.5389,-0.6299,-0.6847,-0.5455,-0.5905,-0.664,-0.3757,-0.2145,-0.1251,-0.0269,-0.0,-0.0,-0.0,-0.0,-0.0,-0.0,-0.0,-0.0,-0.0,-0.0,-0.0,-0.0,-0.0,-0.0,-0.0,-0.0,-0.0,-0.0,-0.0,-0.0,-0.0,-0.0,-0.0,-0.0,-0.0,-0.0,-0.0,-0.0,-0.0,-0.0,-0.0,-0.0,-0.0,-0.0,-0.0,-0.0,-0.0,-0.0,-0.0,-0.1433,-0.2861,-0.4291,-0.618,-0.7078,-0.7064,-0.7143,-0.7139,-0.7139,-0.7139,-0.7139,-0.7139,-0.7139,-0.7139,-0.7139,-0.7139,-0.7139,-0.7139,-0.7139,-0.7139,-0.7139,-0.7081,-0.6903,-0.6824,-0.7042,-0.7135,-0.5497,-0.0719,-0.0,-0.0,-0.0,-0.0,-0.0,-0.0,-0.0,-0.0,-0.0,-0.0,-0.0,-0.0,-0.0,-0.0,-0.0,-0.0,-0.0,-0.0,-0.0,-0.0,-0.0,-0.0,-0.0,-0.0,-0.0449,-0.0629,-0.0629,-0.0449,-0.0359,-0.0629,-0.4947,-0.4405,-0.0987,-0.5382,-0.6853,-0.652,-0.6774,-0.4308,-0.0894,-0.3124,-0.528,-0.7094,-0.7064,-0.7064,-0.7084,-0.7098,-0.5463,-0.3215,-0.1256,-0.0628,-0.0537,-0.009,-0.0,-0.0,-0.0,-0.0,-0.0,-0.0,-0.0,-0.0,-0.0,-0.0,-0.0,-0.0,-0.0,-0.0,-0.0,-0.0,-0.0,-0.0,-0.0,-0.0,-0.0,-0.0,-0.0,-0.0,-0.0,-0.0,-0.0,-0.0,-0.0,-0.0,-0.0,-0.0,-0.0,-0.0,-0.0,-0.0,-0.0,-0.0,-0.0089,-0.438,-0.6723,-0.7084,-0.7064,-0.7143,-0.7139,-0.7139,-0.7139,-0.7139,-0.7139,-0.7139,-0.7139,-0.7139,-0.7139,-0.7139,-0.7139,-0.7139,-0.7139,-0.7094,-0.5641,-0.4924,-0.6764,-0.7135,-0.5497,-0.0719,-0.0,-0.0,-0.0,-0.0,-0.0,-0.0,-0.0,-0.0,-0.0,-0.0,-0.0,-0.0,-0.0,-0.0,-0.0,-0.0,-0.0,-0.0,-0.0,-0.0,-0.0,-0.0,-0.0,-0.009,-0.3776,-0.5584,-0.5494,-0.3671,-0.286,-0.2858,-0.3935,-0.4837,-0.5654,-0.664,-0.4835,-0.1791,-0.4383,-0.5379,-0.5668,-0.6186,-0.6634,-0.7084,-0.7061,-0.7143,-0.7061,-0.7081,-0.5458,-0.384,-0.5198,-0.557,-0.4764,-0.0985,-0.0,-0.0,-0.0,-0.0,-0.0,-0.0,-0.0,-0.0,-0.0,-0.0,-0.0,-0.0,-0.0,-0.0,-0.0,-0.0,-0.0,-0.0,-0.0,-0.0,-0.0,-0.0,-0.0,-0.0,-0.0,-0.0,-0.0,-0.0,-0.0,-0.0,-0.0,-0.0,-0.0,-0.0,-0.0,-0.0,-0.0,-0.0,-0.0,-0.1073,-0.3484,-0.7084,-0.7081,-0.7068,-0.7139,-0.7139,-0.7139,-0.7139,-0.7139,-0.7139,-0.7139,-0.7139,-0.7139,-0.7139,-0.7139,-0.7139,-0.7139,-0.684,-0.6112,-0.4935,-0.3864,-0.3687,-0.2875,-0.0359,-0.0,-0.0,-0.0,-0.0,-0.0,-0.0,-0.0,-0.0,-0.0,-0.0,-0.0,-0.0,-0.0,-0.0,-0.0,-0.0,-0.0,-0.0,-0.0,-0.0,-0.0,-0.0,-0.1168,-0.3416,-0.595,-0.7131,-0.7029,-0.583,-0.528,-0.528,-0.5277,-0.6002,-0.7101,-0.7091,-0.5641,-0.3487,-0.4018,-0.5463,-0.7118,-0.7094,-0.7078,-0.7068,-0.7143,-0.7139,-0.7143,-0.7078,-0.626,-0.5265,-0.5369,-0.6198,-0.6573,-0.4036,-0.1703,-0.0,-0.0,-0.0,-0.0,-0.0,-0.0,-0.0,-0.0,-0.0,-0.0,-0.0,-0.0,-0.0,-0.0,-0.0,-0.0,-0.0,-0.0,-0.0,-0.0,-0.0,-0.0,-0.0,-0.0,-0.0,-0.0,-0.0,-0.0,-0.0,-0.0,-0.0,-0.0,-0.0,-0.0,-0.0,-0.0,-0.0,-0.0,-0.0,-0.134,-0.3753,-0.6088,-0.7078,-0.7068,-0.7058,-0.7139,-0.7139,-0.7139,-0.7139,-0.7139,-0.7139,-0.7139,-0.7139,-0.7139,-0.7139,-0.7139,-0.5673,-0.5858,-0.4678,-0.0719,-0.0,-0.0,-0.0,-0.0,-0.0,-0.0,-0.0,-0.0,-0.0,-0.0,-0.0,-0.0,-0.0,-0.0,-0.0,-0.0,-0.0,-0.0,-0.0,-0.0,-0.0,-0.0,-0.0,-0.0,-0.0,-0.2426,-0.7135,-0.7131,-0.7118,-0.7098,-0.7094,-0.7094,-0.7094,-0.7084,-0.7084,-0.7091,-0.7084,-0.7088,-0.6917,-0.4914,-0.5366,-0.7098,-0.7084,-0.7068,-0.7139,-0.7139,-0.7139,-0.7143,-0.7074,-0.7071,-0.6697,-0.473,-0.5547,-0.7012,-0.6576,-0.3592,-0.0539,-0.009,-0.0,-0.0,-0.0,-0.0,-0.0,-0.0,-0.0,-0.0,-0.0,-0.0,-0.0,-0.0,-0.0,-0.0,-0.0,-0.0,-0.0,-0.0,-0.0,-0.0,-0.0,-0.0,-0.0,-0.0,-0.0,-0.0,-0.0,-0.0,-0.0,-0.0,-0.0,-0.0,-0.0,-0.0,-0.0,-0.0,-0.0,-0.0,-0.0179,-0.4559,-0.6723,-0.7084,-0.7061,-0.7139,-0.7139,-0.7139,-0.7139,-0.7139,-0.7139,-0.7139,-0.7139,-0.7139,-0.7139,-0.7139,-0.1707,-0.0988,-0.0719,-0.009,-0.0,-0.0,-0.0,-0.0,-0.0,-0.0,-0.0,-0.0,-0.0,-0.0,-0.0,-0.0,-0.0,-0.0,-0.0,-0.0,-0.0,-0.0,-0.0,-0.0,-0.0,-0.0,-0.0,-0.0,-0.0,-0.2426,-0.7135,-0.7115,-0.7101,-0.7088,-0.7068,-0.7058,-0.7058,-0.7058,-0.7058,-0.7058,-0.7058,-0.7068,-0.7084,-0.6789,-0.6795,-0.7084,-0.7064,-0.7143,-0.7139,-0.7139,-0.7139,-0.7139,-0.7143,-0.7068,-0.7078,-0.6697,-0.6887,-0.6634,-0.465,-0.3573,-0.2592,-0.0539,-0.0,-0.0,-0.0,-0.0,-0.0,-0.0,-0.0,-0.0,-0.0,-0.0,-0.0,-0.0,-0.0,-0.0,-0.0,-0.0,-0.0,-0.0,-0.0,-0.0,-0.0,-0.0,-0.0,-0.0,-0.0,-0.0,-0.0,-0.0,-0.0,-0.0,-0.0,-0.0,-0.0,-0.0,-0.0,-0.0,-0.0,-0.0,-0.0089,-0.2857,-0.5184,-0.7084,-0.7061,-0.7139,-0.7139,-0.7139,-0.7139,-0.7139,-0.7139,-0.7139,-0.7139,-0.7139,-0.7139,-0.7139,-0.0449,-0.0,-0.0,-0.0,-0.0,-0.0,-0.0,-0.0,-0.0,-0.0,-0.0,-0.0,-0.0,-0.0,-0.0,-0.0,-0.0,-0.0,-0.0,-0.0,-0.0,-0.0,-0.0,-0.0,-0.0,-0.2606,-0.3957,-0.3957,-0.3957,-0.5034,-0.7108,-0.7098,-0.7084,-0.7068,-0.7058,-0.7139,-0.7139,-0.7139,-0.7139,-0.7139,-0.7139,-0.7058,-0.7064,-0.7143,-0.7058,-0.7064,-0.7143,-0.7139,-0.7139,-0.7139,-0.7139,-0.7139,-0.7139,-0.7058,-0.7064,-0.7143,-0.7071,-0.691,-0.5819,-0.3576,-0.1343,-0.0269,-0.0,-0.0,-0.0,-0.0,-0.0,-0.0,-0.0,-0.0,-0.0,-0.0,-0.0,-0.0,-0.0,-0.0,-0.0,-0.0,-0.0,-0.0,-0.0,-0.0,-0.0,-0.0,-0.0,-0.0,-0.0,-0.0,-0.0,-0.0,-0.0,-0.0,-0.0,-0.0,-0.0,-0.0,-0.0,-0.0,-0.0,-0.1436,-0.3948,-0.3755,-0.4914,-0.7084,-0.7061,-0.7139,-0.7139,-0.7139,-0.7139,-0.7139,-0.7139,-0.7139,-0.7139,-0.7139,-0.7139,-0.7139]},{"header":{"parameterUnit":"m.s-1","parameterCategory":1,"la1":30.6,"la2":28.766,"lo1":-90.7593,"lo2":-88.6598,"dy":0.0162,"dx":0.0183,"nx":116,"ny":114,"refTime":"2023-07-03T06:00:00:Z","depth":0,"parameterNumber":3,"parameterNumberName":"V-component_of_WINDS"},"data":[0.0,0.0,0.0,0.0,0.0,0.0,0.0,0.0,0.0,0.0,0.0,0.0,0.0,0.0,0.0,0.0,0.0,0.0,0.0,0.0,0.0,0.0,0.0,0.0,0.0,0.0,0.0,0.0,0.0,0.0,0.0,0.0,0.0,0.0,0.0,0.0,0.0,0.0,0.0,0.0,0.0,0.0,0.0,0.0,0.0,0.0,0.0,0.0,0.0,0.0,0.0,0.0,0.0,0.0,0.0,0.0,0.0,0.0,0.0,0.0,0.0,0.0,0.0,0.0,0.0,0.0,0.0,0.0,0.0,0.0,0.0,0.0,0.0,0.0,0.0,0.0,0.0,0.0,0.0,0.0,0.0,0.0,0.0,0.0,0.0,0.0,0.0,0.0,0.0,0.0,0.0,0.0,0.0,0.0,0.0,0.0,0.0,0.0,0.0,0.0,0.0,0.0,0.0,0.0,0.0,0.0,0.0,0.0,0.0,0.0,0.0,0.0,0.0,0.0,0.0,0.0,0.0,0.0,0.0,0.0,0.0,0.0,0.0,0.0,0.0,0.0,0.0,0.0,0.0,0.0,0.0,0.0,0.0,0.0,0.0,0.0,0.0,0.0,0.0,0.0,0.0,0.0,0.0,0.0,0.0,0.0,0.0,0.0,0.0,0.0,0.0,0.0,0.0,0.0,0.0,0.0,0.0,0.0,0.0,0.0,0.0,0.0,0.0,0.0,0.0,0.0,0.0,0.0,0.0,0.0,0.0,0.0,0.0,0.0,0.0,0.0,0.0,0.0,0.0,0.0,0.0,0.0,0.0,0.0,0.0,0.0,0.0,0.0,0.0,0.0,0.0,0.0,0.0,0.0,0.0,0.0,0.0,0.0,0.0,0.0,0.0,0.0,0.0,0.0,0.0,0.0,0.0,0.0,0.0,0.0,0.0,0.0,0.0,0.0,0.0,0.0,0.0,0.0,0.0,0.0,0.0,0.0,0.0,0.0,0.0,0.0,0.0,0.0,0.0,0.0,0.0,0.0,0.0,0.0,0.0,0.0,0.0,0.0,0.0,0.0,0.0,0.0,0.0,0.0,0.0,0.0,0.0,0.0,0.0,0.0,0.0,0.0,0.0,0.0,0.0,0.0,0.0,0.0,0.0,0.0,0.0,0.0,0.0,0.0,0.0,0.0,0.0,0.0,0.0,0.0,0.0,0.0,0.0,0.0,0.0,0.0,0.0,0.0,0.0,0.0,0.0,0.0,0.0,0.0,0.0,0.0,0.0,0.0,0.0,0.0,0.0,0.0,0.0,0.0,0.0,0.0,0.0,0.0,0.0,0.0,0.0,0.0,0.0,0.0,0.0,0.0,0.0,0.0,0.0,0.0,0.0,0.0,0.0,0.0,0.0,0.0,0.0,0.0,0.0,0.0,0.0,0.0,0.0,0.0,0.0,0.0,0.0,0.0,0.0,0.0,0.0,0.0,0.0,0.0,0.0,0.0,0.0,0.0,0.0,0.0,0.0,0.0,0.0,0.0,0.0,0.0,0.0,0.0,0.0,0.0,0.0,0.0,0.0,0.0,0.0,0.0,0.0,0.0,0.0,0.0,0.0,0.0,0.0,0.0,0.0,0.0,0.0,0.0,0.0,0.0,0.0,0.0,0.0,0.0,0.0,0.0,0.0,0.0,0.0,0.0,0.0,0.0,0.0,0.0,0.0,0.0,0.0,0.0,0.0,0.0,0.0,0.0,0.0,0.0,0.0,0.0,0.0,0.0,0.0,0.0,0.0,0.0,0.0,0.0,0.0,0.0,0.0,0.0,0.0,0.0,0.0,0.0,0.0,0.0,0.0,0.0,0.0,0.0,0.0,0.0,0.0,0.0,0.0,0.0,0.0,0.0,0.0,0.0,0.0,0.0,0.0,0.0,0.0,0.0,0.0,0.0,0.0,0.0,0.0,0.0,0.0,0.0,0.0,0.0,0.0,0.0,0.0,0.0,0.0,0.0,0.0,0.0,0.0,0.0,0.0,0.0,0.0,0.0,0.0,0.0,0.0,0.0,0.0,0.0,0.0,0.0,0.0,0.0,0.0,0.0,0.0,0.0,0.0,0.0,0.0,0.0,0.0,0.0,0.0,0.0,0.0,0.0,0.0,0.0,0.0,0.0,0.0,0.0,0.0,0.0,0.0,0.0,0.0,0.0,0.0,0.0,0.0,0.0,0.0,0.0,0.0,0.0,0.0,0.0,0.0,0.0,0.0,0.0,0.0,0.0,0.0,0.0,0.0,0.0,0.0,0.0,0.0,0.0,0.0,0.0,0.0,0.0,0.0,0.0,0.0,0.0,0.0,0.0,0.0,0.0,0.0,0.0,0.0,0.0,0.0,0.0,0.0,0.0,0.0,0.0,0.0,0.0,0.0,0.0,0.0,0.0,0.0,0.0,0.0,0.0,0.0,0.0,0.0,0.0,0.0,0.0,0.0,0.0,0.0,0.0,0.0,0.0,0.0,0.0,0.0,0.0,0.0,0.0,0.0,0.0,0.0,0.0,0.0,0.0,0.0,0.0,0.0,0.0,0.0,0.0,0.0,0.0,0.0,0.0,0.0,0.0,0.0,0.0,0.0,0.0,0.0,0.0,0.0,0.0,0.0,0.0,0.0,0.0,0.0,0.0,0.0,0.0,0.0,0.0,0.0,0.0,0.0,0.0,0.0,0.0,0.0,0.0,0.0,0.0,0.0,0.0,0.0,0.0,0.0,0.0,0.0,0.0,0.0,0.0,0.0,0.0,0.0,0.0,0.0,0.0,0.0,0.0,0.0,0.0,0.0,0.0,0.0,0.0,0.0,0.0,0.0,0.0,0.0,0.0,0.0,0.0,0.0,0.0,0.0,0.0,0.0,0.0,0.0,0.0,0.0,0.0,0.0,0.0,0.0,0.0,0.0,0.0,0.0,0.0,0.0,0.0,0.0,0.0,0.0,0.0,0.0,0.0,0.0,0.0,0.0,0.0,0.0,0.0,0.0,0.0,0.0,0.0,0.0,0.0,0.0,0.0,0.0,0.0,0.0,0.0,0.0,0.0,0.0,0.0,0.0,0.0,0.0,0.0,0.0,0.0,0.0,0.0,0.0,0.0,0.0,0.0,0.0,0.0,0.0,0.0,0.0,0.0,0.0,0.0,0.0,0.0,0.0,0.0,0.0,0.0,0.0,0.0,0.0,0.0,0.0,0.0,0.0,0.0,0.0,0.0,0.0,0.0,0.0,0.0,0.0,0.0,0.0,0.0,0.0,0.0,0.0,0.0,0.0,0.0,0.0,0.0,0.0,0.0,0.0,0.0,0.0,0.0,0.0,0.0,0.0,0.0,0.0,0.0,0.0,0.0,0.0,0.0,0.0,0.0,0.0,0.0,0.0,0.0,0.0,0.0,0.0,0.0,0.0,0.0,0.0,0.0,0.0,0.0,0.0,0.0,0.0,0.0,0.0,0.0,0.0,0.0,0.0,0.0,0.0,0.0,0.0,0.0,0.0,0.0,0.0,0.0,0.0,0.0,0.0,0.0,0.0,0.0,0.0,0.0,0.0,0.0,0.0,0.0,0.0,0.0,0.0,0.0,0.0,0.0,0.0,0.0,0.0,0.0,0.0,0.0,0.0,0.0,0.0,0.0,0.0,0.0,0.0,0.0,0.0,0.0,0.0,0.0,0.0,0.0,0.0,0.0,0.0,0.0,0.0,0.0,0.0,0.0,0.0,0.0,0.0,0.0,0.0,0.0,0.0,0.0,0.0,0.0,0.0,0.0,0.0,0.0,0.0,0.0,0.0,0.0,0.0,0.0,0.0,0.0,0.0,0.0,0.0,0.0,0.0,0.0,0.0,0.0,0.0,0.0,0.0,0.0,0.0,0.0,0.0,0.0,0.0,0.0,0.0,0.0,0.0,0.0,0.0,0.0,0.0,0.0,0.0,0.0,0.0,0.0,0.0,0.0,0.0,0.0,0.0,0.0,0.0,0.0,0.0,0.0,0.0,0.0,0.0,0.0,0.0,0.0,0.0,0.0,0.0,0.0,0.0,0.0,0.0,0.0,0.0,0.0,0.0,0.0,0.0,0.0,0.0,0.0,0.0,0.0,0.0,0.0,0.0,0.0,0.0,0.0,0.0,0.0,0.0,0.0,0.0,0.0,0.0,0.0,0.0,0.0,0.0,0.0,0.0,0.0,0.0,0.0,0.0,0.0,0.0,0.0,0.0,0.0,0.0,0.0,0.0,0.0,0.0,0.0,0.0,0.0,0.0,0.0,0.0,0.0,0.0,0.0,0.0,0.0,0.0,0.0,0.0,0.0,0.0,0.0,0.0,0.0,0.0,0.0,0.0,0.0,0.0,0.0,0.0,0.0,0.0,0.0,0.0,0.0,0.0,0.0,0.0,0.0,0.0,0.0,0.0,0.0,0.0,0.0,0.0,0.0,0.0,0.0,0.0,0.0,0.0,0.0,0.0,0.0,0.0,0.0,0.0,0.0,0.0,0.0,0.0,0.0,0.0,0.0,0.0,0.0,0.0,0.0,0.0,0.0,0.0,0.0,0.0,0.0,0.0,0.0,0.0,0.0,0.0,0.0,0.0,0.0,0.0,0.0,0.0,0.0,0.0,0.0,0.0,0.0,0.0,0.0,0.0,0.0,0.0,0.0,0.0,0.0,0.0,0.0,0.0,0.0,0.0,0.0,0.0,0.0,0.0,0.0,0.0,0.0,0.0,0.0,0.0,0.0,0.0,0.0,0.0,0.0,0.0,0.0,0.0,0.0,0.0,0.0,0.0,0.0,0.0,0.0,0.0,0.0,0.0,0.0,0.0,0.0,0.0,0.0,0.0,0.0,0.0,0.0,0.0,0.0,0.0,0.0,0.0,0.0,0.0,0.0,0.0,0.0,0.0,0.0,0.0,0.0,0.0,0.0,0.0,0.0,0.0,0.0,0.0,0.0,0.0,0.0,0.0,0.0,0.0,0.0,0.0,0.0,0.0,0.0,0.0,0.0,0.0,0.0,0.0,0.0,0.0,0.0,0.0,0.0,0.0,0.0,0.0,0.0,0.0,0.0,0.0,0.0,0.0,0.0,0.0,0.0,0.0,0.0,0.0,0.0,0.0,0.0,0.0,0.0,0.0,0.0,0.0,0.0,0.0,0.0,0.0,0.0,0.0,0.0,0.0,0.0,0.0,0.0,0.0,0.0,0.0,0.0,0.0,0.0,0.0,0.0,0.0,0.0,0.0,0.0,0.0,0.0,0.0,0.0,0.0,0.0,0.0,0.0,0.0,0.0,0.0,0.0,0.0,0.0,0.0,0.0,0.0,0.0,0.0,0.0,0.0,0.0,0.0,0.0,0.0,0.0,0.0,0.0,0.0,0.0,0.0,0.0,0.0,0.0,0.0,0.0,0.0,0.0,0.0,0.0,0.0,0.0,0.0,0.0,0.0,0.0,0.0,0.0,0.0,0.0,0.0,0.0,0.0,0.0,0.0,0.0,0.0,0.0,0.0,0.0,0.0,0.0,0.0,0.0,0.0,0.0,0.0,0.0,0.0,0.0,0.0,0.0,0.0,0.0,0.0,0.0,0.0,0.0,0.0,0.0,0.0,0.0,0.0,0.0,0.0,0.0,0.0,0.0,0.0,0.0,0.0,0.0,0.0,0.0,0.0,0.0,0.0,0.0,0.0,0.0,0.0,0.0,0.0,0.0,0.0,0.0,0.0,0.0,0.0,0.0,0.0,0.0,0.0,0.0,0.0,0.0,0.0,0.0,0.0,0.0,0.0,0.0,0.0,0.0,0.0,0.0,0.0,0.0,0.0,0.0,0.0,0.0,0.0,0.0,0.0,0.0,0.0,0.0,0.0,0.0,0.0,0.0,0.0,0.0,0.0,0.0,0.0,0.0,0.0,0.0,0.0,0.0,0.0,0.0,0.0,0.0,0.0,0.0,0.0,0.0,0.0,0.0,0.0,0.0,0.0,0.0,0.0,0.0,0.0,0.0,0.0,0.0,0.0,0.0,0.0,0.0,0.0,0.0,0.0,0.0,0.0,0.0,0.0,0.0,0.0,0.0,0.0,0.0,0.0,0.0,0.0,0.0,0.0,0.0,-3.1482,-3.1482,0.0,0.0,0.0,0.0,0.0,0.0,0.0,0.0,0.0,0.0,0.0,0.0,0.0,0.0,0.0,0.0,0.0,0.0,0.0,0.0,0.0,0.0,0.0,0.0,0.0,0.0,0.0,0.0,0.0,0.0,0.0,0.0,0.0,0.0,0.0,0.0,0.0,0.0,0.0,0.0,0.0,0.0,0.0,0.0,0.0,0.0,0.0,0.0,0.0,0.0,0.0,0.0,0.0,0.0,0.0,0.0,0.0,0.0,0.0,0.0,0.0,0.0,0.0,0.0,0.0,0.0,0.0,0.0,0.0,0.0,0.0,0.0,0.0,0.0,0.0,0.0,0.0,0.0,0.0,0.0,0.0,0.0,0.0,0.0,0.0,0.0,0.0,0.0,0.0,0.0,0.0,0.0,0.0,0.0,0.0,0.0,0.0,0.0,0.0,0.0,0.0,0.0,0.0,0.0,0.0,0.0,0.0,0.0,0.0,0.0,0.0,0.0,0.0,0.0,-3.1482,-3.1482,0.0,0.0,0.0,0.0,0.0,0.0,0.0,0.0,0.0,0.0,0.0,0.0,0.0,0.0,0.0,0.0,0.0,0.0,0.0,0.0,0.0,0.0,0.0,0.0,0.0,0.0,0.0,0.0,0.0,0.0,0.0,0.0,0.0,0.0,0.0,0.0,0.0,0.0,0.0,0.0,0.0,0.0,0.0,0.0,0.0,0.0,0.0,0.0,0.0,0.0,0.0,0.0,0.0,0.0,0.0,0.0,0.0,0.0,0.0,0.0,0.0,0.0,0.0,0.0,0.0,0.0,0.0,0.0,0.0,0.0,0.0,0.0,0.0,0.0,0.0,0.0,0.0,0.0,0.0,0.0,0.0,0.0,0.0,0.0,0.0,0.0,0.0,0.0,0.0,0.0,0.0,0.0,0.0,0.0,0.0,0.0,0.0,0.0,0.0,0.0,0.0,0.0,0.0,0.0,0.0,0.0,0.0,0.0,-3.1482,-3.1482,-3.1482,-3.1482,-3.1482,-3.1482,-3.1482,-3.1482,-3.1482,-3.1482,0.0,0.0,0.0,0.0,0.0,0.0,0.0,0.0,0.0,0.0,0.0,0.0,0.0,0.0,0.0,0.0,0.0,0.0,0.0,0.0,0.0,0.0,0.0,0.0,0.0,0.0,0.0,0.0,0.0,0.0,0.0,0.0,0.0,0.0,0.0,0.0,0.0,0.0,0.0,0.0,0.0,0.0,0.0,0.0,0.0,0.0,0.0,0.0,0.0,0.0,0.0,0.0,0.0,0.0,0.0,0.0,0.0,0.0,0.0,0.0,0.0,0.0,0.0,0.0,0.0,0.0,0.0,0.0,0.0,0.0,0.0,0.0,0.0,0.0,0.0,0.0,0.0,0.0,0.0,0.0,0.0,0.0,0.0,0.0,0.0,0.0,-3.7488,-3.7361,0.0,0.0,0.0,0.0,0.0,0.0,0.0,0.0,0.0,0.0,0.0,0.0,0.0,-3.1682,-3.1482,-3.1582,-3.1582,-3.1482,-3.1482,-3.1482,-3.1482,-3.1482,-3.1482,-3.1482,-3.1482,0.0,-3.1482,-3.1482,0.0,0.0,0.0,0.0,0.0,0.0,0.0,0.0,0.0,0.0,0.0,0.0,0.0,0.0,0.0,0.0,0.0,0.0,0.0,0.0,0.0,0.0,0.0,0.0,0.0,0.0,0.0,0.0,0.0,0.0,0.0,0.0,0.0,0.0,0.0,0.0,0.0,0.0,0.0,0.0,0.0,0.0,0.0,0.0,0.0,0.0,0.0,0.0,0.0,0.0,0.0,0.0,0.0,0.0,0.0,0.0,0.0,0.0,0.0,0.0,0.0,0.0,0.0,0.0,0.0,0.0,0.0,0.0,0.0,0.0,0.0,0.0,0.0,0.0,0.0,0.0,0.0,0.0,0.0,0.0,0.0,0.0,0.0,0.0,0.0,-3.7157,-3.6609,-3.6236,-3.5464,-3.4795,0.0,0.0,0.0,0.0,0.0,0.0,0.0,0.0,0.0,-3.1482,-3.1482,-3.1482,-3.1482,-3.1482,-3.1482,-3.1482,-3.1482,-3.1482,-3.1482,-3.1482,-3.1482,-3.1482,-3.1482,-3.1482,-3.1482,-3.1482,-3.1482,-3.1482,0.0,0.0,0.0,0.0,-3.2841,-3.3235,0.0,0.0,0.0,0.0,0.0,0.0,0.0,0.0,0.0,0.0,0.0,0.0,0.0,0.0,0.0,0.0,0.0,0.0,0.0,0.0,0.0,0.0,0.0,0.0,0.0,0.0,0.0,0.0,0.0,0.0,0.0,0.0,0.0,0.0,0.0,0.0,0.0,0.0,0.0,0.0,0.0,0.0,0.0,0.0,0.0,0.0,0.0,0.0,0.0,0.0,0.0,0.0,0.0,0.0,0.0,0.0,0.0,0.0,0.0,0.0,0.0,0.0,0.0,0.0,0.0,0.0,0.0,0.0,0.0,0.0,0.0,0.0,0.0,0.0,0.0,0.0,0.0,-3.644,-3.5959,-3.5284,-3.4669,-3.4087,0.0,0.0,0.0,0.0,0.0,0.0,-3.1482,-3.1482,-3.1482,-3.1482,-3.1482,-3.1482,-3.1482,-3.1482,-3.1482,-3.1482,-3.1482,-3.1482,-3.1482,-3.1482,-3.1482,-3.1482,-3.1482,-3.1482,-3.1482,-3.1482,-3.1482,-3.1524,-3.1697,-3.212,-3.2641,-3.2986,-3.3443,-3.3937,0.0,0.0,0.0,0.0,0.0,0.0,0.0,0.0,0.0,0.0,0.0,0.0,0.0,0.0,0.0,0.0,0.0,0.0,0.0,0.0,0.0,0.0,0.0,0.0,0.0,0.0,0.0,0.0,0.0,0.0,0.0,0.0,0.0,0.0,0.0,0.0,0.0,0.0,0.0,0.0,0.0,0.0,0.0,0.0,0.0,0.0,0.0,0.0,0.0,0.0,0.0,0.0,0.0,0.0,0.0,0.0,0.0,0.0,0.0,0.0,0.0,0.0,0.0,0.0,0.0,0.0,0.0,0.0,0.0,0.0,0.0,0.0,0.0,0.0,0.0,0.0,0.0,0.0,0.0,-3.4719,-3.4021,0.0,0.0,0.0,0.0,-3.1582,-3.1524,-3.1482,-3.1482,-3.1482,-3.1482,-3.1482,-3.1482,-3.1482,-3.1482,-3.1482,-3.1482,-3.1482,-3.1482,-3.1482,-3.1482,-3.1482,-3.1482,-3.1482,-3.1482,-3.1482,-3.1482,-3.1482,-3.1482,-3.1582,-3.2272,-3.2586,-3.2734,-3.4037,-3.4528,-3.464,0.0,0.0,0.0,0.0,0.0,0.0,0.0,0.0,0.0,0.0,0.0,0.0,0.0,0.0,0.0,0.0,0.0,0.0,0.0,0.0,0.0,0.0,0.0,0.0,0.0,0.0,0.0,0.0,0.0,0.0,0.0,0.0,0.0,0.0,0.0,0.0,0.0,0.0,0.0,0.0,0.0,0.0,0.0,0.0,0.0,0.0,0.0,0.0,0.0,0.0,0.0,0.0,0.0,0.0,0.0,0.0,0.0,0.0,0.0,0.0,0.0,0.0,0.0,0.0,0.0,0.0,0.0,0.0,0.0,0.0,0.0,0.0,0.0,0.0,0.0,0.0,0.0,0.0,0.0,-3.4087,-3.3735,0.0,-3.2007,-3.164,-3.1482,-3.1482,-3.1482,-3.1482,-3.1482,-3.1482,-3.1482,-3.1482,-3.1482,-3.1482,-3.1482,-3.1482,-3.1482,-3.1482,-3.1482,-3.1482,-3.1482,-3.1482,-3.1482,-3.1482,-3.1482,-3.1796,-3.2216,-3.2216,-3.2216,-3.2216,-3.2492,-3.3145,-3.3937,-3.4431,-3.4894,-3.5253,0.0,0.0,0.0,0.0,0.0,0.0,0.0,0.0,0.0,0.0,0.0,0.0,0.0,0.0,0.0,0.0,0.0,0.0,0.0,0.0,0.0,0.0,0.0,0.0,0.0,0.0,0.0,0.0,0.0,0.0,0.0,0.0,0.0,0.0,0.0,0.0,0.0,0.0,0.0,0.0,0.0,0.0,-4.0489,0.0,0.0,0.0,0.0,0.0,0.0,0.0,0.0,0.0,0.0,0.0,0.0,0.0,0.0,0.0,0.0,0.0,0.0,0.0,0.0,0.0,0.0,0.0,0.0,0.0,0.0,0.0,0.0,0.0,0.0,0.0,0.0,0.0,0.0,-3.5622,-3.5115,-3.3735,-3.3582,-3.3024,-3.164,-3.1482,-3.1482,-3.1482,-3.1482,-3.1482,-3.1482,-3.1482,-3.1482,-3.1482,-3.1482,-3.1482,-3.1482,-3.1482,-3.1482,-3.1482,-3.1482,-3.1482,-3.1482,-3.1482,-3.1482,-3.1524,-3.1739,-3.2176,-3.2641,-3.2841,-3.3093,-3.3287,-3.3287,-3.3836,-3.4624,-3.483,-3.5207,-3.5622,0.0,0.0,0.0,0.0,0.0,0.0,0.0,0.0,0.0,0.0,0.0,0.0,0.0,0.0,0.0,0.0,0.0,0.0,0.0,0.0,0.0,0.0,0.0,0.0,0.0,0.0,0.0,0.0,0.0,0.0,0.0,0.0,0.0,0.0,0.0,0.0,0.0,0.0,0.0,0.0,0.0,0.0,-4.0489,0.0,0.0,0.0,0.0,0.0,0.0,0.0,0.0,0.0,0.0,0.0,0.0,0.0,0.0,0.0,0.0,0.0,0.0,0.0,0.0,0.0,0.0,0.0,0.0,0.0,0.0,0.0,0.0,0.0,0.0,0.0,0.0,0.0,-3.5667,-3.5622,-3.5115,-3.3786,-3.3582,-3.3077,-3.1682,-3.1524,-3.1482,-3.1482,-3.1482,-3.1482,-3.1482,-3.1482,-3.1482,-3.1482,-3.1482,-3.1482,-3.1482,-3.1482,-3.1482,-3.1482,-3.1482,-3.1482,-3.1482,-3.1482,-3.1524,-3.1582,-3.2272,-3.2641,-3.2695,-3.3391,-3.4037,-3.4624,-3.4624,-3.4624,-3.4688,-3.5362,-3.5622,-3.5622,0.0,0.0,0.0,0.0,0.0,0.0,0.0,0.0,0.0,0.0,0.0,0.0,0.0,0.0,0.0,0.0,0.0,0.0,0.0,0.0,0.0,0.0,0.0,0.0,0.0,0.0,0.0,0.0,0.0,0.0,0.0,0.0,0.0,0.0,0.0,0.0,0.0,0.0,0.0,0.0,0.0,0.0,-4.0489,0.0,0.0,0.0,0.0,0.0,0.0,0.0,0.0,0.0,0.0,0.0,0.0,0.0,0.0,0.0,0.0,0.0,0.0,0.0,0.0,0.0,0.0,0.0,0.0,0.0,0.0,0.0,0.0,0.0,0.0,0.0,-3.6981,-3.6224,-3.5667,-3.5622,-3.5253,-3.4431,-3.3887,-3.3235,-3.2382,-3.1796,-3.1482,-3.1482,-3.1482,-3.1482,-3.1482,-3.1482,-3.1482,-3.1482,-3.1482,-3.1482,-3.1482,-3.1482,-3.1482,-3.1482,-3.1482,-3.1482,-3.1482,-3.1482,-3.1796,-3.2327,-3.2492,-3.3145,-3.4087,-3.4235,-3.4736,-3.5253,-3.4783,-3.4894,-3.5362,-3.5515,-3.5622,-3.5622,0.0,0.0,0.0,0.0,0.0,0.0,0.0,0.0,0.0,0.0,0.0,0.0,0.0,0.0,0.0,0.0,0.0,0.0,0.0,0.0,0.0,0.0,0.0,0.0,0.0,0.0,0.0,0.0,0.0,0.0,0.0,0.0,0.0,0.0,0.0,0.0,0.0,0.0,0.0,0.0,0.0,0.0,-4.0639,-4.0639,-4.0639,-4.0639,-4.0639,-4.0639,-4.0639,-4.0639,0.0,0.0,0.0,0.0,0.0,0.0,0.0,0.0,0.0,0.0,0.0,0.0,0.0,0.0,0.0,0.0,0.0,0.0,0.0,0.0,0.0,0.0,0.0,0.0,-3.7415,-3.6865,-3.6316,-3.5898,-3.5362,-3.4688,-3.4235,-3.3735,-3.3093,-3.2625,-3.2256,-3.1951,-3.1951,-3.1853,-3.1539,-3.1482,-3.1482,-3.1482,-3.1482,-3.1482,-3.1482,-3.1482,-3.1482,-3.1482,-3.1482,-3.1482,-3.1539,-3.1796,-3.216,-3.2641,-3.3182,-3.3887,-3.4624,-3.4894,-3.5253,-3.556,0.0,0.0,0.0,0.0,-3.5622,-3.5622,0.0,0.0,0.0,0.0,0.0,0.0,0.0,0.0,0.0,0.0,0.0,0.0,0.0,0.0,0.0,0.0,0.0,0.0,0.0,0.0,0.0,0.0,0.0,0.0,0.0,0.0,0.0,0.0,0.0,0.0,0.0,0.0,0.0,0.0,0.0,0.0,0.0,0.0,0.0,0.0,0.0,0.0,-4.0795,-4.0795,-4.0795,-4.0795,-4.0795,-4.0795,-4.0795,-4.0795,0.0,0.0,0.0,0.0,0.0,0.0,0.0,0.0,0.0,0.0,0.0,0.0,0.0,0.0,0.0,0.0,0.0,0.0,0.0,0.0,0.0,0.0,0.0,0.0,-3.7946,-3.7755,-3.7323,-3.6399,-3.5526,-3.4861,-3.4671,-3.4382,-3.3786,-3.3633,-3.3339,-3.2734,-3.2695,-3.2367,-3.164,-3.1682,0.0,0.0,0.0,-3.164,-3.164,-3.1524,-3.1482,-3.1482,-3.1582,-3.164,-3.164,-3.2382,-3.2734,-3.2895,-3.4087,-3.4624,-3.4736,-3.5362,-3.5622,-3.5622,-3.5622,-3.5622,-3.5622,-3.5622,-3.5622,-3.5622,0.0,0.0,0.0,0.0,0.0,0.0,0.0,0.0,0.0,0.0,0.0,0.0,0.0,0.0,0.0,0.0,0.0,0.0,0.0,0.0,0.0,0.0,0.0,0.0,0.0,0.0,0.0,0.0,0.0,0.0,0.0,0.0,0.0,0.0,0.0,0.0,0.0,0.0,0.0,0.0,0.0,0.0,-4.0791,-4.0791,-4.0791,-4.0791,-4.0791,-4.0791,-4.0791,-4.0791,-4.0791,-4.0791,-4.0791,0.0,0.0,0.0,0.0,0.0,0.0,0.0,0.0,0.0,0.0,0.0,0.0,0.0,0.0,0.0,0.0,0.0,0.0,0.0,0.0,-3.8546,-3.8183,-3.7859,-3.779,-3.7268,-3.6666,-3.613,-3.517,-3.4528,-3.4431,-3.3937,-3.3547,-3.3443,-3.3391,-3.3093,-3.2437,-3.2879,-3.2933,-3.2367,-3.2382,-3.2382,-3.2382,-3.1796,-3.1482,-3.1539,-3.212,0.0,-3.2437,-3.3077,-3.3684,-3.4235,-3.4479,-3.4894,-3.5424,-3.556,-3.5622,-3.5622,-3.5622,-3.5622,-3.5622,-3.5622,-3.5622,-3.5622,0.0,0.0,0.0,0.0,0.0,0.0,0.0,0.0,0.0,0.0,0.0,0.0,0.0,0.0,0.0,0.0,0.0,0.0,0.0,0.0,0.0,0.0,0.0,0.0,0.0,0.0,0.0,0.0,0.0,0.0,0.0,0.0,0.0,0.0,0.0,0.0,0.0,0.0,0.0,0.0,0.0,0.0,-4.0239,-4.0642,-4.0801,-4.0801,-4.0801,-4.0832,-4.0886,-4.0818,-4.089,-4.0996,-4.0918,-4.0898,-4.0896,0.0,0.0,0.0,0.0,0.0,0.0,0.0,0.0,0.0,0.0,0.0,0.0,0.0,0.0,-3.9457,-3.899,0.0,-3.8873,-3.8719,-3.8465,-3.83,-3.83,-3.7877,-3.7268,-3.6498,-3.5873,-3.5386,-3.5144,-3.48,-3.4447,-3.4137,-3.4087,-3.3786,-3.3145,-3.3443,-3.3443,-3.3093,-3.3093,-3.3093,-3.3093,-3.2718,-3.2555,-3.2555,-3.2933,-3.3093,-3.3145,-3.3786,-3.4284,-3.4624,-3.4941,-3.5299,-3.5622,-3.5622,-3.5622,-3.5622,-3.5898,-3.5827,-3.5622,-3.5622,-3.5622,-3.5622,0.0,0.0,0.0,0.0,0.0,0.0,0.0,0.0,0.0,0.0,0.0,0.0,0.0,0.0,0.0,0.0,0.0,0.0,0.0,0.0,0.0,0.0,0.0,0.0,0.0,0.0,0.0,0.0,0.0,0.0,0.0,0.0,0.0,0.0,0.0,0.0,0.0,0.0,0.0,0.0,0.0,0.0,-3.9619,-4.0438,-4.0771,-4.0791,-4.0791,-4.0864,-4.0945,-4.0838,-4.0933,-4.1094,-4.1008,-4.0951,-4.0976,-4.0998,-4.0916,0.0,0.0,0.0,0.0,0.0,0.0,0.0,0.0,0.0,-4.046,-4.0158,-4.0101,-3.9922,-3.9314,-3.9133,-3.9036,-3.8815,-3.875,-3.8707,-3.8707,-3.8332,-3.772,-3.6786,-3.6539,-3.6224,-3.5783,-3.565,-3.5362,-3.483,-3.4783,-3.4479,-3.3836,-3.3937,-3.3937,-3.3786,-3.3786,-3.3786,-3.3786,-3.3684,-3.3582,-3.3582,-3.3735,-3.3786,-3.3836,-3.4496,-3.4783,-3.483,-3.5481,-3.581,-3.5898,-3.5898,-3.5898,-3.5968,-3.6374,-3.6291,-3.5898,-3.5898,-3.5898,-3.5898,0.0,0.0,0.0,0.0,0.0,0.0,0.0,0.0,0.0,0.0,0.0,0.0,0.0,0.0,0.0,0.0,0.0,0.0,0.0,0.0,0.0,0.0,0.0,0.0,0.0,0.0,0.0,0.0,0.0,0.0,0.0,0.0,0.0,0.0,0.0,0.0,0.0,0.0,0.0,0.0,0.0,0.0,-3.9411,-4.0241,-4.0641,-4.0795,-4.0795,-4.0805,-4.0829,-4.082,-4.0809,-4.0842,-4.0835,-4.0811,-4.0844,-4.0976,0.0,-4.0974,-4.0974,-4.0881,-4.0799,-4.0799,-4.0779,-4.0762,0.0,0.0,-4.0575,-4.0177,-4.0101,-3.9982,-3.9622,-3.9289,-3.9099,-3.9044,-3.8873,-3.8707,-3.8707,-3.8658,-3.8382,-3.779,-3.6925,-3.6392,-3.6308,-3.5898,-3.5577,-3.547,-3.547,-3.5207,-3.4528,-3.5052,-3.5098,-3.4528,-3.4479,-3.4479,-3.4479,-3.3887,-3.3582,-3.3582,-3.4186,-3.4479,-3.4528,-3.5207,-3.547,-3.5515,-3.6054,-3.6563,-3.702,-3.702,-3.702,-3.7038,-3.7114,-3.7058,-3.702,-3.702,-3.702,-3.702,0.0,0.0,0.0,0.0,0.0,0.0,0.0,0.0,0.0,0.0,0.0,0.0,0.0,0.0,0.0,0.0,0.0,0.0,0.0,0.0,0.0,0.0,0.0,0.0,0.0,0.0,0.0,0.0,0.0,0.0,0.0,0.0,0.0,0.0,0.0,0.0,0.0,0.0,0.0,0.0,0.0,0.0,-3.8465,-3.9938,-4.0562,-4.0639,-4.0639,-4.0677,0.0,0.0,-4.0712,-4.0785,-4.0746,-4.0764,-4.0808,-4.0878,-4.0877,0.0,-4.0975,-4.0951,-4.0948,-4.1007,-4.0968,-4.0918,-4.0883,-4.0776,-4.0646,-4.0471,-4.0396,-4.025,-3.9943,-3.9775,-3.9622,-3.9414,-3.9144,-3.8933,-3.8933,-3.8803,-3.8627,-3.8382,-3.7738,-3.7173,-3.6865,-3.6374,-3.6071,-3.6071,-3.5783,-3.547,-3.5207,-3.547,-3.547,-3.5207,-3.5207,-3.5207,-3.5207,-3.4894,-3.4752,-3.4752,-3.5052,-3.5207,-3.5207,-3.547,-3.5783,-3.6097,-3.6643,-3.6981,-3.719,-3.719,-3.719,-3.7228,-3.7506,-3.7614,-3.7578,-3.7285,-3.719,-3.719,0.0,0.0,0.0,0.0,0.0,0.0,0.0,0.0,0.0,0.0,0.0,0.0,0.0,0.0,0.0,0.0,0.0,0.0,0.0,0.0,0.0,0.0,0.0,0.0,0.0,0.0,0.0,0.0,0.0,0.0,0.0,0.0,0.0,0.0,0.0,0.0,0.0,0.0,0.0,0.0,0.0,0.0,-3.768,-3.9544,-4.0248,-4.0266,-4.0438,-4.0562,0.0,0.0,-4.06,-4.0716,-4.0658,-4.0677,-4.0716,-4.0754,-4.0784,-4.082,-4.0964,-4.1004,-4.1035,-4.1172,-4.1133,-4.1055,-4.1016,-4.0889,-4.0757,-4.0742,-4.0658,-4.0534,-4.0307,-4.0194,-4.0043,-3.9778,-3.9457,-3.9238,-3.9238,-3.899,-3.8833,-3.8833,-3.841,-3.7998,-3.7632,-3.702,-3.6603,-3.6603,-3.6249,-3.6054,-3.6054,-3.6054,-3.6054,-3.6054,-3.6054,-3.6054,-3.6054,-3.6054,-3.6054,-3.6054,-3.6054,-3.6054,-3.6054,-3.6054,-3.6316,-3.6825,-3.721,-3.7487,-3.7596,-3.7596,-3.7596,-3.7632,-3.7998,-3.8099,-3.8065,-3.7738,-3.7596,-3.7596,0.0,0.0,0.0,0.0,0.0,0.0,0.0,0.0,0.0,0.0,0.0,0.0,0.0,0.0,0.0,0.0,0.0,0.0,0.0,0.0,0.0,0.0,0.0,0.0,0.0,0.0,0.0,0.0,0.0,0.0,0.0,0.0,0.0,0.0,0.0,0.0,0.0,0.0,0.0,0.0,0.0,0.0,-3.73,-3.898,-3.9622,-3.9712,-4.0283,0.0,0.0,0.0,-4.0489,-4.0508,-4.0508,-4.0508,0.0,-4.0658,-4.0735,-4.0827,-4.0958,-4.1003,-4.1035,-4.1172,-4.1191,-4.1152,-4.1035,-4.0996,-4.0948,-4.0822,-4.0793,-4.0773,-4.07,-4.0431,-4.0178,-4.0082,-3.9797,-3.9599,-3.9599,-3.9289,-3.9099,-3.9099,-3.8855,-3.8658,-3.8676,-3.7756,-3.719,-3.719,-3.7135,-3.7135,-3.7135,-3.7135,-3.7135,-3.7135,-3.7135,-3.7135,-3.7135,-3.7135,-3.7135,-3.7135,-3.7135,-3.7135,-3.7135,-3.7135,-3.7396,-3.7859,-3.7859,-3.8183,-3.8658,-3.8658,-3.8658,-3.8676,-3.8658,-3.8676,-3.8658,-3.8676,-3.8658,-3.8658,0.0,0.0,0.0,0.0,0.0,0.0,0.0,0.0,0.0,0.0,0.0,0.0,0.0,0.0,0.0,0.0,0.0,0.0,0.0,0.0,0.0,0.0,0.0,0.0,0.0,0.0,0.0,0.0,0.0,0.0,0.0,0.0,0.0,0.0,0.0,0.0,0.0,0.0,0.0,0.0,0.0,0.0,-3.6612,-3.8402,-3.9276,-3.9622,0.0,0.0,0.0,0.0,0.0,0.0,-3.9905,-3.9905,-3.9944,-4.0215,-4.0432,-4.0639,-4.0754,-4.0804,-4.0825,-4.092,-4.0999,-4.1055,-4.1016,-4.0996,-4.0994,-4.0944,-4.0852,-4.08,-4.078,-4.0642,-4.0511,-4.0504,-4.0177,-3.9922,-3.9922,-3.9645,-3.9414,-3.9414,-3.9333,-3.9216,-3.899,-3.8176,-3.7649,-3.7649,-3.736,-3.719,-3.719,-3.719,-3.719,-3.719,-3.719,-3.719,-3.719,-3.719,-3.719,-3.719,-3.719,-3.719,-3.7228,-3.7506,-3.7755,-3.7911,-3.8267,-3.8546,-3.867,-3.812,-3.79,-3.7845,-3.7312,-3.711,-3.7165,-3.7698,-3.79,-3.7973,0.0,0.0,0.0,0.0,0.0,0.0,0.0,0.0,0.0,0.0,0.0,0.0,0.0,0.0,0.0,0.0,0.0,0.0,0.0,0.0,0.0,0.0,0.0,0.0,0.0,0.0,0.0,0.0,0.0,0.0,0.0,0.0,0.0,0.0,0.0,0.0,0.0,0.0,0.0,0.0,0.0,0.0,-3.6113,-3.7824,-3.8804,0.0,0.0,0.0,0.0,0.0,0.0,0.0,-3.9599,-3.9599,-3.9645,-3.9859,-4.012,-4.0372,-4.0492,-4.0621,-4.0718,-4.0768,-4.0871,-4.093,-4.0929,-4.0972,-4.0996,-4.0996,-4.0977,-4.093,-4.0872,-4.0791,-4.0739,-4.0693,-4.0432,-4.0232,-4.0232,-3.9983,-3.9775,-3.9775,-3.9668,-3.9529,-3.9289,-3.8822,-3.8413,-3.8216,-3.7895,-3.7756,-3.7756,-3.7756,-3.7756,-3.7756,-3.7756,-3.7756,-3.7756,-3.7756,-3.7756,-3.7756,-3.7756,-3.7756,-3.7756,-3.8032,-3.8183,-3.8198,-3.8235,-3.8267,-3.8212,-3.7386,-3.7055,-3.7,-3.6486,-3.6303,-3.6358,-3.6872,-3.7055,-3.7221,0.0,0.0,0.0,0.0,0.0,0.0,0.0,0.0,0.0,0.0,0.0,0.0,0.0,0.0,0.0,0.0,0.0,0.0,0.0,0.0,0.0,0.0,0.0,0.0,0.0,0.0,0.0,0.0,0.0,0.0,0.0,0.0,0.0,0.0,0.0,0.0,0.0,0.0,0.0,0.0,0.0,0.0,-3.5678,-3.723,0.0,0.0,0.0,0.0,0.0,0.0,0.0,0.0,-3.9552,-3.9552,-3.9576,-3.9576,-3.9797,-4.0101,-4.0159,-4.0434,-4.0681,-4.0773,-4.0793,-4.0786,-4.0791,-4.091,-4.0994,-4.0996,-4.1094,-4.1152,0.0,0.0,-4.08,-4.0718,-4.06,-4.0508,-4.0508,-4.0286,-4.0139,0.0,0.0,0.0,0.0,-3.9622,-3.9377,-3.8792,-3.875,-3.875,-3.8719,-3.8719,-3.8719,-3.8707,-3.8707,-3.8707,-3.8707,-3.8707,-3.8707,-3.8707,-3.8707,-3.8707,-3.8707,-3.8707,-3.8689,-3.8597,-3.7826,-3.7489,-3.7367,-3.656,-3.6229,-3.6229,-3.6193,-3.6156,-3.6174,-3.6211,-3.6229,-3.645,0.0,0.0,0.0,0.0,0.0,0.0,0.0,0.0,0.0,0.0,0.0,0.0,0.0,0.0,0.0,0.0,0.0,0.0,0.0,0.0,0.0,0.0,0.0,0.0,0.0,0.0,0.0,0.0,0.0,0.0,0.0,0.0,0.0,0.0,0.0,0.0,0.0,0.0,0.0,0.0,0.0,0.0,-3.4703,0.0,0.0,0.0,0.0,0.0,0.0,0.0,0.0,0.0,0.0,-3.9073,-3.9231,-3.9231,-3.9462,-3.9797,-4.0043,-4.0195,-4.0307,-4.0515,-4.0658,-4.0727,-4.0737,-4.079,-4.0848,-4.0844,-4.0957,-4.1035,-4.1016,-4.0973,0.0,-4.093,-4.0812,0.0,-4.0658,-4.0592,0.0,-4.0408,0.0,-4.0194,-4.0002,-3.9982,-3.9816,-3.9402,-3.9377,-3.9275,-3.9027,-3.8999,-3.8894,-3.8707,-3.8707,-3.8707,-3.8707,-3.8707,-3.8707,-3.8707,-3.8707,-3.8707,-3.8707,-3.8707,-3.8377,-3.7771,-3.7569,-3.7147,-3.6541,-3.5679,-3.5349,-3.5275,-3.4669,-3.4431,-3.4504,-3.5128,-3.5349,-3.5495,0.0,0.0,0.0,0.0,0.0,0.0,0.0,0.0,0.0,0.0,0.0,0.0,0.0,0.0,0.0,0.0,0.0,0.0,0.0,0.0,0.0,0.0,0.0,0.0,0.0,0.0,0.0,0.0,0.0,0.0,0.0,0.0,0.0,0.0,0.0,0.0,0.0,0.0,0.0,0.0,0.0,0.0,0.0,0.0,0.0,0.0,0.0,0.0,0.0,0.0,0.0,-3.8707,-3.8707,-3.8803,-3.8905,-3.8905,0.0,-3.9414,-3.9599,-3.9775,-3.9922,-4.0082,-4.0158,-4.0272,-4.04,-4.0482,-4.0583,-4.073,-4.0837,-4.092,-4.0994,-4.0957,-4.0928,0.0,0.0,0.0,-4.07,-4.0714,-4.0658,0.0,-4.0489,0.0,-4.0304,-4.0286,-4.0194,-4.0004,-3.9757,-3.9529,-3.9314,-3.9314,-3.9231,-3.91,-3.9073,-3.9036,-3.8884,-3.8884,-3.8833,-3.8707,-3.8707,-3.8707,-3.8707,-3.8815,-3.8459,-3.7664,-3.744,-3.6861,-3.6061,-3.5225,-3.4872,-3.4835,-3.437,-3.4208,-3.424,-3.453,-3.4644,-3.4747,0.0,0.0,0.0,0.0,0.0,0.0,0.0,0.0,0.0,0.0,0.0,0.0,0.0,0.0,0.0,0.0,0.0,0.0,0.0,0.0,0.0,0.0,0.0,0.0,0.0,0.0,0.0,0.0,0.0,0.0,0.0,0.0,0.0,0.0,0.0,0.0,0.0,0.0,0.0,0.0,0.0,0.0,0.0,0.0,0.0,0.0,0.0,0.0,0.0,0.0,-3.8707,-3.8707,-3.8707,-3.8707,-3.8707,-3.8707,-3.8855,-3.9044,-3.9099,-3.9314,-3.9534,-3.9599,-3.9599,-3.969,-4.0022,-4.0133,-4.0284,-4.0604,-4.0735,-4.0817,-4.0941,-4.0896,-4.0859,-4.0976,0.0,-4.0836,-4.0751,-4.072,-4.0677,-4.0543,-4.0508,-4.0489,-4.0489,-4.0489,-4.0489,-4.0489,-4.0024,-3.9712,-3.9668,-3.9668,-3.9645,-3.9599,-3.9599,-3.9462,-3.916,-3.9178,-3.9054,-3.8822,-3.8822,-3.8792,-3.8762,-3.9054,-3.8622,-3.7713,-3.7295,-3.6581,-3.5692,-3.4996,-3.4694,-3.4694,-3.4694,-3.4694,-3.4674,-3.4379,-3.4288,-3.4335,0.0,0.0,0.0,0.0,0.0,0.0,0.0,0.0,0.0,0.0,-3.3408,0.0,0.0,0.0,0.0,0.0,0.0,0.0,0.0,0.0,0.0,0.0,0.0,0.0,0.0,0.0,0.0,0.0,0.0,0.0,0.0,0.0,0.0,0.0,0.0,0.0,0.0,0.0,0.0,0.0,0.0,0.0,0.0,0.0,0.0,0.0,0.0,0.0,0.0,0.0,-3.8707,-3.8707,-3.8707,-3.8707,-3.8707,-3.8707,-3.875,-3.8833,-3.9036,-3.9133,-3.9238,-3.9529,-3.9599,-3.969,-4.0022,-4.012,0.0,0.0,-4.0639,-4.0723,-4.0752,-4.0869,-4.0976,-4.0996,-4.1073,-4.1087,-4.0969,-4.0849,-4.0754,0.0,-4.0581,-4.0489,-4.0489,-4.0489,-4.0489,-4.0489,-4.0406,-4.0267,-4.0022,-4.0002,-3.988,-3.9599,-3.9599,-3.9576,-3.951,-3.951,-3.9481,-3.9432,-3.9432,-3.9282,-3.9036,-3.9383,-3.8552,-3.6912,-3.7032,-3.626,-3.4902,-3.4769,-3.4694,-3.4694,-3.4694,-3.4694,-3.4694,-3.4632,-3.4593,-3.463,0.0,0.0,0.0,0.0,0.0,0.0,0.0,0.0,0.0,0.0,-3.3634,-3.3419,0.0,0.0,0.0,0.0,0.0,0.0,0.0,0.0,0.0,0.0,0.0,0.0,0.0,0.0,0.0,0.0,0.0,0.0,0.0,0.0,0.0,0.0,0.0,0.0,0.0,0.0,0.0,0.0,0.0,0.0,0.0,0.0,0.0,0.0,0.0,0.0,0.0,0.0,-3.8707,-3.8707,-3.8707,-3.8707,-3.8707,-3.8707,-3.8707,-3.8719,-3.8855,-3.8894,-3.8923,-3.9073,-3.9127,-3.9216,-3.9505,0.0,0.0,0.0,-4.0463,-4.062,-4.0696,-4.0823,0.0,-4.0994,-4.1113,-4.1152,-4.1016,-4.0949,-4.0849,-4.0723,-4.0639,-4.0581,-4.0508,-4.0489,-4.0489,-4.0489,-4.0489,-4.0438,-4.0321,-4.0321,-4.023,-4.0063,-4.0063,-4.0004,-3.9859,-3.9859,-3.9775,-3.9599,-3.9599,-3.9529,-3.9364,-3.9709,-3.8866,-3.7128,-3.7452,-3.6648,-3.5122,-3.5122,-3.5122,-3.5122,-3.5122,-3.5122,-3.5105,-3.4963,-3.4908,-3.4889,0.0,0.0,0.0,0.0,0.0,0.0,0.0,-3.4596,-3.4064,-3.4064,-3.3917,-3.368,-3.3361,-3.3332,-3.3136,0.0,0.0,0.0,0.0,0.0,0.0,0.0,0.0,0.0,0.0,0.0,0.0,-2.6916,0.0,0.0,0.0,0.0,0.0,0.0,0.0,0.0,0.0,0.0,0.0,0.0,0.0,0.0,0.0,0.0,0.0,0.0,0.0,0.0,0.0,0.0,-3.8578,-3.8707,-3.8707,-3.8707,-3.8707,-3.8707,-3.8707,-3.8707,-3.8707,-3.8707,-3.8707,-3.8707,-3.8707,-3.8762,-3.9036,-3.9364,0.0,-4.0022,-4.0321,-4.0543,-4.0639,0.0,-4.081,0.0,-4.1073,-4.1133,-4.1055,-4.1016,-4.0925,-4.0739,-4.0703,0.0,-4.0508,-4.0489,-4.0489,-4.0489,-4.0489,-4.0489,-4.0489,-4.0489,-4.0489,-4.0489,-4.0489,-4.0389,-4.0177,-4.0177,-4.0043,-3.98,-3.98,-3.9757,-3.9731,-4.0042,-3.9185,-3.7526,-3.7859,-3.7046,-3.5493,-3.5493,-3.5493,-3.5493,-3.5493,-3.5493,-3.546,-3.5254,-3.519,-3.5174,0.0,0.0,0.0,0.0,0.0,0.0,0.0,-3.5459,-3.488,-3.488,-3.4266,-3.3807,-3.3734,-3.3734,-3.3578,0.0,0.0,0.0,0.0,0.0,0.0,0.0,0.0,0.0,0.0,0.0,0.0,-2.8319,-2.8857,0.0,0.0,0.0,0.0,0.0,0.0,-2.9271,0.0,0.0,0.0,0.0,0.0,0.0,0.0,0.0,0.0,0.0,0.0,0.0,0.0,0.0,0.0,-3.8707,-3.8707,-3.8707,-3.8707,-3.8707,0.0,0.0,-3.8707,-3.8707,-3.8707,-3.8707,-3.8707,-3.8762,-3.9036,0.0,-3.9709,-4.0022,-4.0321,-4.0489,-4.0508,0.0,0.0,0.0,0.0,-4.1055,-4.1172,-4.1074,-4.0945,-4.0821,0.0,0.0,-4.0508,-4.0489,-4.0489,-4.0489,-4.0489,-4.0489,-4.0489,-4.0489,-4.0489,-4.0489,-4.0489,-4.0489,-4.0473,-4.0473,-4.0457,-4.0422,-4.0422,-4.0285,-4.0062,-4.0339,-3.938,-3.7526,-3.7859,-3.7046,-3.5493,-3.5493,-3.5493,-3.5493,-3.5493,-3.5493,-3.5493,-3.546,-3.546,-3.546,0.0,0.0,0.0,0.0,0.0,0.0,0.0,-3.6701,-3.6007,-3.6007,-3.5597,-3.511,-3.4596,-3.4523,-3.4266,0.0,0.0,0.0,0.0,0.0,0.0,0.0,0.0,0.0,0.0,0.0,0.0,-2.9042,-2.9271,0.0,0.0,0.0,0.0,0.0,0.0,-2.9855,-3.0663,0.0,0.0,0.0,0.0,0.0,0.0,0.0,0.0,0.0,0.0,0.0,0.0,0.0,0.0,0.0,-3.8707,-3.8707,0.0,0.0,-3.8707,-3.8707,-3.8707,-3.8707,-3.8707,-3.8707,-3.8707,-3.8719,-3.8844,0.0,-3.9576,-3.951,-4.0043,-4.0457,-4.0304,-4.0504,-4.0723,0.0,0.0,0.0,-4.1172,-4.1152,-4.1069,-4.0939,-4.0824,-4.0716,-4.0639,-4.0562,-4.0489,-4.0489,-4.0489,-4.0489,-4.0489,-4.0489,-4.0489,-4.0489,-4.0489,-4.0489,-4.0489,-4.0489,-4.0489,-4.0489,-4.0489,-4.0438,-4.0339,-4.0457,-3.95,-3.7808,-3.7939,-3.7046,-3.5493,-3.5493,-3.5493,-3.5493,-3.5493,-3.5493,-3.5493,-3.5493,-3.5493,-3.5493,0.0,0.0,0.0,0.0,0.0,0.0,-3.8754,-3.7873,-3.7205,-3.7205,-3.6753,-3.6178,-3.5569,-3.5423,-3.5055,-3.4229,0.0,0.0,0.0,0.0,0.0,0.0,0.0,0.0,0.0,0.0,0.0,-3.0061,-3.0203,-3.0203,0.0,0.0,-3.0525,-3.0937,0.0,0.0,0.0,0.0,0.0,0.0,0.0,0.0,0.0,0.0,0.0,0.0,0.0,0.0,0.0,0.0,0.0,0.0,0.0,0.0,0.0,0.0,-3.8707,-3.8707,-3.8707,-3.8707,-3.8707,-3.8707,-3.8707,-3.8707,0.0,0.0,-3.9414,-3.9264,-3.9844,-4.0356,-4.0232,-4.0449,-4.0677,0.0,0.0,-4.1008,-4.1172,-4.1191,-4.1153,-4.1014,-4.0919,-4.0812,-4.0716,-4.0581,-4.0489,-4.0489,-4.0489,-4.0489,-4.0489,-4.0489,-4.0489,-4.0489,-4.0489,-4.0489,-4.0489,-4.0489,-4.0489,-4.0489,-4.0489,-4.0489,-4.0489,-4.0489,-3.9719,-3.8373,-3.8104,-3.718,-3.5853,-3.5603,-3.5493,-3.5493,-3.5493,-3.5493,-3.5493,-3.5493,-3.5493,-3.5493,0.0,0.0,0.0,0.0,0.0,0.0,0.0,-3.8882,-3.8376,-3.8376,-3.7403,-3.6702,-3.6684,-3.6436,-3.5936,-3.5045,0.0,0.0,0.0,0.0,0.0,0.0,0.0,0.0,0.0,0.0,0.0,-3.1582,-3.2194,-3.2142,-3.1582,-3.2194,-3.2484,-3.2519,0.0,0.0,0.0,0.0,0.0,0.0,0.0,0.0,0.0,0.0,0.0,0.0,0.0,0.0,0.0,0.0,0.0,0.0,0.0,0.0,0.0,0.0,-3.8707,-3.8707,-3.8707,-3.8707,-3.8707,-3.8707,-3.8707,-3.8707,0.0,0.0,-3.9205,-3.9529,-3.988,-4.0177,-4.0457,-4.0489,-4.0581,-4.0773,-4.0796,0.0,-4.1151,-4.1191,-4.1152,0.0,-4.0994,-4.0908,-4.0716,-4.0581,-4.0489,-4.0489,-4.0489,-4.0489,-4.0489,-4.0489,-4.0489,-4.0489,-4.0489,-4.0489,-4.0489,-4.0489,-4.0489,-4.0489,-4.0489,-4.0489,-4.0489,-4.0489,-4.0046,-3.9238,-3.8373,-3.7507,-3.6642,-3.5834,-3.5493,-3.5493,-3.5493,-3.5493,-3.5493,-3.5493,-3.5493,-3.5493,0.0,0.0,0.0,0.0,0.0,0.0,0.0,-3.9834,-3.9562,-3.9562,-3.9063,-3.8461,-3.792,-3.7788,-3.7403,-3.6578,0.0,0.0,0.0,0.0,0.0,0.0,0.0,0.0,0.0,0.0,0.0,0.0,0.0,-3.2382,-3.2228,-3.2415,-3.28,-3.3348,-3.3578,-3.4287,0.0,0.0,0.0,0.0,0.0,0.0,0.0,0.0,0.0,0.0,0.0,0.0,0.0,0.0,0.0,0.0,0.0,0.0,0.0,0.0,0.0,0.0,-3.8707,-3.8707,-3.8707,-3.8707,-3.8707,-3.8707,-3.8707,0.0,0.0,-3.9289,-3.9844,-4.0339,-4.0232,-4.0449,-4.0677,-4.0773,-4.0877,0.0,0.0,0.0,0.0,-4.1022,-4.088,-4.0735,-4.0581,-4.0508,-4.0489,-4.0489,-4.0489,-4.0489,-4.0489,-4.0489,-4.0489,-4.0489,-4.0489,-4.0489,-4.0489,-4.0489,-4.0489,-4.0489,-4.0489,-4.0489,-4.0489,-4.0489,-4.0046,-3.9277,-3.9008,-3.8392,-3.7526,-3.668,-3.6334,-3.6276,-3.5718,-3.5493,-3.5493,-3.5493,-3.5493,-3.5493,0.0,0.0,0.0,0.0,0.0,0.0,0.0,-4.0394,-4.025,-4.025,-3.9983,-3.9608,-3.9096,-3.8934,-3.8527,-3.7718,0.0,0.0,0.0,0.0,0.0,0.0,0.0,0.0,0.0,0.0,0.0,0.0,0.0,0.0,0.0,-3.3777,-3.4243,-3.5038,-3.5349,0.0,0.0,0.0,0.0,0.0,0.0,0.0,-3.9282,0.0,0.0,0.0,0.0,0.0,0.0,0.0,0.0,0.0,0.0,0.0,0.0,0.0,-3.9036,-3.8998,0.0,-3.8707,-3.8707,-3.8707,-3.8707,0.0,0.0,0.0,0.0,0.0,0.0,0.0,-4.025,-4.0504,-4.0723,-4.0784,-4.0916,-4.1052,0.0,0.0,0.0,-4.1004,-4.0812,-4.0677,-4.0581,-4.0543,-4.0489,-4.0489,-4.0489,-4.0489,-4.0489,-4.0489,-4.0489,-4.0489,-4.0489,-4.0489,-4.0489,-4.0489,-4.0489,-4.0489,-4.0489,-4.0489,-4.0489,-4.0489,-4.0219,-3.9738,-3.9431,-3.8988,0.0,-3.7546,-3.7199,-3.7123,-3.6276,-3.5949,-3.593,-3.5622,-3.5493,-3.5493,0.0,0.0,0.0,0.0,0.0,0.0,0.0,0.0,0.0,0.0,-4.0286,-4.012,-4.012,-3.984,-3.9346,0.0,0.0,0.0,0.0,0.0,0.0,0.0,0.0,0.0,0.0,0.0,0.0,-3.4788,-3.4788,-3.5205,-3.6,0.0,-3.6453,-3.7324,-3.8077,0.0,0.0,0.0,0.0,0.0,0.0,0.0,0.0,0.0,0.0,0.0,0.0,0.0,0.0,0.0,0.0,0.0,0.0,0.0,0.0,0.0,0.0,0.0,0.0,-3.8762,-3.8762,-3.8762,-3.8762,0.0,0.0,0.0,0.0,0.0,0.0,0.0,0.0,-4.062,-4.0737,-4.08,-4.0936,-4.105,-4.1171,-4.1178,-4.1127,-4.1001,-4.0812,-4.0696,-4.0696,-4.0581,-4.0489,-4.0489,-4.0489,-4.0489,-4.0489,-4.0489,-4.0489,-4.0489,-4.0489,-4.0489,-4.0489,-4.0489,-4.0489,-4.0489,-4.0489,-4.0489,-4.0489,-4.0489,-4.0489,-4.045,-3.97,-3.9392,-3.9315,-3.845,-3.8084,-3.8007,-3.7142,-3.6757,-3.6622,-3.5872,-3.5565,-3.5493,0.0,0.0,0.0,0.0,0.0,0.0,0.0,0.0,0.0,0.0,-4.0515,-4.0425,-4.0425,-4.0336,-4.0206,0.0,0.0,0.0,0.0,0.0,0.0,0.0,0.0,0.0,0.0,0.0,0.0,-3.562,-3.562,-3.6075,-3.689,-3.689,0.0,0.0,0.0,0.0,0.0,0.0,0.0,0.0,0.0,0.0,0.0,0.0,0.0,0.0,-3.969,-3.9599,0.0,0.0,0.0,0.0,0.0,0.0,0.0,0.0,-3.9599,-3.9576,-3.9427,0.0,-3.9402,-3.9402,-3.9402,-3.9383,0.0,0.0,0.0,0.0,0.0,0.0,0.0,0.0,-4.0823,-4.093,-4.1066,-4.1152,-4.1188,-4.1022,-4.0854,-4.0785,-4.0639,-4.0562,-4.0562,-4.0508,-4.0489,-4.0489,-4.0489,-4.0489,-4.0489,-4.0489,-4.0489,-4.0489,-4.0489,-4.0489,-4.0489,-4.0489,-4.0489,-4.0489,-4.0489,-4.0489,-4.0489,-4.0489,-4.0489,-4.0489,-4.0296,-4.0219,-4.0142,-3.9335,-3.8988,-3.8911,-3.8027,-3.7296,-3.668,-3.6488,-3.6045,-3.5493,0.0,0.0,0.0,0.0,0.0,0.0,0.0,0.0,0.0,0.0,0.0,0.0,0.0,0.0,0.0,0.0,0.0,0.0,0.0,0.0,0.0,0.0,0.0,0.0,0.0,0.0,0.0,0.0,0.0,-3.7317,0.0,0.0,0.0,0.0,0.0,0.0,0.0,0.0,0.0,0.0,-4.0119,0.0,0.0,0.0,0.0,0.0,-4.0177,-4.01,0.0,-4.0043,-4.0024,-4.0024,0.0,0.0,0.0,0.0,-4.0024,-4.0024,-4.0024,-3.9821,-3.9599,-3.9599,-3.9599,-3.9645,0.0,0.0,0.0,0.0,0.0,0.0,0.0,0.0,0.0,-4.0985,-4.111,-4.1201,-4.1198,-4.0965,-4.0803,-4.0766,-4.06,-4.0489,-4.0489,-4.0489,-4.0489,-4.0489,-4.0489,-4.0335,-3.9969,-3.995,-3.9758,-3.9373,-3.9354,-3.9719,-4.0489,-4.0489,-4.0489,-4.0489,-4.0489,-4.0489,-4.0489,-4.0489,-4.0489,-4.0489,-4.0489,-4.0489,-4.0469,-4.0027,-3.9835,-3.9758,-3.8911,-3.8315,-3.7796,-3.6988,-3.643,-3.6007,0.0,0.0,0.0,0.0,0.0,0.0,0.0,0.0,0.0,0.0,0.0,0.0,0.0,0.0,0.0,0.0,0.0,0.0,0.0,0.0,0.0,0.0,0.0,0.0,0.0,0.0,0.0,0.0,0.0,0.0,0.0,0.0,-3.9873,0.0,0.0,0.0,0.0,0.0,0.0,0.0,-4.0737,0.0,0.0,0.0,0.0,0.0,0.0,0.0,0.0,-4.0581,-4.0562,-4.0508,-4.0392,0.0,0.0,0.0,0.0,0.0,-4.0277,-3.9947,-3.9583,-3.9697,-3.9735,-3.98,0.0,0.0,0.0,0.0,0.0,0.0,0.0,-4.0889,0.0,0.0,0.0,-4.116,-4.1147,-4.0927,-4.0773,-4.0754,-4.06,-4.0489,-4.0489,-4.0392,-4.0315,-4.0315,-4.0181,-3.9815,-3.9142,-3.9104,-3.8757,-3.8027,-3.8007,-3.8681,-4.0085,-4.0239,-4.0315,-4.0315,-4.0431,-4.0489,-4.0489,-4.0489,-4.0489,-4.0489,-4.0489,-4.0489,-4.0489,-4.0489,-4.0489,-4.0431,-3.9738,-3.9411,-3.9104,-3.7488,-3.6815,-3.6584,0.0,0.0,0.0,0.0,0.0,0.0,0.0,0.0,0.0,0.0,0.0,0.0,0.0,0.0,0.0,0.0,0.0,0.0,0.0,0.0,0.0,0.0,0.0,0.0,0.0,0.0,0.0,0.0,0.0,0.0,-4.0562,-4.0562,-4.0639,-4.0754,0.0,-4.0773,-4.077,-4.0749,-4.0773,-4.0804,-4.0798,0.0,0.0,0.0,0.0,0.0,0.0,0.0,0.0,-4.0754,-4.0754,-4.0639,-3.9935,0.0,0.0,0.0,0.0,0.0,-3.9296,-3.9423,-3.9509,-4.0181,-4.0353,-4.0389,0.0,0.0,0.0,0.0,0.0,0.0,0.0,-4.0966,-4.1042,0.0,0.0,-4.0986,-4.0882,-4.0781,-4.0677,-4.0562,-4.0508,-4.0489,-4.0489,-3.9873,-3.9469,-3.9469,-3.8796,-3.8334,-3.82,-3.82,-3.8142,-3.8007,-3.8007,-3.8123,-3.8373,-3.9123,-3.9469,-3.9488,-4.0162,-4.0489,-4.0489,-4.0489,-4.0489,-4.0489,-4.0489,-4.0489,-4.0489,-4.0489,-4.0489,-4.0489,-4.0354,-3.9892,-3.9181,-3.8161,-3.7334,-3.6584,0.0,0.0,0.0,0.0,0.0,0.0,0.0,0.0,0.0,0.0,0.0,0.0,0.0,0.0,0.0,0.0,0.0,0.0,0.0,0.0,0.0,0.0,0.0,0.0,0.0,0.0,0.0,0.0,0.0,-4.0447,-4.0804,-4.0804,-4.0804,-4.0804,0.0,-4.0842,-4.09,-4.084,-4.0887,-4.1011,0.0,0.0,0.0,0.0,0.0,0.0,0.0,0.0,0.0,0.0,-4.0502,-4.0095,-3.9716,0.0,0.0,0.0,0.0,0.0,-3.8661,-3.9104,-3.955,-3.9915,-4.0258,-4.0508,0.0,0.0,0.0,0.0,0.0,0.0,0.0,0.0,-4.1134,-4.119,-4.1099,-4.0969,-4.0919,-4.0781,-4.0504,-3.9965,-3.9869,-3.9662,-3.9181,-3.8815,-3.8604,-3.8604,-3.8238,-3.7796,-3.7315,-3.7296,-3.7103,-3.6661,-3.6661,-3.6661,-3.6661,-3.7488,-3.8373,-3.9296,-3.9662,-4.0065,-4.0489,-4.0489,-4.0489,-4.0489,-4.0489,-4.0543,-4.062,-4.062,-4.0639,-4.0658,-4.0658,-4.0408,-3.9888,-3.8507,-3.718,-3.6007,0.0,0.0,0.0,0.0,0.0,0.0,0.0,0.0,0.0,0.0,0.0,0.0,0.0,0.0,0.0,0.0,0.0,0.0,0.0,0.0,0.0,0.0,0.0,0.0,0.0,0.0,-4.0883,-4.0883,-4.0883,-4.0883,-4.0883,-4.0883,-4.0883,-4.0883,0.0,-4.0941,-4.1044,-4.0945,-4.1,-4.1191,0.0,0.0,0.0,0.0,0.0,0.0,0.0,0.0,0.0,0.0,0.0,0.0,0.0,0.0,0.0,-3.7812,-3.773,-3.7785,-3.7945,-3.8479,-3.9083,-3.9507,0.0,-4.06,0.0,0.0,0.0,0.0,0.0,0.0,0.0,-4.1104,0.0,-4.087,-4.0713,-4.0562,-4.0369,-4.0177,-3.9831,-3.9138,-3.9042,-3.8719,-3.8065,-3.7815,-3.77,-3.77,-3.7526,-3.7123,-3.6449,-3.643,-3.6142,-3.5545,-3.5526,-3.5545,-3.5565,-3.6161,-3.7219,-3.87,-3.9104,-3.9623,-4.0219,-4.0412,-4.0489,-4.0489,-4.0543,-4.062,-4.0696,-4.0709,-4.0751,-4.0808,-4.0808,-4.054,-3.9969,-3.8584,-3.7007,-3.5545,0.0,0.0,0.0,0.0,0.0,0.0,0.0,0.0,0.0,0.0,0.0,0.0,0.0,0.0,0.0,0.0,0.0,0.0,0.0,0.0,0.0,0.0,0.0,0.0,0.0,-4.1171,-4.1171,-4.1171,-4.1171,-4.1171,-4.1171,-4.1171,-4.1171,-4.1171,0.0,0.0,0.0,-4.117,-4.1171,-4.119,-4.1053,0.0,0.0,0.0,0.0,0.0,0.0,0.0,0.0,0.0,0.0,0.0,0.0,0.0,-3.7206,-3.6327,-3.6072,-3.622,-3.6904,-3.7129,-3.7576,-3.9194,0.0,0.0,-4.0793,0.0,0.0,0.0,0.0,0.0,0.0,-4.1089,-4.0742,-3.9928,-3.9648,-3.9249,-3.8517,-3.8291,-3.8161,-3.8104,-3.8104,-3.8065,-3.8007,-3.7276,-3.6796,-3.6796,-3.6103,-3.5661,-3.5603,-3.5603,-3.5603,-3.5603,-3.5603,-3.5622,-3.5699,-3.5738,-3.6161,-3.6911,-3.8527,-3.9315,-3.9411,-4.0162,-4.0489,-4.0508,-4.0639,-4.0696,-4.0708,-4.078,-4.0796,-4.0796,-4.0796,-3.9863,-3.8462,-3.8334,-3.718,-3.568,0.0,0.0,0.0,0.0,0.0,0.0,0.0,0.0,0.0,0.0,0.0,0.0,0.0,0.0,0.0,0.0,0.0,0.0,0.0,0.0,0.0,0.0,0.0,-4.1191,-4.1191,-4.1191,-4.1191,-4.1191,-4.1191,-4.1191,-4.1191,-4.1191,0.0,0.0,0.0,0.0,0.0,-4.1038,-4.1035,-4.0944,-4.0897,-4.0875,0.0,0.0,0.0,0.0,0.0,0.0,0.0,0.0,-4.0079,-3.8906,0.0,-3.7559,-3.6426,-3.6074,-3.5957,-3.6015,-3.6296,-3.6777,-3.7345,-3.8004,0.0,0.0,0.0,0.0,0.0,0.0,0.0,0.0,0.0,0.0,-3.9278,-3.894,-3.8758,-3.8556,-3.8248,-3.808,-3.7796,-3.7257,-3.7199,-3.7007,-3.6488,-3.6161,-3.5949,-3.5949,-3.568,-3.5493,-3.5493,-3.5545,-3.5584,-3.5603,-3.5646,-3.5679,-3.5698,-3.5698,-3.5834,-3.6096,-3.7302,-3.8445,-3.9492,-3.98,-4.0219,-4.0696,-4.0735,-4.0812,-4.0885,-4.0913,-4.0974,-4.1033,-4.0955,-3.9876,-3.8351,-3.8316,-3.7201,-3.5698,0.0,0.0,0.0,0.0,0.0,0.0,0.0,0.0,0.0,0.0,0.0,0.0,0.0,0.0,0.0,0.0,0.0,0.0,0.0,0.0,0.0,0.0,0.0,-4.1077,-4.1077,-4.1077,-4.1085,-4.113,-4.1085,-4.1077,-4.1077,0.0,0.0,0.0,0.0,0.0,0.0,-4.0893,-4.088,-4.08,-4.078,-4.0764,0.0,0.0,0.0,0.0,0.0,0.0,0.0,0.0,-3.9723,0.0,0.0,0.0,0.0,-3.5957,-3.5976,-3.5976,-3.5996,-3.6431,-3.6967,0.0,0.0,0.0,0.0,0.0,0.0,0.0,0.0,0.0,0.0,0.0,0.0,-3.7976,-3.7819,-3.7637,-3.7387,-3.7257,-3.6988,-3.6392,-3.6334,-3.6103,-3.5551,-3.5493,-3.5526,-3.5545,-3.5545,-3.5545,-3.5565,-3.5622,-3.5661,-3.5699,-3.5745,-3.5772,-3.5797,-3.5794,-3.5781,-3.5801,-3.6396,-3.7409,-3.8775,-3.9065,-3.9644,-4.041,-4.0434,-4.0658,-4.0997,-4.104,-4.1124,-4.1152,-4.0801,-3.9766,-3.8418,-3.8101,-3.7055,-3.5797,0.0,0.0,0.0,0.0,0.0,0.0,0.0,0.0,0.0,0.0,0.0,0.0,0.0,0.0,0.0,0.0,0.0,0.0,0.0,0.0,0.0,0.0,0.0,-4.0793,-4.0793,-4.0793,-4.0858,-4.0985,-4.0877,-4.0793,-4.0793,-4.0793,0.0,0.0,0.0,0.0,0.0,0.0,-4.0793,-4.0793,-4.0716,-4.0696,-4.0696,0.0,0.0,0.0,0.0,0.0,0.0,0.0,-3.9677,0.0,0.0,0.0,0.0,0.0,-3.5898,-3.5918,-3.5976,-3.5996,-3.6211,0.0,0.0,0.0,0.0,0.0,0.0,0.0,0.0,-3.8534,-3.84,-3.8326,-3.7972,-3.7045,-3.679,-3.6411,-3.5622,-3.5493,-3.5493,-3.5493,-3.5493,-3.5493,-3.5493,-3.5493,-3.5545,-3.5603,-3.5603,-3.5622,-3.5699,-3.5699,-3.5757,-3.5892,-3.5905,-3.5921,-3.5996,-3.5997,-3.6002,-3.6002,-3.6002,-3.6352,-3.7021,-3.7895,-3.8762,-3.9591,-3.9663,-4.0177,-4.0983,-4.1124,-4.1172,-4.1094,-4.0215,-3.9355,-3.8476,-3.7617,-3.6758,-3.5996,0.0,0.0,0.0,0.0,0.0,0.0,0.0,0.0,0.0,0.0,0.0,0.0,0.0,0.0,0.0,0.0,0.0,0.0,0.0,0.0,0.0,0.0,0.0,0.0,0.0,0.0,-4.0775,-4.085,-4.0833,-4.0797,0.0,0.0,0.0,-4.0739,0.0,0.0,0.0,0.0,-4.0677,-4.06,-4.0581,-4.0562,-4.0562,0.0,0.0,0.0,0.0,0.0,0.0,0.0,0.0,0.0,0.0,0.0,0.0,-3.5756,-3.5821,-3.5898,-3.5918,-3.5957,0.0,0.0,0.0,0.0,0.0,0.0,0.0,0.0,-3.7266,-3.7498,-3.684,-3.6662,-3.6516,-3.6227,-3.6084,-3.5911,-3.568,-3.5641,-3.5641,-3.5641,-3.5641,-3.5641,-3.5641,-3.5641,-3.5661,-3.568,-3.5657,-3.5687,-3.5706,-3.5789,-3.5853,-3.5892,-3.5954,-3.5974,-3.5996,-3.5991,-3.6003,-3.6003,-3.6003,-3.6433,-3.7216,-3.7487,-3.8071,-3.8891,-3.8924,-3.9063,-3.9306,-3.9351,-3.9375,-3.9355,-3.9082,-3.8457,-3.7656,-3.7402,-3.6758,-3.5996,0.0,0.0,0.0,0.0,0.0,0.0,0.0,0.0,0.0,0.0,0.0,0.0,0.0,0.0,0.0,0.0,0.0,0.0,0.0,0.0,0.0,0.0,0.0,0.0,0.0,-4.0639,-4.0639,0.0,0.0,0.0,0.0,0.0,0.0,-4.062,0.0,-4.062,0.0,0.0,-4.0581,-4.0489,-4.0489,-4.0489,-4.0489,0.0,0.0,0.0,0.0,0.0,0.0,0.0,0.0,0.0,0.0,0.0,0.0,-3.5661,-3.5737,-3.5836,-3.5895,0.0,0.0,0.0,0.0,0.0,0.0,0.0,0.0,0.0,0.0,-3.6601,-3.6055,-3.5934,-3.5881,-3.5841,-3.5742,-3.5704,-3.5704,-3.5704,-3.5704,-3.5704,-3.5704,-3.5704,-3.5704,-3.5704,-3.5724,-3.579,-3.577,-3.5795,-3.5825,-3.5905,-3.5935,-3.5935,-3.5971,-3.5996,-3.5996,-3.5996,-3.5996,-3.5996,-3.5996,-3.6289,-3.6777,-3.6777,-3.7266,-3.8105,-3.8457,-3.8594,-3.8594,-3.8594,-3.8594,-3.8574,-3.8223,-3.7754,-3.7266,-3.6914,-3.6445,-3.5996,0.0,0.0,0.0,0.0,0.0,0.0,0.0,0.0,0.0,0.0,0.0,0.0,0.0,0.0,0.0,0.0,0.0,0.0,0.0,0.0,0.0,0.0,0.0,0.0,0.0,0.0,0.0,0.0,0.0,0.0,0.0,0.0,-4.0489,-4.0489,0.0,-4.0489,-4.0489,-4.0489,-4.0489,-4.0489,-4.0489,-4.0489,-4.0489,-4.0489,0.0,0.0,0.0,0.0,0.0,0.0,0.0,0.0,0.0,0.0,-3.5526,-3.5584,-3.5641,-3.5724,0.0,0.0,0.0,0.0,0.0,0.0,0.0,0.0,-3.5996,-3.5996,0.0,-3.5976,-3.5918,-3.5918,-3.5873,-3.5752,-3.5729,-3.5729,-3.5729,-3.5729,-3.5729,-3.5729,-3.5729,-3.5729,-3.5729,-3.5729,-3.5776,-3.5893,-3.591,-3.5927,-3.5994,-3.5974,-3.5975,-3.5975,-3.5975,-3.5975,-3.5975,-3.5975,-3.5975,-3.5975,-3.5975,-3.5975,-3.5975,-3.5996,-3.6426,-3.7226,-3.8027,-3.8359,-3.8359,-3.8359,-3.8359,-3.8281,-3.748,-3.7187,-3.709,-3.6289,-3.5996,-3.5996,0.0,0.0,0.0,0.0,0.0,0.0,0.0,0.0,0.0,0.0,0.0,0.0,0.0,0.0,0.0,0.0,0.0,0.0,0.0,0.0,0.0,0.0,0.0,0.0,0.0,0.0,0.0,0.0,0.0,0.0,0.0,0.0,0.0,-4.0489,0.0,-4.0489,-4.0489,-4.0489,-4.0489,-4.0489,-4.0489,-4.0489,-4.0489,-4.0489,-4.0489,0.0,0.0,0.0,0.0,0.0,0.0,0.0,-3.8007,-3.6853,-3.5493,-3.5526,-3.5584,-3.5637,0.0,-3.5837,0.0,0.0,0.0,0.0,0.0,-3.5996,-3.5996,-3.5996,-3.5996,-3.5996,-3.5976,-3.5976,-3.5976,-3.5932,-3.593,-3.593,-3.593,-3.593,-3.593,-3.593,-3.593,-3.593,-3.593,-3.593,-3.5947,-3.5971,-3.5935,-3.5909,-3.5919,-3.5818,-3.5758,-3.5758,-3.5758,-3.5758,-3.5758,-3.5758,-3.5758,-3.5758,-3.5758,-3.5758,-3.5763,-3.593,-3.6094,-3.6289,-3.6484,-3.6562,-3.6562,-3.6562,-3.6562,-3.6543,-3.6348,-3.6289,-3.6269,-3.6074,-3.5996,-3.5996,0.0,0.0,0.0,0.0,0.0,0.0,0.0,0.0,0.0,0.0,0.0,0.0,0.0,0.0,0.0,0.0,0.0,0.0,0.0,0.0,0.0,0.0,0.0,0.0,0.0,0.0,0.0,0.0,0.0,0.0,0.0,0.0,0.0,-4.0489,0.0,-4.0489,-4.0489,-4.0489,-4.0441,-4.0321,-4.0321,-4.0212,-4.0063,-4.0063,-4.0063,-4.0063,-4.0063,0.0,0.0,0.0,0.0,0.0,0.0,0.0,-3.5822,-3.558,-3.5565,-3.5605,0.0,0.0,0.0,0.0,0.0,0.0,0.0,-3.5996,-3.5996,-3.5996,-3.5996,-3.5996,-3.5996,-3.5996,-3.5996,-3.5996,-3.5996,-3.5996,-3.5996,-3.5996,-3.5996,-3.5996,-3.597,-3.595,-3.595,-3.5895,-3.5868,-3.5868,-3.5823,-3.5797,-3.5809,-3.5728,-3.5698,-3.5698,-3.5698,-3.5698,-3.5698,-3.5698,-3.5698,-3.5698,-3.5698,-3.5698,-3.5708,-3.5816,-3.5868,-3.5851,-3.5915,-3.5957,-3.5957,-3.5996,-3.5996,-3.5996,-3.5996,-3.5996,-3.5996,-3.5996,-3.5996,-3.5996,0.0,0.0,0.0,0.0,0.0,0.0,0.0,0.0,0.0,0.0,0.0,0.0,0.0,0.0,0.0,0.0,0.0,0.0,0.0,0.0,0.0,0.0,0.0,0.0,0.0,0.0,-3.951,0.0,0.0,0.0,0.0,0.0,0.0,-4.0353,0.0,-4.0353,-4.0353,-4.0353,-4.0212,-4.0002,-4.0002,-3.9859,-3.9599,-3.9599,-3.9599,-3.9599,-3.9599,-3.9599,-3.9599,-3.9599,0.0,0.0,0.0,0.0,-3.6156,-3.5756,-3.5585,-3.5542,0.0,0.0,0.0,0.0,0.0,0.0,-3.5996,-3.5996,-3.5996,-3.5996,-3.5996,-3.5996,-3.5996,-3.5996,-3.5996,-3.5996,-3.5996,-3.5995,-3.5982,-3.5979,-3.5964,-3.5953,-3.5893,-3.5862,-3.5867,-3.5766,-3.569,-3.569,-3.569,-3.5679,-3.5674,-3.568,-3.568,-3.568,-3.568,-3.568,-3.568,-3.568,-3.568,-3.568,-3.568,-3.568,-3.5674,-3.5679,-3.5671,-3.5698,-3.5814,-3.5872,-3.5898,-3.5957,-3.5996,-3.5996,-3.5996,-3.5996,-3.5996,-3.5996,-3.5996,-3.5996,0.0,0.0,0.0,0.0,0.0,0.0,0.0,0.0,0.0,0.0,0.0,0.0,0.0,0.0,0.0,0.0,0.0,0.0,-3.7524,0.0,0.0,-3.8092,-3.8125,-3.8323,0.0,0.0,-3.9178,0.0,0.0,0.0,0.0,0.0,0.0,-3.9735,0.0,0.0,0.0,-3.9735,-3.969,-3.9668,-3.9668,-3.9645,-3.9599,-3.9599,-3.9599,-3.9599,-3.9599,-3.9599,-3.9599,-3.9599,-3.901,0.0,0.0,0.0,-3.5984,-3.6138,-3.5711,-3.5226,0.0,0.0,0.0,0.0,0.0,0.0,0.0,0.0,-3.5996,0.0,-3.5996,-3.5996,-3.5996,-3.5996,-3.5996,-3.5996,-3.5996,-3.5974,-3.5908,-3.5917,-3.5871,-3.5743,-3.5735,-3.5727,-3.5726,-3.5701,-3.5689,-3.5689,-3.565,-3.5618,-3.5603,-3.5565,-3.5545,-3.5545,-3.5545,-3.5545,-3.5545,-3.5545,-3.5545,-3.5545,-3.5545,-3.5545,-3.5526,-3.5528,-3.5592,-3.5689,-3.5719,-3.5799,-3.5898,-3.5918,-3.5957,-3.5996,-3.5996,-3.5996,-3.5996,-3.5996,-3.5996,-3.5996,0.0,0.0,0.0,0.0,0.0,0.0,0.0,0.0,0.0,0.0,0.0,0.0,0.0,0.0,0.0,-3.721,-3.719,-3.719,-3.719,-3.719,-3.7285,-3.7506,-3.7506,-3.7632,-3.7861,0.0,0.0,0.0,0.0,0.0,0.0,-3.9119,-3.9294,0.0,0.0,0.0,0.0,0.0,-3.9486,-3.9314,-3.9314,-3.9223,-3.9119,-3.9119,-3.9119,-3.9119,-3.9119,-3.9119,-3.9119,-3.9119,-3.8831,-3.8486,-3.8165,0.0,0.0,0.0,-3.5609,-3.5174,-3.5451,0.0,0.0,0.0,0.0,0.0,-3.5937,0.0,-3.5996,-3.5996,-3.5996,-3.5996,-3.5996,-3.5996,-3.5987,-3.5956,-3.5939,-3.5915,-3.5805,-3.5789,-3.5772,-3.5704,-3.5667,-3.5651,-3.5636,-3.5622,-3.5603,-3.5603,-3.5565,-3.5545,-3.5545,-3.5526,-3.5493,-3.5493,-3.5493,-3.5493,-3.5493,-3.5493,-3.5493,-3.5493,-3.5493,-3.5493,-3.5493,-3.5493,-3.5545,-3.5603,-3.5641,-3.567,-3.5733,-3.5768,-3.5845,-3.5937,-3.5937,-3.5976,-3.5996,-3.5996,-3.5996,-3.5996,0.0,0.0,0.0,0.0,0.0,0.0,0.0,0.0,0.0,0.0,0.0,0.0,0.0,0.0,0.0,0.0,-3.6786,-3.6786,-3.6786,-3.6786,-3.6865,-3.6981,-3.6999,-3.7076,-3.719,0.0,0.0,0.0,0.0,0.0,-3.8515,-3.8515,-3.8807,0.0,-3.9377,0.0,0.0,0.0,0.0,0.0,-3.8999,-3.8884,-3.8707,-3.8707,-3.8707,-3.8707,-3.8707,-3.8707,-3.8707,-3.8707,-3.8707,-3.8628,-3.8238,-3.7561,0.0,0.0,0.0,-3.5138,0.0,0.0,0.0,0.0,0.0,0.0,0.0,0.0,-3.5996,-3.5996,-3.5996,-3.5995,-3.5988,-3.5962,-3.5953,-3.5858,-3.5862,-3.581,-3.5697,-3.567,-3.568,-3.5661,-3.5622,-3.5537,-3.5475,-3.5436,-3.5369,-3.5304,-3.5289,-3.5289,-3.5289,-3.5289,-3.5289,-3.5289,-3.5289,-3.532,-3.5403,-3.5479,-3.5479,-3.5398,-3.5479,-3.5493,-3.5493,-3.5493,-3.5493,-3.5493,-3.5565,-3.5584,-3.5597,-3.565,-3.5736,-3.5848,-3.5896,-3.5937,-3.5976,-3.5996,-3.5996,-3.5996,0.0,0.0,0.0,0.0,0.0,0.0,0.0,0.0,0.0,0.0,0.0,0.0,-3.7248,-3.6316,-3.5694,-3.5694,-3.5694,-3.5694,-3.5694,-3.5694,-3.5898,-3.6416,-3.6457,0.0,-3.7173,0.0,0.0,0.0,0.0,0.0,-3.7946,-3.7946,-3.8249,-3.875,-3.875,-3.875,-3.875,0.0,0.0,0.0,0.0,-3.8719,0.0,-3.8707,-3.8707,-3.8707,-3.8707,-3.8707,-3.8707,-3.8707,-3.8707,-3.8707,-3.8683,-3.8113,-3.7356,0.0,0.0,0.0,0.0,0.0,0.0,0.0,0.0,0.0,0.0,0.0,-3.5996,-3.5996,-3.5996,-3.5974,-3.5933,-3.5907,-3.5871,-3.5718,-3.5715,-3.568,-3.563,-3.5617,-3.5584,-3.5526,-3.5526,-3.5417,-3.5157,-3.5122,-3.5035,-3.4754,-3.4734,-3.4734,-3.4734,-3.4734,-3.4734,-3.4734,-3.4734,-3.4851,-3.5122,-3.5369,-3.5369,-3.5122,-3.5383,-3.5493,-3.5493,-3.5493,-3.5493,-3.5493,-3.5493,-3.5545,-3.5603,-3.5597,-3.5663,-3.5719,-3.5845,-3.5898,-3.5918,-3.5976,-3.5996,-3.5996,0.0,0.0,0.0,0.0,0.0,0.0,0.0,0.0,0.0,0.0,0.0,0.0,0.0,-3.6563,-3.5968,-3.5622,-3.5622,-3.5622,-3.5622,-3.5622,-3.5711,-3.5898,-3.5898,-3.5985,-3.6165,0.0,0.0,0.0,0.0,-3.6943,-3.7433,-3.7433,-3.7542,-3.7756,-3.8401,-3.8707,-3.8707,-3.8707,0.0,0.0,0.0,0.0,0.0,0.0,0.0,-3.8707,-3.8707,-3.8707,-3.8707,-3.8707,-3.8707,-3.8707,-3.8707,-3.8138,-3.7319,-3.6427,-3.5683,-3.5138,0.0,0.0,0.0,0.0,0.0,-3.5662,-3.5741,-3.5867,-3.5957,-3.5996,-3.5973,-3.59,-3.5785,-3.5852,-3.5836,-3.567,-3.5504,-3.5362,-3.5296,-3.5143,-3.5,-3.4981,-3.4981,-3.4944,-3.4851,-3.4832,-3.4793,-3.4694,-3.4694,-3.4694,-3.4694,-3.4694,-3.4694,-3.4694,-3.4694,-3.4753,-3.4832,-3.4944,-3.4944,-3.4851,-3.5122,-3.5239,-3.5239,-3.5432,-3.5493,-3.5493,-3.5493,-3.5526,-3.5545,-3.5545,-3.5584,-3.5649,-3.5698,-3.5735,-3.5767,-3.5806,-3.586,-3.5937,0.0,0.0,0.0,0.0,0.0,0.0,0.0,0.0,0.0,0.0,0.0,0.0,0.0,0.0,-3.5985,-3.5622,-3.5622,-3.5622,-3.5622,-3.5622,-3.5622,-3.5622,-3.5622,-3.5622,-3.5622,0.0,0.0,0.0,0.0,0.0,0.0,-3.6921,-3.7038,-3.7228,-3.7913,-3.8267,0.0,0.0,0.0,-3.8707,0.0,0.0,-3.8707,0.0,-3.8707,-3.8707,-3.8707,-3.8707,-3.8707,-3.8707,-3.8707,-3.8707,-3.8707,-3.821,-3.7433,-3.6456,-3.5853,-3.5482,-3.5396,0.0,0.0,0.0,0.0,-3.5618,-3.5679,-3.5802,-3.5918,-3.5996,-3.5954,-3.5894,-3.5718,-3.5774,-3.5743,-3.5479,-3.5269,-3.5113,-3.4982,-3.4813,-3.4694,-3.4694,-3.4694,-3.4653,-3.4551,-3.4405,-3.436,-3.4375,-3.4288,-3.4265,-3.4375,-3.4416,-3.4416,-3.4416,-3.4486,-3.4486,-3.4416,-3.4591,-3.4653,-3.4529,-3.4832,-3.4999,-3.5105,-3.5289,-3.5398,-3.5493,-3.5493,-3.5493,-3.5493,-3.5493,-3.5545,-3.5584,-3.5603,-3.5628,-3.5678,-3.5697,-3.5767,-3.5849,0.0,0.0,0.0,0.0,0.0,0.0,0.0,0.0,0.0,0.0,0.0,0.0,0.0,0.0,0.0,-3.5622,-3.5622,-3.5622,-3.5622,-3.5622,-3.5622,-3.5622,-3.5622,-3.5622,-3.5622,0.0,0.0,0.0,0.0,0.0,0.0,0.0,-3.6643,-3.7135,-3.719,-3.7433,-3.7893,0.0,-3.8676,-3.8707,0.0,-3.8707,-3.8707,0.0,-3.8707,-3.8707,-3.8707,-3.8707,-3.8707,-3.8707,-3.8707,-3.8707,-3.8707,-3.8329,-3.7739,-3.6931,-3.6519,0.0,0.0,0.0,0.0,0.0,0.0,0.0,-3.568,-3.5807,-3.5918,-3.5976,-3.6008,-3.5951,-3.5732,-3.5699,-3.5585,-3.5176,-3.5105,-3.4999,-3.4734,-3.4694,-3.4674,-3.4674,-3.4674,-3.4551,-3.42,-3.3806,-3.366,-3.3788,-3.3437,-3.3379,-3.378,-3.3807,-3.3807,-3.3807,-3.4068,-3.4068,-3.3788,-3.4375,-3.4508,-3.4176,-3.4529,-3.4813,-3.5069,-3.5088,-3.5239,-3.5493,-3.5493,-3.5493,-3.5493,-3.5493,-3.5493,-3.5526,-3.5584,-3.5603,-3.5603,-3.568,-3.5699,-3.5714,0.0,0.0,0.0,0.0,0.0,0.0,0.0,0.0,0.0,0.0,0.0,0.0,0.0,-3.6232,-3.5622,-3.5622,-3.5622,-3.5622,-3.5622,-3.5622,-3.5622,-3.5622,-3.5622,-3.5622,-3.5622,0.0,0.0,0.0,0.0,0.0,0.0,0.0,0.0,0.0,-3.6865,-3.7058,-3.6865,-3.7755,0.0,-3.8707,-3.8707,-3.8707,0.0,-3.8707,-3.8707,-3.8707,-3.8707,-3.8707,-3.8707,-3.8707,-3.8707,-3.8707,-3.8707,0.0,0.0,-3.7159,0.0,0.0,-3.555,0.0,0.0,0.0,0.0,0.0,-3.5622,-3.5688,-3.5795,-3.5897,-3.5925,-3.589,-3.5729,-3.567,-3.5513,-3.5157,-3.5105,-3.4999,-3.4734,-3.4508,-3.4265,-3.4062,-3.4055,-3.4012,-3.3928,-3.3552,-3.3458,-3.378,-3.3437,-3.3379,-3.378,-3.3807,-3.3807,-3.3807,-3.3876,-3.3895,-3.3807,-3.3954,-3.3986,-3.391,-3.4195,-3.4379,-3.447,-3.4907,-3.5138,-3.5223,-3.5417,-3.5493,-3.5493,-3.5493,-3.5493,-3.5493,-3.5526,-3.5545,-3.5545,-3.5565,-3.5603,-3.563,0.0,0.0,0.0,0.0,0.0,0.0,0.0,0.0,0.0,0.0,0.0,0.0,0.0,0.0,-3.5854,-3.5622,-3.5622,-3.5622,-3.5622,-3.5622,-3.5622,-3.5622,-3.5622,-3.5622,-3.5622,0.0,0.0,0.0,0.0,0.0,0.0,0.0,0.0,0.0,0.0,0.0,0.0,0.0,0.0,0.0,-3.8285,0.0,-3.8382,-3.8627,-3.8707,-3.8707,-3.8707,-3.8707,-3.8707,-3.8707,-3.8707,-3.8707,-3.8707,-3.8348,0.0,0.0,0.0,0.0,0.0,0.0,0.0,0.0,0.0,0.0,-3.5584,-3.5659,-3.5737,-3.5873,-3.5918,-3.5912,-3.5794,-3.5706,-3.5561,-3.5327,-3.5293,-3.5122,-3.4754,-3.4401,-3.4147,-3.3986,-3.385,-3.3807,-3.3807,-3.3255,-3.3166,-3.3762,-3.3273,-3.3166,-3.3762,-3.3807,-3.3807,-3.3807,-3.3807,-3.3807,-3.3807,-3.3807,-3.3807,-3.3788,-3.3961,-3.4074,-3.42,-3.4555,-3.4851,-3.5105,-3.5273,-3.5403,-3.5493,-3.5493,-3.5493,-3.5493,-3.5493,-3.5493,-3.5493,-3.5493,-3.5526,-3.5565,0.0,0.0,0.0,0.0,0.0,0.0,0.0,0.0,0.0,0.0,0.0,0.0,0.0,0.0,0.0,-3.5667,-3.5622,-3.5622,-3.5622,-3.5622,-3.5622,-3.5622,-3.5622,-3.5622,-3.5622,-3.5622,0.0,0.0,0.0,0.0,0.0,0.0,0.0,0.0,0.0,0.0,0.0,0.0,0.0,-3.7266,-3.7773,-3.798,-3.8032,-3.8515,-3.8707,-3.8707,-3.8707,-3.8707,-3.8707,-3.8707,-3.8652,-3.8579,-3.8579,-3.8172,-3.7556,-3.6801,-3.6421,0.0,0.0,0.0,0.0,-3.5493,-3.5493,0.0,-3.5584,-3.5641,-3.572,-3.5837,-3.5937,-3.5972,-3.5894,-3.5785,-3.5699,-3.5622,-3.5565,-3.5339,-3.4832,-3.4467,-3.4246,-3.42,-3.3961,-3.3807,-3.3807,-3.3057,-3.2934,-3.3734,-3.3087,-3.2965,-3.3707,-3.3734,-3.3707,-3.368,-3.368,-3.368,-3.3734,-3.3734,-3.3762,-3.3807,-3.3807,-3.391,-3.4171,-3.4195,-3.4513,-3.507,-3.5088,-3.5239,-3.5493,-3.5493,-3.5493,-3.5493,-3.5493,-3.5493,-3.5493,-3.5493,-3.5493,-3.5526,-3.9212,0.0,0.0,0.0,0.0,0.0,0.0,0.0,0.0,0.0,0.0,0.0,0.0,0.0,0.0,-3.5667,-3.5622,-3.5622,-3.5622,-3.5622,-3.5622,-3.5622,-3.5622,-3.5622,-3.5622,-3.5622,0.0,0.0,0.0,0.0,0.0,0.0,0.0,0.0,0.0,0.0,0.0,0.0,0.0,-3.7303,-3.8168,-3.8546,-3.8546,-3.8658,-3.8707,-3.8707,-3.8707,-3.8707,-3.8707,-3.8707,-3.8267,-3.7716,-3.7716,-3.7224,-3.6491,-3.5913,-3.5856,-3.5854,-3.5262,-3.5289,-3.5493,-3.5493,-3.5493,0.0,-3.5526,-3.5584,-3.5637,-3.5663,-3.5806,-3.5878,-3.5757,-3.5799,-3.5795,-3.5641,-3.5603,-3.5441,-3.507,-3.4774,-3.4508,-3.4223,-3.3961,-3.3807,-3.3807,-3.3361,-3.3273,-3.3762,-3.3634,-3.3476,-3.3332,-3.3302,-3.3136,-3.2777,-3.2745,-3.2952,-3.3302,-3.3302,-3.3494,-3.3807,-3.3807,-3.3815,-3.3876,-3.4099,-3.4423,-3.4774,-3.4999,-3.5239,-3.5493,-3.5493,-3.5493,-3.5493,-3.5493,-3.5493,-3.5493,-3.5493,-3.5493,-3.5493,-3.9457,0.0,0.0,0.0,0.0,0.0,0.0,0.0,0.0,0.0,0.0,0.0,0.0,0.0,0.0,0.0,-3.5622,-3.5622,-3.5622,-3.5622,-3.5622,-3.5622,-3.5622,-3.5622,-3.5622,-3.5622,-3.5622,0.0,0.0,0.0,0.0,0.0,0.0,0.0,0.0,0.0,0.0,0.0,-3.815,-3.7982,-3.8201,-3.83,-3.8332,-3.8596,-3.8707,-3.8707,-3.8707,-3.8707,-3.8634,-3.823,-3.7826,-3.7422,-3.7019,-3.6321,-3.5597,-3.5346,-3.5163,-3.5036,-3.4926,-3.5105,-3.532,-3.5479,-3.5493,0.0,0.0,-3.5565,-3.5592,-3.5608,-3.5756,-3.5889,-3.5818,-3.5857,-3.5868,-3.5772,-3.568,-3.5542,-3.5377,-3.5089,-3.4793,-3.4486,-3.4171,-3.3935,-3.3815,-3.3437,-3.3273,-3.3494,-3.3494,-3.3419,-3.3214,-3.2983,-3.2745,-3.2517,-3.2484,-3.2616,-3.284,-3.3075,-3.3302,-3.3494,-3.3707,-3.3807,-3.3788,-3.3935,-3.4165,-3.4486,-3.4774,-3.5034,-3.5304,-3.5446,-3.5493,-3.5493,-3.5493,-3.5493,-3.5493,-3.5493,-3.5493,-3.5493,-3.9668,0.0,0.0,0.0,0.0,0.0,0.0,0.0,0.0,0.0,0.0,0.0,0.0,0.0,0.0,0.0,0.0,-3.5622,-3.5622,-3.5622,-3.5622,-3.5622,-3.5694,-3.5739,-3.5739,-3.5854,-3.5898,-3.5898,0.0,0.0,0.0,0.0,0.0,0.0,0.0,0.0,0.0,0.0,0.0,-3.8658,-3.8216,-3.8047,-3.8099,-3.8546,-3.8707,-3.8707,-3.8707,-3.8597,-3.8377,-3.7716,-3.7276,-3.6909,-3.6248,-3.5459,-3.4752,-3.4752,-3.4504,-3.4246,-3.4529,-3.4851,-3.5138,-3.5369,-3.546,-3.5493,0.0,0.0,0.0,-3.5584,-3.5718,-3.5847,-3.5854,-3.5878,-3.5901,-3.5902,-3.5772,-3.5641,-3.5622,-3.5362,-3.507,-3.4734,-3.4401,-3.4074,-3.3815,-3.3437,-3.3243,-3.3302,-3.3243,-3.3154,-3.3075,-3.2713,-3.2417,-3.2248,-3.2248,-3.2282,-3.2366,-3.2745,-3.2983,-3.3075,-3.3494,-3.368,-3.368,-3.3762,-3.3935,-3.4223,-3.4551,-3.4851,-3.5122,-3.5383,-3.5493,-3.5493,-3.5493,-3.5493,-3.5493,-3.5493,-3.5493,-3.5493,-3.9712,-3.9576,0.0,0.0,0.0,0.0,0.0,0.0,0.0,0.0,0.0,0.0,0.0,0.0,0.0,0.0,-3.5622,-3.5622,-3.5622,-3.5622,-3.5622,-3.5622,-3.6071,-3.6291,-3.6291,-3.6746,-3.702,-3.702,0.0,0.0,0.0,0.0,0.0,0.0,-3.8596,0.0,0.0,0.0,-3.8707,-3.8707,-3.8627,-3.8627,-3.8627,-3.8676,-3.8707,-3.8707,-3.8707,-3.823,-3.7606,-3.7544,-3.6505,-3.5265,-3.5174,-3.4596,-3.3935,-3.3935,-3.406,-3.42,-3.4265,-3.4676,-3.5105,-3.5138,-3.532,-3.5493,-3.5493,0.0,-3.5526,-3.5526,0.0,-3.5642,-3.5716,0.0,0.0,-3.5893,-3.5888,-3.5795,-3.5641,-3.5556,-3.5331,-3.4773,-3.4401,-3.4074,-3.3815,-3.3437,-3.3332,-3.3707,-3.339,-3.3014,-3.2616,-3.2517,-3.2162,-3.1351,-3.1368,-3.1507,-3.1897,-3.1915,-3.2161,-3.2583,-3.3045,-3.3273,-3.3273,-3.3652,-3.3935,-3.4223,-3.4551,-3.4851,-3.5122,-3.5383,-3.5493,-3.5493,-3.5493,-3.5493,-3.5493,-3.5493,-3.5493,-3.5493,-3.9712,-3.9599,0.0,0.0,0.0,0.0,0.0,0.0,0.0,0.0,0.0,0.0,0.0,0.0,0.0,0.0,-3.6054,-3.6054,-3.6054,-3.6374,0.0,-3.6522,-3.6746,-3.6865,-3.6865,-3.7058,-3.719,-3.719,-3.719,0.0,0.0,0.0,0.0,0.0,-3.8707,0.0,-3.8707,0.0,-3.8707,-3.8707,-3.8707,-3.8707,-3.8707,-3.8707,-3.8707,-3.8707,-3.8707,-3.8175,-3.7422,-3.6945,-3.6009,-3.4917,-3.4468,-3.4082,-3.3807,-3.3807,-3.3986,-3.42,-3.42,-3.4636,-3.5105,-3.5105,-3.5304,-3.5493,-3.5493,-3.5493,-3.5493,-3.5493,0.0,0.0,0.0,0.0,0.0,0.0,-3.5907,-3.5862,-3.5791,-3.568,-3.5426,-3.5,-3.4675,-3.4307,-3.3842,-3.3652,-3.3606,-3.3807,-3.3437,-3.3105,-3.2921,-3.2648,-3.2213,-3.1565,-3.1545,-3.164,-3.1789,-3.2057,-3.2433,-3.2921,-3.3332,-3.355,-3.355,-3.3734,-3.385,-3.4012,-3.4486,-3.4754,-3.4908,-3.5339,-3.5493,-3.5493,-3.5493,-3.5493,-3.5493,-3.5493,-3.5493,-3.5493,-3.984,0.0,0.0,0.0,0.0,0.0,0.0,0.0,0.0,0.0,0.0,0.0,-3.7946,-3.747,-3.702,-3.6643,-3.6603,-3.6603,-3.6603,-3.6981,-3.719,-3.719,-3.7323,-3.7396,-3.7396,-3.7524,-3.7596,-3.7596,0.0,0.0,0.0,0.0,0.0,0.0,0.0,-3.8707,-3.8707,0.0,-3.8707,-3.8707,-3.8707,-3.8707,-3.8707,-3.8707,-3.8707,-3.867,-3.845,-3.7845,-3.7037,-3.6211,-3.5385,-3.4578,-3.399,-3.3807,-3.3807,-3.3807,-3.3986,-3.42,-3.42,-3.4636,-3.5105,-3.5105,-3.5304,-3.5493,-3.5493,-3.5493,-3.5493,-3.5493,-3.5545,0.0,0.0,0.0,-3.5854,-3.5898,0.0,-3.5926,-3.59,-3.5776,-3.5528,-3.5165,-3.487,-3.4526,-3.4087,-3.3858,-3.3805,-3.3902,-3.3476,-3.3214,-3.3214,-3.289,-3.2484,-3.2004,-3.1986,-3.1986,-3.1986,-3.235,-3.2681,-3.3014,-3.3419,-3.3652,-3.3652,-3.3734,-3.3807,-3.3815,-3.4439,-3.4694,-3.4734,-3.5289,-3.5493,-3.5493,-3.5493,-3.5493,-3.5493,-3.5493,-3.5493,-3.5493,-4.0139,-4.0081,0.0,0.0,0.0,0.0,0.0,0.0,-3.8707,-3.8707,-3.8267,-3.7911,-3.7893,-3.747,-3.7173,-3.719,-3.7173,-3.7173,-3.7173,-3.7173,-3.719,-3.719,-3.7649,-3.7859,-3.7859,-3.8382,-3.8658,-3.8658,-3.8658,0.0,0.0,0.0,0.0,0.0,-3.8707,-3.8707,-3.8707,-3.8707,-3.8707,-3.8707,-3.8707,-3.8707,-3.8707,-3.8707,-3.8707,-3.8597,-3.7808,-3.7,-3.6211,-3.5349,-3.4523,-3.3825,-3.3807,-3.3807,-3.3807,-3.3807,-3.3986,-3.42,-3.42,-3.4636,-3.5105,-3.5105,-3.5304,-3.5493,-3.5493,-3.5493,-3.5493,-3.5493,-3.5493,-3.5526,-3.5603,-3.5655,-3.5755,-3.5873,-3.5957,0.0,0.0,-3.5892,-3.5718,-3.5249,-3.4902,-3.4694,-3.4674,-3.4024,-3.3781,-3.4152,-3.3561,-3.3214,-3.3214,-3.3184,-3.2952,-3.2484,-3.2484,-3.2484,-3.2484,-3.2484,-3.2517,-3.2517,-3.3014,-3.3214,-3.3243,-3.3606,-3.3807,-3.3815,-3.4439,-3.4694,-3.4734,-3.5289,-3.5493,-3.5493,-3.5493,-3.5493,-3.5493,-3.5493,-3.5493,-3.5493,-4.0372,0.0,0.0,0.0,0.0,0.0,-3.8719,-3.8707,-3.8707,-3.8707,-3.8546,-3.8433,-3.8433,-3.7964,-3.7649,-3.7649,-3.7649,-3.7649,-3.7649,-3.8016,-3.8201,-3.8201,-3.835,-3.8433,-3.8433,-3.8627,-3.8707,-3.8707,-3.8707,0.0,0.0,0.0,0.0,0.0,0.0,-3.8707,0.0,0.0,0.0,-3.8707,-3.8707,-3.8707,-3.8707,-3.8707,-3.8707,-3.8597,-3.7771,-3.6964,-3.6174,-3.5284,-3.4486,-3.3807,-3.3807,-3.3807,-3.3842,-3.4018,-3.4307,-3.4529,-3.4529,-3.4944,-3.532,-3.5138,-3.5304,-3.5493,-3.5493,-3.5493,-3.5493,-3.5493,-3.5493,-3.5526,-3.5545,-3.5603,-3.5659,-3.5752,-3.5868,-3.5934,0.0,-3.5921,-3.5795,-3.5493,-3.5171,-3.4889,-3.4714,-3.447,-3.4364,-3.4529,-3.4315,-3.4104,-3.388,-3.388,-3.3588,-3.2983,-3.2952,-3.2952,-3.2952,-3.2952,-3.3105,-3.3343,-3.3522,-3.3606,-3.3606,-3.3734,-3.3807,-3.3815,-3.4439,-3.4694,-3.4734,-3.5289,-3.5493,-3.5493,-3.5493,-3.5493,-3.5493,-3.5493,-3.5493,-3.5493,-4.0489,0.0,0.0,0.0,0.0,0.0,-3.8707,-3.8707,-3.8707,-3.8707,-3.8707,-3.8707,-3.8707,-3.8382,-3.8183,-3.8183,-3.8183,-3.8183,-3.8183,-3.8496,-3.8707,-3.8707,-3.8707,-3.8707,-3.8707,-3.8707,-3.8707,-3.8707,-3.8707,-3.8707,0.0,0.0,0.0,0.0,0.0,-3.8707,-3.8707,-3.8707,-3.8707,-3.8707,-3.8707,-3.8707,-3.8707,-3.8707,-3.8707,-3.856,-3.7459,-3.6725,-3.6119,-3.4963,-3.4229,-3.3815,-3.3928,-3.3935,-3.4012,-3.4288,-3.4614,-3.4832,-3.4832,-3.5155,-3.5446,-3.5289,-3.5369,-3.5493,-3.5493,-3.5493,-3.5493,-3.5493,-3.5493,-3.5493,-3.5493,-3.5565,-3.5612,-3.5699,-3.581,-3.5918,0.0,-3.5938,-3.5853,-3.5726,-3.545,-3.5209,-3.4999,-3.4908,-3.4832,-3.4832,-3.4754,-3.4612,-3.4379,-3.4246,-3.4006,-3.3561,-3.3458,-3.3419,-3.3419,-3.3419,-3.355,-3.3807,-3.3807,-3.3807,-3.3807,-3.3807,-3.3868,-3.3961,-3.4464,-3.4754,-3.4889,-3.532,-3.5493,-3.5493,-3.5493,-3.5493,-3.5493,-3.5493,-3.5493,-3.5493,-4.0489,-4.0267,0.0,0.0,-3.91,-3.8738,-3.8707,-3.8707,-3.8707,-3.8707,-3.8707,-3.8707,-3.8707,-3.8707,-3.8707,-3.8707,-3.8707,-3.8707,-3.8707,-3.8707,-3.8707,-3.8707,-3.8707,-3.8707,-3.8707,-3.8707,-3.8707,-3.8707,-3.8707,0.0,0.0,0.0,0.0,0.0,-3.8707,0.0,-3.8707,-3.8707,-3.8707,-3.8707,-3.8707,-3.8707,-3.8707,-3.8707,-3.8707,-3.8487,-3.6872,-3.6332,-3.6056,-3.4385,-3.3815,-3.3876,-3.4147,-3.4223,-3.4288,-3.4614,-3.4908,-3.5105,-3.5122,-3.5304,-3.5493,-3.5493,-3.5493,-3.5493,-3.5493,-3.5493,-3.5493,-3.5493,-3.5493,-3.5493,-3.5493,-3.5565,-3.5622,-3.5699,-3.5813,-3.5937,-3.5996,-3.5957,-3.5907,-3.5905,-3.5726,-3.5603,-3.5526,-3.5273,-3.5122,-3.5122,-3.487,-3.4734,-3.4714,-3.4423,-3.4246,-3.4242,-3.3961,-3.3815,-3.3815,-3.3807,-3.3807,-3.3807,-3.3807,-3.3807,-3.3815,-3.3815,-3.3961,-3.4246,-3.4572,-3.4851,-3.5122,-3.5383,-3.5493,-3.5493,-3.5493,-3.5493,-3.5493,-3.5493,-3.5493,-3.5493,-4.0489,-4.0267,-4.0002,-3.9645,-3.9257,-3.8933,-3.8719,-3.8707,-3.8707,-3.8707,-3.8707,-3.8707,-3.8707,-3.8707,-3.8707,-3.8707,-3.8707,-3.8707,-3.8707,-3.8707,-3.8707,-3.8707,-3.8707,-3.8707,-3.8707,-3.8707,-3.8707,-3.8707,-3.8707,0.0,-3.8707,0.0,0.0,0.0,0.0,-3.8707,-3.8707,-3.8707,-3.8707,-3.8707,-3.8707,-3.8707,-3.8707,-3.8707,-3.8707,-3.8487,-3.6872,-3.6436,-3.6337,-3.4649,-3.426,-3.4483,-3.4551,-3.4572,-3.4614,-3.4907,-3.5053,-3.5138,-3.5335,-3.5446,-3.5493,-3.5493,-3.5493,-3.5493,-3.5493,-3.5493,-3.5493,-3.5493,-3.5493,-3.5493,-3.5493,-3.5526,-3.5565,-3.568,-3.5852,-3.5976,-3.5996,-3.5996,-3.5955,-3.5907,-3.5844,-3.5757,-3.5603,-3.547,-3.5403,-3.5403,-3.532,-3.5207,-3.4999,-3.4907,-3.4774,-3.4572,-3.4265,-3.4117,-3.4117,-3.3902,-3.3807,-3.3807,-3.3807,-3.3902,-3.4117,-3.4117,-3.4265,-3.4593,-3.487,-3.5053,-3.5122,-3.5383,-3.5493,-3.5493,-3.5493,-3.5493,-3.5493,-3.5493,-3.5493,-3.5493,-4.0489,-4.0372,-4.0195,-3.9861,-3.9668,-3.9383,-3.8952,-3.8792,-3.8707,-3.8707,-3.8707,-3.8707,-3.8707,-3.8707,-3.8707,-3.8707,-3.8707,-3.8707,-3.8707,-3.8707,-3.8707,-3.8707,-3.8707,-3.8707,-3.8707,-3.8707,-3.8707,-3.8707,-3.8707,0.0,-3.8707,0.0,0.0,0.0,0.0,-3.8707,-3.8707,-3.8707,-3.8707,-3.8707,-3.8707,-3.8707,0.0,-3.8707,-3.8707,-3.8517,-3.7007,-3.6589,-3.6491,-3.4918,-3.4551,-3.4714,-3.4851,-3.487,-3.4926,-3.5207,-3.5254,-3.5304,-3.5446,-3.5493,-3.5493,-3.5493,-3.5493,-3.5493,-3.5493,-3.5493,-3.5493,-3.5493,-3.5526,-3.5545,-3.5545,-3.5584,-3.5641,-3.5776,-3.5911,-3.5996,-3.5996,-3.5996,-3.5996,-3.5957,-3.5914,-3.5863,-3.5746,-3.5622,-3.5545,-3.5493,-3.5493,-3.5432,-3.5289,-3.5155,-3.5016,-3.4889,-3.4593,-3.4423,-3.4423,-3.426,-3.4184,-3.4184,-3.4184,-3.426,-3.4423,-3.4423,-3.4593,-3.487,-3.5034,-3.5174,-3.5289,-3.5432,-3.5493,-3.5493,-3.5493,-3.5493,-3.5493,-3.5493,-3.5493,-3.5493,-4.0489,-4.0489,-4.0441,-4.0195,-4.012,-3.9901,-3.9314,-3.8952,-3.8762,-3.8762,-3.8719,-3.8707,-3.8707,-3.8707,-3.8707,-3.8707,-3.8707,-3.8707,-3.8707,-3.875,-3.8762,-3.8762,-3.8792,-3.8822,-3.8822,-3.8822,-3.8822,-3.8822,-3.8822,0.0,0.0,0.0,0.0,0.0,0.0,0.0,0.0,-3.8719,-3.8707,-3.8707,-3.8707,-3.8707,-3.8707,-3.875,-3.8762,-3.8589,-3.7415,-3.6883,-3.6547,-3.5197,-3.4793,-3.4851,-3.5088,-3.5138,-3.5207,-3.5432,-3.5493,-3.5493,-3.5493,-3.5493,-3.5493,-3.5493,-3.5493,-3.5493,-3.5493,-3.5493,-3.5493,-3.5526,-3.5565,-3.5597,-3.5599,-3.5669,-3.5757,-3.5872,-3.5969,-3.5996,-3.5996,-3.5996,-3.5996,-3.5996,-3.5957,0.0,-3.5905,-3.5734,-3.5603,-3.5526,-3.5526,-3.5526,-3.5493,-3.5289,-3.5138,-3.5138,-3.4889,-3.4754,-3.4754,-3.4714,-3.4694,-3.4694,-3.4694,-3.4714,-3.4754,-3.4754,-3.4908,-3.5138,-3.5157,-3.5308,-3.5526,-3.5526,-3.5545,-3.5545,-3.5545,-3.5545,-3.5545,-3.5545,-3.5545,-3.5526,-4.0489,-4.0489,0.0,-4.0441,-4.0251,-4.0061,-3.9943,-3.9408,-3.9036,-3.9036,-3.8844,-3.8707,-3.8707,-3.8707,-3.8707,-3.8707,-3.8707,-3.8707,-3.8707,-3.8894,-3.9036,-3.9036,-3.9282,-3.9432,-3.9432,-3.9432,-3.9432,-3.9432,-3.9432,-3.9432,0.0,0.0,0.0,0.0,0.0,0.0,-3.9027,-3.8803,-3.8707,-3.8707,-3.8707,-3.8707,-3.8719,-3.8933,-3.9036,-3.8987,-3.8572,-3.7818,-3.6832,-3.5477,-3.519,-3.5369,-3.5417,-3.5432,-3.5446,-3.5493,-3.5493,-3.5493,-3.5493,-3.5493,-3.5493,-3.5493,-3.5493,-3.5493,-3.5493,-3.5493,-3.5526,-3.5584,-3.5603,-3.5618,-3.5676,-3.5789,-3.5872,-3.5892,-3.5969,-3.5996,-3.5996,-3.5996,-3.5996,-3.5996,-3.5996,-3.5956,-3.5903,-3.5766,-3.5661,-3.5603,-3.5584,-3.5565,-3.5493,-3.5446,-3.5432,-3.5432,-3.5174,-3.5016,-3.5016,-3.4793,-3.4694,-3.4694,-3.4694,-3.4832,-3.5016,-3.5016,-3.519,-3.5432,-3.5489,-3.5537,-3.5603,-3.5641,-3.5661,-3.5661,-3.5661,-3.5661,-3.5661,-3.5661,-3.5661,-3.5661,-4.0489,0.0,0.0,0.0,-4.0389,-4.0321,-4.0321,-3.9924,-3.9552,-3.9364,-3.9109,-3.8894,-3.8894,-3.8894,-3.8894,-3.8894,-3.9073,-3.9181,-3.9181,-3.9301,-3.9364,-3.9364,-3.951,-3.9599,-3.9599,-3.9599,-3.9599,-3.9599,-3.9599,-3.9599,-3.9599,-3.9599,0.0,0.0,0.0,-3.951,0.0,-3.9216,-3.9181,-3.9181,-3.9181,-3.9181,-3.9163,-3.9308,-3.9364,-3.9301,-3.8933,-3.8156,-3.7185,-3.6239,-3.5729,-3.5493,-3.5493,-3.5493,-3.5493,-3.5493,-3.5493,-3.5493,-3.5493,-3.5493,-3.5493,-3.5493,-3.5493,-3.5493,-3.5493,-3.5545,-3.5565,-3.5603,-3.568,-3.5774,-3.5836,-3.5899,-3.5944,-3.5944,-3.5971,-3.5996,-3.5996,-3.6387,-3.668,-3.668,-3.707,-3.7344,-3.7305,-3.7238,-3.6771,-3.5728,-3.5649,-3.5622,-3.5565,-3.5565,-3.5545,-3.5493,-3.5407,-3.5362,-3.5362,-3.5267,-3.5217,-3.5217,-3.5217,-3.5286,-3.54,-3.54,-3.5479,-3.5622,-3.5641,-3.5649,-3.5659,-3.5698,-3.5698,-3.5698,-3.5698,-3.5698,-3.5698,-3.5698,-3.5736,-3.5784,-4.0777,-4.0623,0.0,-4.0489,-4.0489,-4.0489,-4.0489,-4.0321,-4.0062,-3.9754,-3.9414,-3.9231,-3.9231,-3.9231,-3.9231,-3.9231,-3.9457,-3.9599,-3.9599,-3.9668,-3.9709,-3.9709,-3.9757,-3.98,-3.98,-3.98,-3.98,-3.98,-3.98,-3.98,-3.98,-3.98,-3.98,0.0,0.0,-3.9709,-3.969,-3.9622,-3.9599,-3.9599,-3.9599,-3.9599,-3.9599,-3.9668,-3.9709,-3.9659,-3.93,-3.861,-3.7787,-3.7179,-3.6334,-3.5493,-3.5493,-3.5493,-3.5493,-3.5493,-3.5493,-3.5493,-3.5493,-3.5493,-3.5493,-3.5493,-3.5493,-3.5493,-3.5526,-3.5565,-3.5622,-3.5661,-3.5797,-3.5937,-3.5991,-3.5996,-3.6055,-3.625,-3.6289,-3.6348,-3.6523,-3.7148,-3.7578,-3.7578,-3.8184,-3.8594,-3.8594,-3.8594,-3.7963,-3.6431,-3.6123,-3.5983,-3.5893,-3.572,-3.5603,-3.5545,-3.5603,-3.5611,-3.5611,-3.5669,-3.5688,-3.5688,-3.5688,-3.5688,-3.5688,-3.5688,-3.5688,-3.5707,-3.5726,-3.5745,-3.5758,-3.5758,-3.5758,-3.5758,-3.5758,-3.5758,-3.5752,-3.5756,-3.5834,-3.5913,-4.1681,0.0,-4.0489,-4.0489,-4.0489,-4.0489,-4.0489,-4.0473,-4.0372,-4.0101,-3.9775,-3.9552,-3.9552,-3.9552,-3.9552,-3.9552,-3.9576,-3.9599,-3.9599,-3.988,-4.0042,-4.0042,-4.0285,-4.0422,-4.0422,-4.0422,-4.0422,-4.0422,-4.0422,-4.0422,-4.0422,-4.0422,-4.0422,-4.0406,-4.0157,-4.0042,-4.0022,-3.9731,-3.9599,-3.9599,-3.9599,-3.9599,-3.9622,-3.9922,-4.0042,-4.0081,-4.0277,-3.9804,-3.9012,-3.8161,-3.6815,-3.5493,-3.5493,-3.5493,-3.5493,-3.5493,-3.5493,-3.5493,-3.5493,-3.5493,-3.5493,-3.5493,-3.5493,-3.5526,-3.5584,-3.5603,-3.5661,-3.5834,-3.5949,-3.5993,-3.5996,-3.5996,-3.6269,-3.7051,-3.7187,-3.7441,-3.8242,-3.8437,-3.8476,-3.8476,-3.8555,-3.8594,-3.8594,-3.8594,-3.8515,-3.8339,-3.7536,-3.7006,-3.6883,-3.6126,-3.5699,-3.568,-3.5699,-3.5697,-3.5694,-3.5694,-3.5694,-3.5694,-3.5694,-3.5694,-3.5694,-3.5694,-3.5694,-3.5706,-3.584,-3.5929,-3.5975,-3.5975,-3.5975,-3.5975,-3.5975,-3.5975,-3.5972,-3.5972,-3.597,-3.5982,-4.1797,-4.1104,-4.0489,-4.0489,-4.0489,-4.0489,-4.0489,-4.0489,-4.0457,-4.0356,-4.0062,-3.9901,-3.9901,-3.9901,-3.9901,-3.9901,-4.0062,-4.0138,-4.0138,-4.0267,-4.0339,-4.0339,-4.0457,-4.0489,-4.0489,-4.0489,-4.0489,-4.0489,-4.0489,-4.0489,-4.0489,-4.0489,-4.0489,-4.0489,-4.0389,-4.0339,-4.0339,-4.0212,-4.0138,-4.0138,-4.0138,-4.0138,-4.0157,-4.0285,-4.0339,-4.0356,-4.0457,-3.9969,-3.9238,-3.8892,-3.7642,-3.6142,-3.5661,-3.5493,-3.5493,-3.5493,-3.5493,-3.5493,-3.5493,-3.5493,-3.5493,-3.5493,-3.5545,-3.5584,-3.5603,-3.5699,-3.5795,-3.5872,-3.5957,-3.5996,-3.5996,-3.5996,-3.6289,-3.7168,-3.7305,-3.7598,-3.8476,-3.9043,-3.9375,-3.9375,-3.9844,-4.0156,-4.0156,-4.0156,-4.0156,-4.0156,-3.8848,-3.7987,-3.7853,-3.7054,-3.6566,-3.6484,-3.6047,-3.5824,-3.582,-3.5869,-3.5876,-3.5876,-3.5876,-3.5876,-3.5879,-3.5871,-3.5869,-3.5816,-3.5799,-3.5838,-3.5937,-3.5937,-3.5957,-3.5996,-3.5996,-3.5996,-3.5996,-3.6003,-3.599,-3.6064,-4.1854,-4.1104,-4.0489,-4.0489,-4.0489,-4.0489,-4.0489,-4.0489,-4.0489,-4.0489,-4.0339,-4.0213,-4.0213,-4.0213,-4.0213,-4.0213,-4.0389,-4.0489,-4.0489,-4.0489,-4.0489,-4.0489,-4.0489,-4.0489,-4.0489,-4.0489,-4.0489,-4.0489,-4.0489,-4.0489,-4.0489,-4.0489,-4.0489,-4.0489,-4.0489,-4.0489,-4.0489,-4.0489,-4.0489,-4.0489,-4.0489,-4.0489,-4.0489,-4.0489,-4.0489,-4.0489,-4.0489,-4.0123,-3.9623,-3.9373,-3.8469,-3.7276,-3.6199,-3.5699,-3.5493,-3.5493,-3.5493,-3.5493,-3.5493,-3.5493,-3.5493,-3.5493,-3.5565,-3.5611,-3.5616,-3.5779,-3.592,-3.592,-3.5977,-3.6074,-3.6348,-3.6387,-3.6758,-3.7871,-3.8066,-3.8379,-3.9238,-3.9883,-4.0273,-4.0273,-4.082,-4.1191,-4.1191,-4.1191,-4.1191,-4.1191,-4.0059,-3.9219,-3.8867,-3.8066,-3.7572,-3.7479,-3.6709,-3.6309,-3.6309,-3.6102,-3.5996,-3.5996,-3.5996,-3.5996,-3.5996,-3.6002,-3.5963,-3.5905,-3.5824,-3.5833,-3.5935,-3.5933,-3.595,-3.5974,-3.5993,-3.5996,-3.5976,-3.5996,-3.5996,-3.6113,-4.197,-4.1104,-4.0489,-4.0489,-4.0489,-4.0489,-4.0489,-4.0489,-4.0489,-4.0489,-4.0489,-4.0489,-4.0489,-4.0489,-4.0489,-4.0489,-4.0489,-4.0489,-4.0489,-4.0489,-4.0489,-4.0489,-4.0489,-4.0489,-4.0489,-4.0489,-4.0489,-4.0489,-4.0489,-4.0489,-4.0489,-4.0489,-4.0489,-4.0489,-4.0489,-4.0489,-4.0489,-4.0489,-4.0489,-4.0489,-4.0489,-4.0489,-4.0489,-4.0489,-4.0489,-4.0489,-4.0489,-4.0489,-4.0354,-3.9565,-3.9277,-3.8969,-3.7238,-3.6142,-3.5493,-3.5493,-3.5493,-3.5493,-3.5493,-3.5493,-3.5493,-3.5493,-3.5565,-3.5618,-3.5679,-3.5794,-3.5925,-3.5984,-3.5996,-3.6269,-3.7129,-3.7285,-3.7851,-3.959,-3.9863,-4.0176,-4.1055,-4.1172,-4.1172,-4.1172,-4.1191,-4.1191,-4.1191,-4.1191,-4.1191,-4.1191,-4.1172,-4.0781,-3.9922,-3.9062,-3.8574,-3.8574,-3.7734,-3.7285,-3.7285,-3.6426,-3.5996,-3.5996,-3.5996,-3.5996,-3.5996,-3.5996,-3.5997,-3.6001,-3.6001,-3.6001,-3.601,-3.5994,-3.5953,-3.5894,-3.5978,-3.5957,-3.5918,-3.5976,-3.5996,-3.6113,-4.1854,-4.1104,-4.0489,-4.0489,-4.0489,-4.0489,-4.0489,-4.0489,-4.0489,-4.0489,-4.0489,-4.0489,-4.0489,-4.0489,-4.0489,-4.0489,-4.0489,-4.0489,-4.0489,-4.0489,-4.0489,-4.0489,-4.0489,-4.0489,-4.0489,-4.0489,-4.0489,-4.0489,-4.0489,-4.0489,-4.0489,-4.0489,-4.0489,-4.0489,-4.0489,-4.0489,-4.0489,-4.0489,-4.0489,-4.0489,-4.0489,-4.0489,-4.0489,-4.0489,-4.0489,-4.0489,-4.0489,-4.0489,-4.045,-4.02,-3.9738,-3.92,-3.8642,-3.7892,-3.7084,-3.6488,-3.6334,-3.6199,-3.5661,-3.5493,-3.5526,-3.5565,-3.5622,-3.5707,-3.5801,-3.5893,-3.5978,-3.5995,-3.6465,-3.6973,-3.7246,-3.7793,-3.8555,-3.9707,-3.9902,-4.0195,-4.1074,-4.1191,-4.1191,-4.1191,-4.1191,-4.1191,-4.1191,-4.1191,-4.1191,-4.1191,-4.1191,-4.1074,-4.0801,-3.9961,-3.9492,-3.9492,-3.8633,-3.8131,-3.8053,-3.723,-3.6763,-3.6679,-3.607,-3.5797,-3.5792,-3.5757,-3.5723,-3.5718,-3.568,-3.5695,-3.5736,-3.5733,-3.5811,-3.589,-3.5924,-3.5947,-3.5976,-3.5996,-3.6387,-3.7008,-4.1373,-4.0873,-4.0489,-4.0489,-4.0489,-4.0489,-4.0489,-4.0489,-4.0489,-4.0489,-4.0489,-4.0489,-4.0489,-4.0489,-4.0489,-4.0489,-4.0489,-4.0489,-4.0489,-4.0489,-4.0489,-4.0489,-4.0489,-4.0489,-4.0489,-4.0489,-4.0489,-4.0489,-4.0489,-4.0489,-4.0489,-4.0489,-4.0489,-4.0489,-4.0489,-4.0489,-4.0489,-4.0489,-4.0489,-4.0489,-4.0489,-4.0489,-4.0489,-4.0489,-4.0489,-4.0489,-4.0489,-4.0489,-4.0489,-4.0489,-4.0162,-3.9738,-3.9738,-3.9373,-3.87,-3.7526,-3.7199,-3.7084,-3.6584,-3.6224,-3.6031,-3.607,-3.593,-3.5894,-3.6328,-3.6454,-3.6582,-3.6914,-3.7402,-3.7891,-3.8223,-3.8711,-3.9375,-4.0254,-4.0391,-4.0586,-4.1113,-4.1191,-4.1191,-4.1191,-4.1191,-4.1191,-4.1191,-4.1191,-4.1191,-4.1191,-4.1191,-4.1183,-4.1128,-4.0616,-4.0304,-4.0304,-3.9431,-3.8942,-3.8858,-3.8026,-3.7398,-3.6997,-3.6115,-3.5698,-3.5689,-3.5656,-3.5641,-3.5641,-3.5603,-3.5605,-3.5646,-3.5646,-3.5696,-3.5786,-3.5825,-3.585,-3.5921,-3.6307,-3.6816,-3.7455,-4.0662,-4.0489,-4.0489,-4.0489,-4.0489,-4.0489,-4.0489,-4.0489,-4.0489,-4.0489,-4.0489,-4.0489,-4.0489,-4.0489,-4.0489,-4.0489,-4.0489,-4.0489,-4.0489,-4.0489,-4.0489,-4.0489,-4.0489,-4.0489,-4.0489,-4.0489,-4.0489,-4.0489,-4.0489,-4.0489,-4.0489,-4.0489,-4.0489,-4.0489,-4.0489,-4.0489,-4.0489,-4.0489,-4.0489,-4.0489,-4.0489,-4.0489,-4.0489,-4.0489,-4.0489,-4.0489,-4.0489,-4.0489,-4.0489,-4.0489,-4.0489,-4.0489,-4.0508,-4.0508,-4.0181,-3.8565,-3.8084,-3.8084,-3.8027,-3.7507,-3.6993,-3.6993,-3.6548,-3.6317,-3.7196,-3.7383,-3.7617,-3.8437,-3.8652,-3.8945,-3.9746,-3.9941,-4.0254,-4.1074,-4.1191,-4.1191,-4.1191,-4.1191,-4.1191,-4.1191,-4.1191,-4.1191,-4.1191,-4.1191,-4.1191,-4.1191,-4.1191,-4.1139,-4.1012,-4.0985,-4.0985,-4.0985,-4.0137,-3.968,-3.968,-3.882,-3.7939,-3.7055,-3.6252,-3.5834,-3.5776,-3.5776,-3.5738,-3.5699,-3.5699,-3.5699,-3.5699,-3.5699,-3.5661,-3.5611,-3.5736,-3.5779,-3.5905,-3.6919,-3.7343,-3.7684,-4.0527,-4.0489,-4.0489,-4.0489,-4.0489,-4.0489,-4.0489,-4.0489,-4.0489,-4.0489,-4.0489,-4.0489,-4.0489,-4.0489,-4.0489,-4.0489,-4.0489,-4.0489,-4.0489,-4.0489,-4.0489,-4.0489,-4.0489,-4.0489,-4.0489,-4.0489,-4.0489,-4.0489,-4.0489,-4.0489,-4.0489,-4.0489,-4.0489,-4.0489,-4.0489,-4.0489,-4.0489,-4.0489,-4.0489,-4.0489,-4.0489,-4.0489,-4.0489,-4.0489,-4.0489,-4.0489,-4.0489,-4.0489,-4.0489,-4.0489,-4.0489,-4.0508,-4.062,-4.0658,-4.0427,-3.9315,-3.8988,-3.8873,-3.831,-3.8022,-3.7906,-3.8012,-3.8002,-3.8026,-3.8241,-3.8281,-3.8359,-3.8555,-3.9121,-3.9668,-3.9863,-4.0449,-4.0957,-4.1172,-4.1191,-4.1191,-4.1191,-4.1191,-4.1191,-4.1191,-4.1191,-4.1191,-4.1191,-4.1191,-4.1191,-4.1191,-4.1191,-4.1139,-4.1012,-4.0889,-4.085,-4.085,-4.0631,-4.05,-4.0428,-3.9572,-3.8681,-3.7772,-3.7546,-3.7103,-3.6469,-3.6469,-3.6142,-3.5565,-3.5565,-3.5565,-3.5565,-3.5565,-3.5584,-3.5661,-3.6357,-3.6652,-3.6805,-3.7704,-3.8474,-3.9091,-4.0489,-4.0489,-4.0489,-4.0489,-4.0489,-4.0489,-4.0489,-4.0489,-4.0489,-4.0489,-4.0489,-4.0489,-4.0489,-4.0489,-4.0489,-4.0489,-4.0489,-4.0489,-4.0489,-4.0489,-4.0489,-4.0489,-4.0489,-4.0489,-4.0489,-4.0489,-4.0489,-4.0489,-4.0489,-4.0489,-4.0489,-4.0489,-4.0489,-4.0489,-4.0489,-4.0489,-4.0489,-4.0489,-4.0489,-4.0489,-4.0489,-4.0489,-4.0489,-4.0489,-4.0489,-4.0489,-4.0489,-4.0489,-4.0489,-4.0489,-4.0489,-4.0508,-4.0658,-4.0696,-4.0611,-4.012,-3.9998,-3.9908,-3.9503,-3.9138,-3.8805,-3.8566,-3.8557,-3.8691,-3.9101,-3.9199,-3.9316,-3.9707,-4.0156,-4.0488,-4.0488,-4.0879,-4.1191,-4.1191,-4.1191,-4.1191,-4.1191,-4.1191,-4.1191,-4.1191,-4.1191,-4.1191,-4.1191,-4.1191,-4.1191,-4.1191,-4.1191,-4.1139,-4.1012,-4.087,-4.0793,-4.0754,-4.0696,-4.0658,-4.062,-3.9773,-3.9099,-3.8584,-3.818,-3.7757,-3.7296,-3.7296,-3.7065,-3.6642,-3.6642,-3.6642,-3.6642,-3.6642,-3.6661,-3.6738,-3.7219,-3.7435,-3.7603,-3.8477,-3.9135,-3.9635,-4.0489,-4.0489,-4.0489,-4.0489,-4.0489,-4.0489,-4.0489,-4.0489,-4.0489,-4.0489,-4.0489,-4.0489,-4.0489,-4.0489,-4.0508,-4.0543,-4.0543,-4.0543,-4.0543,-4.0543,-4.0543,-4.0543,-4.0543,-4.0543,-4.0543,-4.0543,-4.0562,-4.0562,-4.0562,-4.0562,-4.0562,-4.0543,-4.0543,-4.0543,-4.0508,-4.0489,-4.0489,-4.0489,-4.0489,-4.0489,-4.0489,-4.0489,-4.0489,-4.0489,-4.0489,-4.0489,-4.0489,-4.0489,-4.0489,-4.0508,-4.0543,-4.0562,-4.0696,-4.0754,-4.0752,-4.0849,-4.0865,-4.0868,-4.0847,-4.0386,-3.9777,-3.9147,-3.8984,-3.9199,-3.9922,-4.0098,-4.0312,-4.1055,-4.1191,-4.1191,-4.1191,-4.1191,-4.1191,-4.1191,-4.1191,-4.1191,-4.1191,-4.1191,-4.1191,-4.1191,-4.1191,-4.1191,-4.1191,-4.1191,-4.1191,-4.1191,-4.1191,-4.1133,-4.101,-4.0892,-4.0793,-4.0696,-4.0581,-4.0489,-4.0489,-3.9815,-3.9469,-3.9469,-3.8719,-3.8315,-3.82,-3.82,-3.8123,-3.8007,-3.8007,-3.8007,-3.8007,-3.8007,-3.8007,-3.8007,-3.8142,-3.8238,-3.8377,-3.9253,-3.9642,-3.9819,-4.0489,-4.0489,-4.0489,-4.0489,-4.0489,-4.0489,-4.0489,-4.0489,-4.0489,-4.0489,-4.0489,-4.0489,-4.0489,-4.0489,-4.0562,-4.0658,-4.0677,-4.0677,-4.0677,-4.0677,-4.0677,-4.0677,-4.0716,-4.0735,-4.0677,-4.0716,-4.0754,-4.0754,-4.0754,-4.0754,-4.0754,-4.0696,-4.0677,-4.0658,-4.0562,-4.0489,-4.0489,-4.0489,-4.0489,-4.0489,-4.0489,-4.0489,-4.0489,-4.0489,-4.0489,-4.0489,-4.0489,-4.0489,-4.0508,-4.0639,-4.0677,-4.0696,-4.0889,-4.0947,-4.0983,-4.1102,-4.1146,-4.1111,-4.0998,-4.0965,-4.0947,-4.0839,-4.0801,-4.082,-4.0976,-4.0996,-4.1035,-4.1172,-4.1191,-4.1191,-4.1191,-4.1191,-4.1191,-4.1191,-4.1191,-4.1191,-4.1191,-4.1191,-4.1191,-4.1191,-4.1191,-4.1191,-4.1191,-4.1191,-4.1191,-4.1191,-4.1191,-4.1131,-4.1001,-4.0973,-4.0889,-4.0716,-4.0581,-4.0489,-4.0489,-4.0373,-4.0296,-4.0296,-4.0181,-3.9758,-3.9104,-3.9104,-3.87,-3.8007,-3.8007,-3.8007,-3.8007,-3.8007,-3.8007,-3.8065,-3.8815,-3.9104,-3.92,-4.0042,-4.0335,-4.0373,-4.0489,-4.0489,-4.0489,-4.0489,-4.0489,-4.0489,-4.0489,-4.0489,-4.0489,-4.0489,-4.0489,-4.0543,-4.06,-4.062,-4.0658,-4.0754,-4.0746,-4.079,-4.0866,-4.0784,-4.0746,-4.0746,-4.0781,-4.0786,-4.0754,-4.0784,-4.0804,-4.0804,-4.0804,-4.0804,-4.0804,-4.0765,-4.0726,-4.0696,-4.0677,-4.0639,-4.062,-4.0658,-4.0639,-4.062,-4.0658,-4.0639,-4.062,-4.062,-4.0639,-4.0658,-4.062,-4.0639,-4.0677,-4.0735,-4.0751,-4.0769,-4.0964,-4.0985,-4.1026,-4.1162,-4.1199,-4.1187,-4.1124,-4.1156,-4.1191,-4.1191,-4.1191,-4.1191,-4.1191,-4.1191,-4.1191,-4.1191,-4.1191,-4.1191,-4.1191,-4.1191,-4.1191,-4.1191,-4.1191,-4.1191,-4.1191,-4.1191,-4.1191,-4.1191,-4.1191,-4.1191,-4.1191,-4.1191,-4.1191,-4.1191,-4.1191,-4.1172,-4.1113,-4.1044,-4.0947,-4.085,-4.0639,-4.0489,-4.0489,-4.0489,-4.0489,-4.0489,-4.0489,-4.0296,-3.995,-3.995,-3.9719,-3.9354,-3.9354,-3.9354,-3.9354,-3.9354,-3.9354,-3.9392,-3.9777,-3.995,-3.9988,-4.0354,-4.0489,-4.0489,-4.0489,-4.0489,-4.0489,-4.0489,-4.0489,-4.0489,-4.0489,-4.0489,-4.0508,-4.0543,-4.0562,-4.06,-4.0716,-4.0714,-4.0747,-4.0847,-4.0846,-4.0901,-4.1035,-4.0955,-4.0885,-4.0844,-4.0854,-4.0868,-4.0896,-4.0883,-4.0883,-4.0883,-4.0883,-4.0883,-4.0883,-4.0863,-4.0824,-4.0769,-4.0771,-4.0761,-4.0717,-4.0746,-4.0761,-4.0717,-4.0766,-4.0776,-4.0731,-4.0709,-4.0723,-4.0773,-4.0716,-4.0735,-4.0773,-4.0831,-4.0842,-4.0859,-4.0998,-4.1052,-4.1071,-4.1177,-4.1191,-4.1191,-4.1191,-4.1191,-4.1191,-4.1191,-4.1191,-4.1191,-4.1191,-4.1191,-4.1191,-4.1191,-4.1191,-4.1191,-4.1191,-4.1191,-4.1191,-4.1191,-4.1191,-4.1191,-4.1191,-4.1191,-4.1191,-4.1191,-4.1191,-4.1191,-4.1191,-4.1191,-4.1191,-4.1191,-4.1191,-4.1191,-4.1191,-4.1101,-4.1036,-4.1001,-4.0716,-4.0543,-4.0489,-4.0489,-4.0489,-4.0489,-4.0489,-4.0489,-4.0489,-4.0489,-4.0489,-4.0489,-4.0489,-4.0489,-4.0489,-4.0489,-4.0489,-4.0489,-4.0489,-4.0489,-4.0489,-4.0489,-4.0489,-4.0489,-4.0489,-4.0489,-4.0489,-4.0489,-4.0489,-4.0489,-4.0489,-4.0489,-4.0543,-4.0677,-4.0696,-4.0716,-4.0773,-4.0784,-4.0839,-4.0958,-4.0997,-4.1035,-4.1174,-4.117,-4.1119,-4.0994,-4.0985,-4.105,-4.117,-4.1171,-4.1171,-4.1171,-4.1171,-4.1171,-4.1171,-4.1034,-4.0975,-4.097,-4.0796,-4.0746,-4.0779,-4.0725,-4.0739,-4.0799,-4.0803,-4.0797,-4.0788,-4.0722,-4.0688,-4.0716,-4.0696,-4.0696,-4.0735,-4.0908,-4.0997,-4.1009,-4.1148,-4.1188,-4.1189,-4.1191,-4.1191,-4.1191,-4.1191,-4.1191,-4.1191,-4.1191,-4.1191,-4.1191,-4.1191,-4.1191,-4.1191,-4.1191,-4.1191,-4.1191,-4.1191,-4.1191,-4.1191,-4.1191,-4.1191,-4.1191,-4.1191,-4.1191,-4.1191,-4.1191,-4.1191,-4.1191,-4.1191,-4.1191,-4.1191,-4.1191,-4.1191,-4.1191,-4.1191,-4.119,-4.1134,-4.0997,-4.0793,-4.0639,-4.0489,-4.0489,-4.0489,-4.0489,-4.0489,-4.0489,-4.0489,-4.0489,-4.0489,-4.0489,-4.0489,-4.0489,-4.0489,-4.0489,-4.0489,-4.0489,-4.0489,-4.0489,-4.0489,-4.0489,-4.0489,-4.0489,-4.0489,-4.0489,-4.0543,-4.062,-4.0562,-4.0543,-4.062,-4.062,-4.0639,-4.0696,-4.0739,-4.0808,-4.092,-4.0924,-4.0973,-4.111,-4.111,-4.1145,-4.1208,-4.1201,-4.1187,-4.1133,-4.1117,-4.1148,-4.1191,-4.1191,-4.1191,-4.1191,-4.1191,-4.1191,-4.1191,-4.1152,-4.1074,-4.0996,-4.1012,-4.0971,-4.0919,-4.0996,-4.0979,-4.0932,-4.1008,-4.0943,-4.0808,-4.0857,-4.0896,-4.0889,-4.0889,-4.0939,-4.1025,-4.1103,-4.1123,-4.112,-4.1188,-4.1191,-4.1191,-4.1191,-4.1191,-4.1191,-4.1191,-4.1191,-4.1191,-4.1191,-4.1191,-4.1191,-4.1191,-4.1191,-4.1191,-4.1191,-4.1191,-4.1191,-4.1191,-4.1191,-4.1191,-4.1191,-4.1191,-4.1191,-4.1191,-4.1191,-4.1191,-4.1191,-4.1191,-4.1191,-4.1191,-4.1191,-4.1191,-4.1191,-4.1191,-4.1191,-4.1191,-4.1191,-4.1144,-4.1011,-4.0931,-4.0793,-4.0639,-4.0543,-4.0489,-4.0489,-4.0489,-4.0489,-4.0489,-4.0489,-4.0489,-4.0489,-4.0489,-4.0489,-4.0489,-4.0489,-4.0489,-4.0489,-4.0489,-4.0489,-4.0489,-4.0489,-4.0489,-4.0489,-4.0489,-4.0489,-4.0543,-4.0677,-4.062,-4.06,-4.0716,-4.0735,-4.0754,-4.0793,-4.0829,-4.0916,-4.1042,-4.1061,-4.1093,-4.119,-4.1201,-4.1198,-4.1191,-4.1191,-4.1191,-4.1191,-4.1191,-4.1191,-4.1191,-4.1191,-4.1191,-4.1191,-4.1191,-4.1191,-4.1191,-4.1191,-4.1152,-4.1055,-4.1113,-4.1113,-4.1071,-4.1124,-4.1111,-4.1074,-4.1121,-4.1038,-4.0927,-4.0935,-4.0941,-4.0932,-4.0935,-4.1005,-4.1077,-4.1077,-4.1101,-4.1144,-4.115,-4.1172,-4.1191,-4.1191,-4.1191,-4.1191,-4.1191,-4.1191,-4.1191,-4.1191,-4.1191,-4.1191,-4.1191,-4.1191,-4.1191,-4.1191,-4.1191,-4.1191,-4.1191,-4.1191,-4.1191,-4.1191,-4.1191,-4.1191,-4.1191,-4.1191,-4.1191,-4.1191,-4.1191,-4.1191,-4.1191,-4.1191,-4.1191,-4.1191,-4.1191,-4.1191,-4.1191,-4.1191,-4.1152,-4.1074,-4.1013,-4.0931,-4.0793,-4.0639,-4.0562,-4.0562,-4.0508,-4.0489,-4.0489,-4.0489,-4.0489,-4.0489,-4.0489,-4.0489,-4.0489,-4.0489,-4.0489,-4.0489,-4.0489,-4.0489,-4.0489,-4.0489,-4.0489,-4.0489,-4.0489,-4.0489,-4.0543,-4.0677,-4.0696,-4.0716,-4.0789,-4.0793,-4.085,-4.0966,-4.1001,-4.1056,-4.1188,-4.1191,-4.1191,-4.1191,-4.1191,-4.1191,-4.1191,-4.1191,-4.1191,-4.1191,-4.1191,-4.1191,-4.1191,-4.1191,-4.1191,-4.1191,-4.1191,-4.1191,-4.1191,-4.1191,-4.1191,-4.1191,-4.1055,-4.1074,-4.119,-4.1059,-4.1082,-4.1189,-4.1036,-4.1092,-4.1168,-4.0889,-4.0803,-4.0807,-4.0789,-4.0803,-4.0793,-4.0801,-4.0881,-4.1001,-4.1007,-4.1094,-4.1191,-4.1191,-4.1191,-4.1191,-4.1191,-4.1191,-4.1191,-4.1191,-4.1191,-4.1191,-4.1191,-4.1191,-4.1191,-4.1191,-4.1191,-4.1191,-4.1191,-4.1191,-4.1191,-4.1191,-4.1191,-4.1191,-4.1191,-4.1191,-4.1191,-4.1191,-4.1191,-4.1191,-4.1191,-4.1191,-4.1191,-4.1191,-4.1191,-4.1191,-4.1191,-4.1191,-4.1191,-4.1191,-4.1074,-4.0994,-4.1016,-4.0793,-4.0696,-4.0696,-4.0581,-4.0489,-4.0489,-4.0489,-4.0489,-4.0489,-4.0489,-4.0489,-4.0489,-4.0489,-4.0489,-4.0489,-4.0489,-4.0489,-4.0489,-4.0489,-4.0489,-4.0489,-4.0489,-4.0489,-4.0562,-4.0735,-4.0735,-4.0752,-4.0914,-4.0934,-4.0947,-4.0985,-4.1072,-4.116,-4.1191,-4.1191,-4.1191,-4.1191,-4.1191,-4.1191,-4.1191,-4.1191,-4.1191,-4.1191,-4.1191,-4.1191,-4.1191,-4.1191,-4.1191,-4.1191,-4.1191,-4.1191,-4.1191,-4.1191,-4.1191,-4.1191,-4.1152,-4.1152,-4.1191,-4.1163,-4.1153,-4.1189,-4.1036,-4.1015,-4.1052,-4.0974,-4.0941,-4.0951,-4.0935,-4.0945,-4.0933,-4.0829,-4.0823,-4.0886,-4.0968,-4.1035,-4.1074,-4.1172,-4.1191,-4.1191,-4.1191,-4.1191,-4.1191,-4.1191,-4.1191,-4.1191,-4.1191,-4.1191,-4.1191,-4.1191,-4.1191,-4.1191,-4.1191,-4.1191,-4.1191,-4.1191,-4.1191,-4.1191,-4.1191,-4.1191,-4.1191,-4.1191,-4.1191,-4.1191,-4.1191,-4.1191,-4.1191,-4.1191,-4.1191,-4.1191,-4.1191,-4.1191,-4.1191,-4.1191,-4.1152,-4.1146,-4.1139,-4.0902,-4.075,-4.0696,-4.0658,-4.06,-4.0489,-4.0489,-4.0489,-4.0489,-4.0489,-4.0489,-4.0489,-4.0489,-4.0489,-4.0489,-4.0489,-4.0489,-4.0489,-4.0489,-4.0489,-4.0489,-4.0581,-4.0581,-4.0639,-4.0831,-4.085,-4.0885,-4.1048,-4.1081,-4.1082,-4.1082,-4.1152,-4.1191,-4.1191,-4.1191,-4.1191,-4.1191,-4.1191,-4.1191,-4.1191,-4.1191,-4.1191,-4.1191,-4.1191,-4.1191,-4.1191,-4.1191,-4.1191,-4.1191,-4.1191,-4.1191,-4.1191,-4.1191,-4.1191,-4.1191,-4.1191,-4.1191,-4.1191,-4.1144,-4.1156,-4.1189,-4.0998,-4.0966,-4.1065,-4.103,-4.1011,-4.0995,-4.0936,-4.0924,-4.0915,-4.075,-4.0726,-4.0771,-4.0882,-4.092,-4.0957,-4.1151,-4.1152,-4.1133,-4.1191,-4.1191,-4.1191,-4.1191,-4.1191,-4.1191,-4.1191,-4.1191,-4.1191,-4.1191,-4.1191,-4.1191,-4.1191,-4.1191,-4.1191,-4.1191,-4.1191,-4.1191,-4.1191,-4.1191,-4.1191,-4.1191,-4.1191,-4.1191,-4.1191,-4.1191,-4.1191,-4.1191,-4.1191,-4.1191,-4.1191,-4.1191,-4.1191,-4.1191,-4.1191,-4.1191,-4.1191,-4.1049,-4.0916,-4.083,-4.0745,-4.0658,-4.0581,-4.0508,-4.0489,-4.0489,-4.0489,-4.0489,-4.0489,-4.0489,-4.0489,-4.0489,-4.0489,-4.0489,-4.0489,-4.0489,-4.0489,-4.0489,-4.0677,-4.0708,-4.0781,-4.0981,-4.0985,-4.1059,-4.1185,-4.1191,-4.1191,-4.1191,-4.1191,-4.1191,-4.1191,-4.1191,-4.1191,-4.1191,-4.1191,-4.1191,-4.1191,-4.1191,-4.1191,-4.1191,-4.1191,-4.1191,-4.1191,-4.1191,-4.1191,-4.1191,-4.1191,-4.1191,-4.1191,-4.1189,-4.1187,-4.1187,-4.1169,-4.1151,-4.1167,-4.1031,-4.1053,-4.114,-4.0878,-4.0954,-4.1166,-4.1027,-4.0985,-4.0986,-4.0838,-4.0792,-4.0754,-4.0581,-4.0581,-4.0696,-4.0773,-4.0808,-4.085,-4.1094,-4.1089,-4.1032,-4.1152,-4.1172,-4.1191,-4.1191,-4.1191,-4.1191,-4.1191,-4.1191,-4.1191,-4.1191,-4.1191,-4.1191,-4.1191,-4.1191,-4.1191,-4.1191,-4.1191,-4.1191,-4.1191,-4.1191,-4.1191,-4.1191,-4.1191,-4.1191,-4.1191,-4.1191,-4.1191,-4.1191,-4.1191,-4.1191,-4.1191,-4.1191,-4.1191,-4.1191,-4.1191,-4.1191,-4.1191,-4.1191,-4.1133,-4.0996,-4.082,-4.0718,-4.0696,-4.0581,-4.0508,-4.0489,-4.0489,-4.0489,-4.0489,-4.0489,-4.0489,-4.0489,-4.0489,-4.0489,-4.0489,-4.0489,-4.0489,-4.0489,-4.0754,-4.0784,-4.0837,-4.0969,-4.0985,-4.1059,-4.1185,-4.1191,-4.1191,-4.1191,-4.1191,-4.1191,-4.1191,-4.1191,-4.1191,-4.1191,-4.1191,-4.1191,-4.1191,-4.1191,-4.1191,-4.1191,-4.1191,-4.1191,-4.1191,-4.1191,-4.1191,-4.1191,-4.1191,-4.1191,-4.1191,-4.1096,-4.1028,-4.104,-4.0929,-4.0896,-4.0877,-4.0866,-4.0867,-4.088,-4.0771,-4.0848,-4.1016,-4.084,-4.0858,-4.0977,-4.0783,-4.0733,-4.0696,-4.0562,-4.0508,-4.0562,-4.0677,-4.0769,-4.0816,-4.0862,-4.0931,-4.1013,-4.1043,-4.1035,-4.1074,-4.1172,-4.1191,-4.1191,-4.1191,-4.1191,-4.1191,-4.1191,-4.1191,-4.1191,-4.1191,-4.1191,-4.1191,-4.1191,-4.1191,-4.1191,-4.1191,-4.1191,-4.1191,-4.1191,-4.1191,-4.1191,-4.1191,-4.1191,-4.1191,-4.1191,-4.1191,-4.1191,-4.1191,-4.1191,-4.1191,-4.1191,-4.1191,-4.1191,-4.1191,-4.1191,-4.1133,-4.0996,-4.0962,-4.0848,-4.0696,-4.0677,-4.06,-4.0489,-4.0489,-4.0489,-4.0489,-4.0489,-4.0489,-4.0489,-4.0489,-4.0489,-4.0489,-4.0489,-4.0489,-4.0489,-4.0877,-4.0893,-4.0934,-4.1069,-4.1104,-4.111,-4.119,-4.1191,-4.1191,-4.1191,-4.1191,-4.1191,-4.1191,-4.1191,-4.1191,-4.1191,-4.1191,-4.1191,-4.1191,-4.1191,-4.1191,-4.1191,-4.1191,-4.1191,-4.1191,-4.1191,-4.1191,-4.1191,-4.1191,-4.1175,-4.1108,-4.1036,-4.0966,-4.0904,-4.0836,-4.0792,-4.0792,-4.0773,-4.0771,-4.0793,-4.0735,-4.0784,-4.0887,-4.0799,-4.0808,-4.0889,-4.0754,-4.0658,-4.06,-4.0508,-4.0489,-4.0508,-4.0658,-4.0673,-4.0676,-4.0781,-4.0861,-4.0921,-4.0974,-4.1058,-4.1113,-4.1172,-4.1191,-4.1191,-4.1191,-4.1191,-4.1191,-4.1191,-4.1191,-4.1191,-4.1191,-4.1191,-4.1191,-4.1191,-4.1191,-4.1191,-4.1191,-4.1191,-4.1191,-4.1191,-4.1191,-4.1191,-4.1191,-4.1191,-4.1191,-4.1191,-4.1191,-4.1191,-4.1191,-4.1191,-4.1191,-4.1191,-4.1191,-4.1191,-4.1191,-4.1191,-4.1152,-4.1094,-4.1035,-4.0935,-4.0843,-4.0739,-4.0658,-4.06,-4.0543,-4.0489,-4.0489,-4.0489,-4.0489,-4.0489,-4.0489,-4.0489,-4.0489,-4.0489,-4.0489,-4.0489,-4.1016,-4.1029,-4.1062,-4.1185,-4.1191,-4.1191,-4.1191,-4.1191,-4.1191,-4.1191,-4.1191,-4.1191,-4.1191,-4.1191,-4.1191,-4.1191,-4.1191,-4.1191,-4.1191,-4.1191,-4.1191,-4.1191,-4.1191,-4.1191,-4.1191,-4.1191,-4.1191,-4.1191,-4.1191,-4.1139,-4.0985,-4.0966,-4.0889,-4.0773,-4.0754,-4.0754,-4.0754,-4.0696,-4.0696,-4.0735,-4.0696,-4.0716,-4.0785,-4.0759,-4.0761,-4.0773,-4.0696,-4.06,-4.0489,-4.0489,-4.0489,-4.0508,-4.0639,-4.062,-4.0564,-4.0722,-4.0757,-4.0808,-4.094,-4.1054,-4.1149,-4.1191,-4.1191,-4.1191,-4.1191,-4.1191,-4.1191,-4.1191,-4.1191,-4.1191,-4.1191,-4.1191,-4.1191,-4.1191,-4.1191,-4.1191,-4.1191,-4.1191,-4.1191,-4.1191,-4.1191,-4.1191,-4.1191,-4.1191,-4.1191,-4.1191,-4.1191,-4.1191,-4.1191,-4.1191,-4.1191,-4.1191,-4.1191,-4.1191,-4.1191,-4.1191,-4.1191,-4.1191,-4.1094,-4.1016,-4.0996,-4.0801,-4.0718,-4.0696,-4.0562,-4.0489,-4.0489,-4.0489,-4.0489,-4.0489,-4.0489,-4.0489,-4.0489,-4.0489,-4.0489,-4.0489,-4.1156,-4.116,-4.1185,-4.1191,-4.1191,-4.1191,-4.1191,-4.1191,-4.1191,-4.1191,-4.1191,-4.1191,-4.1191,-4.1191,-4.1191,-4.1191,-4.1191,-4.1191,-4.1191,-4.1191,-4.1191,-4.1191,-4.1191,-4.1191,-4.1191,-4.1191,-4.1191,-4.1191,-4.1191,-4.1139,-4.0985,-4.087,-4.0793,-4.0716,-4.06,-4.0543,-4.0543,-4.0543,-4.0543,-4.0543,-4.0543,-4.06,-4.0696,-4.0569,-4.0607,-4.0696,-4.0581,-4.0508,-4.0489,-4.0489,-4.0489,-4.0489,-4.0508,-4.06,-4.0658,-4.0564,-4.0611,-4.0733,-4.081,-4.084,-4.0914,-4.1149,-4.1191,-4.1191,-4.1191,-4.1191,-4.1191,-4.1191,-4.1191,-4.1191,-4.1191,-4.1191,-4.1191,-4.1191,-4.1191,-4.1191,-4.1191,-4.1191,-4.1191,-4.1191,-4.1191,-4.1191,-4.1191,-4.1191,-4.1191,-4.1191,-4.1191,-4.1191,-4.1191,-4.1191,-4.1191,-4.1191,-4.1191,-4.1191,-4.1191,-4.1191,-4.1191,-4.1191,-4.1172,-4.1113,-4.0996,-4.0857,-4.0746,-4.0696,-4.0562,-4.0489,-4.0489,-4.0489,-4.0489,-4.0489,-4.0489,-4.0489,-4.0489,-4.0489,-4.0489,-4.0489,-4.1189,-4.1191,-4.1191,-4.1191,-4.1191,-4.1191,-4.1191,-4.1191,-4.1191,-4.1191,-4.1191,-4.1191,-4.1191,-4.1191,-4.1191,-4.1191,-4.1191,-4.1191,-4.1191,-4.1191,-4.1191,-4.1191,-4.1191,-4.1191,-4.1191,-4.1128,-4.1099,-4.1099,-4.1099,-4.1001,-4.0831,-4.0773,-4.0696,-4.06,-4.0543,-4.0489,-4.0489,-4.0489,-4.0489,-4.0489,-4.0489,-4.0543,-4.0581,-4.0508,-4.0543,-4.0581,-4.0508,-4.0489,-4.0489,-4.0489,-4.0489,-4.0489,-4.0489,-4.0543,-4.0581,-4.0508,-4.062,-4.0746,-4.0759,-4.0879,-4.1033,-4.1073,-4.1133,-4.1191,-4.1191,-4.1191,-4.1191,-4.1191,-4.1191,-4.1191,-4.1191,-4.1191,-4.1191,-4.1191,-4.1191,-4.1191,-4.1191,-4.1191,-4.1191,-4.1191,-4.1191,-4.1191,-4.1191,-4.1191,-4.1191,-4.1191,-4.1191,-4.1191,-4.1191,-4.1191,-4.1191,-4.1191,-4.1191,-4.1191,-4.1191,-4.1191,-4.1191,-4.1191,-4.1191,-4.1127,-4.1002,-4.0863,-4.0759,-4.0696,-4.0562,-4.0489,-4.0489,-4.0489,-4.0489,-4.0489,-4.0489,-4.0489,-4.0489,-4.0489,-4.0489,-4.0489]}]]